Wetterdaten: aktuell Mittwoch, 18.09.2019 20:05
Datum Zeit Temp. I. Temp. A. Feuchte I. Feuchte A. Luftdruck Regen Wind Richtung Richtung ET Taupunkt Windchill Windben Empfang
18.09.2019 20:05 21,3 C 11,0 C 43 % 53 % 1023,8 hPa 0,0 l/m 0,0 km/h (0 Bft) N-NO 22 0,000 mm 1,8 C 11,0 C 1,6 km/h (1 Bft) 100,00 %
18.09.2019 20:04 21,3 C 11,1 C 43 % 52 % 1023,9 hPa 0,0 l/m 0,0 km/h (0 Bft) N-NO 22 0,000 mm 1,6 C 11,1 C 1,6 km/h (1 Bft) 100,00 %
18.09.2019 20:03 21,3 C 11,2 C 43 % 52 % 1023,8 hPa 0,0 l/m 1,6 km/h (1 Bft) N-NO 22 0,000 mm 1,7 C 11,2 C 1,6 km/h (1 Bft) 95,65 %
18.09.2019 20:02 21,3 C 11,2 C 43 % 52 % 1023,8 hPa 0,0 l/m 1,6 km/h (1 Bft) N-NO 22 0,000 mm 1,7 C 11,2 C 1,6 km/h (1 Bft) 100,00 %
18.09.2019 20:01 21,3 C 11,1 C 43 % 50 % 1023,9 hPa 0,0 l/m 0,0 km/h (0 Bft) N-NO 22 0,000 mm 1,1 C 11,1 C 1,6 km/h (1 Bft) 100,00 %
18.09.2019 20:00 21,3 C 11,2 C 43 % 49 % 1023,8 hPa 0,0 l/m 0,0 km/h (0 Bft) N-NO 22 0,000 mm 0,9 C 11,2 C 1,6 km/h (1 Bft) 100,00 %
18.09.2019 19:59 21,3 C 11,1 C 43 % 49 % 1023,8 hPa 0,0 l/m 0,0 km/h (0 Bft) N 0 0,000 mm 0,8 C 11,1 C 0,0 km/h (0 Bft) 100,00 %
18.09.2019 19:58 21,3 C 11,2 C 43 % 50 % 1023,8 hPa 0,0 l/m 0,0 km/h (0 Bft) N-NO 22 0,000 mm 1,2 C 11,2 C 1,6 km/h (1 Bft) 100,00 %
18.09.2019 19:57 21,3 C 11,3 C 43 % 48 % 1023,7 hPa 0,0 l/m 0,0 km/h (0 Bft) N 0 0,000 mm 0,7 C 11,3 C 0,0 km/h (0 Bft) 100,00 %
18.09.2019 19:56 21,3 C 11,4 C 43 % 48 % 1023,7 hPa 0,0 l/m 0,0 km/h (0 Bft) N 0 0,000 mm 0,8 C 11,4 C 0,0 km/h (0 Bft) 100,00 %
18.09.2019 19:55 21,3 C 11,4 C 43 % 47 % 1023,7 hPa 0,0 l/m 0,0 km/h (0 Bft) N 0 0,000 mm 0,5 C 11,4 C 0,0 km/h (0 Bft) 100,00 %
18.09.2019 19:54 21,3 C 11,4 C 43 % 47 % 1023,7 hPa 0,0 l/m 0,0 km/h (0 Bft) N 0 0,000 mm 0,5 C 11,4 C 0,0 km/h (0 Bft) 100,00 %
18.09.2019 19:53 21,3 C 11,5 C 43 % 47 % 1023,7 hPa 0,0 l/m 0,0 km/h (0 Bft) N-NO 22 0,000 mm 0,6 C 11,5 C 1,6 km/h (1 Bft) 100,00 %
18.09.2019 19:52 21,3 C 11,4 C 43 % 47 % 1023,6 hPa 0,0 l/m 0,0 km/h (0 Bft) N-NO 22 0,000 mm 0,5 C 11,4 C 1,6 km/h (1 Bft) 100,00 %
18.09.2019 19:51 21,3 C 11,4 C 43 % 47 % 1023,6 hPa 0,0 l/m 0,0 km/h (0 Bft) N 0 0,000 mm 0,5 C 11,4 C 0,0 km/h (0 Bft) 100,00 %
18.09.2019 19:50 21,3 C 11,4 C 43 % 47 % 1023,6 hPa 0,0 l/m 0,0 km/h (0 Bft) N 0 0,000 mm 0,5 C 11,4 C 0,0 km/h (0 Bft) 100,00 %
18.09.2019 19:49 21,3 C 11,4 C 43 % 48 % 1023,5 hPa 0,0 l/m 0,0 km/h (0 Bft) N 0 0,000 mm 0,8 C 11,4 C 0,0 km/h (0 Bft) 100,00 %
18.09.2019 19:48 21,3 C 11,5 C 43 % 48 % 1023,5 hPa 0,0 l/m 0,0 km/h (0 Bft) N-NO 22 0,000 mm 0,9 C 11,5 C 1,6 km/h (1 Bft) 100,00 %
18.09.2019 19:47 21,3 C 11,6 C 43 % 49 % 1023,5 hPa 0,0 l/m 0,0 km/h (0 Bft) N 0 0,000 mm 1,3 C 11,6 C 0,0 km/h (0 Bft) 100,00 %
18.09.2019 19:46 21,3 C 11,7 C 43 % 48 % 1023,6 hPa 0,0 l/m 0,0 km/h (0 Bft) N-NO 22 0,000 mm 1,1 C 11,7 C 1,6 km/h (1 Bft) 100,00 %
18.09.2019 19:45 21,3 C 11,7 C 43 % 48 % 1023,6 hPa 0,0 l/m 0,0 km/h (0 Bft) N-NO 22 0,000 mm 1,1 C 11,7 C 1,6 km/h (1 Bft) 100,00 %
18.09.2019 19:44 21,3 C 11,6 C 43 % 47 % 1023,4 hPa 0,0 l/m 0,0 km/h (0 Bft) N-NO 22 0,000 mm 0,7 C 11,6 C 1,6 km/h (1 Bft) 100,00 %
18.09.2019 19:43 21,3 C 11,5 C 43 % 47 % 1023,5 hPa 0,0 l/m 1,6 km/h (1 Bft) N-NO 22 0,000 mm 0,6 C 11,5 C 1,6 km/h (1 Bft) 100,00 %
18.09.2019 19:42 21,3 C 11,4 C 43 % 47 % 1023,4 hPa 0,0 l/m 0,0 km/h (0 Bft) N-NO 22 0,000 mm 0,5 C 11,4 C 1,6 km/h (1 Bft) 100,00 %
18.09.2019 19:41 21,3 C 11,4 C 43 % 47 % 1023,4 hPa 0,0 l/m 0,0 km/h (0 Bft) N-NO 22 0,000 mm 0,5 C 11,4 C 1,6 km/h (1 Bft) 95,65 %
18.09.2019 19:40 21,3 C 11,4 C 43 % 49 % 1023,4 hPa 0,0 l/m 0,0 km/h (0 Bft) N 0 0,000 mm 1,1 C 11,4 C 0,0 km/h (0 Bft) 100,00 %
18.09.2019 19:39 21,3 C 11,4 C 43 % 48 % 1023,4 hPa 0,0 l/m 0,0 km/h (0 Bft) N 0 0,000 mm 0,8 C 11,4 C 0,0 km/h (0 Bft) 100,00 %
18.09.2019 19:38 21,3 C 11,4 C 43 % 47 % 1023,4 hPa 0,0 l/m 0,0 km/h (0 Bft) N 0 0,000 mm 0,5 C 11,4 C 0,0 km/h (0 Bft) 95,65 %
18.09.2019 19:37 21,3 C 11,4 C 43 % 48 % 1023,3 hPa 0,0 l/m 0,0 km/h (0 Bft) N 0 0,000 mm 0,8 C 11,4 C 0,0 km/h (0 Bft) 100,00 %
18.09.2019 19:36 21,3 C 11,4 C 43 % 48 % 1023,4 hPa 0,0 l/m 0,0 km/h (0 Bft) N-NO 22 0,000 mm 0,8 C 11,4 C 1,6 km/h (1 Bft) 95,65 %
18.09.2019 19:35 21,3 C 11,4 C 43 % 46 % 1023,4 hPa 0,0 l/m 0,0 km/h (0 Bft) N 0 0,000 mm 0,2 C 11,4 C 0,0 km/h (0 Bft) 100,00 %
18.09.2019 19:34 21,3 C 11,3 C 43 % 47 % 1023,3 hPa 0,0 l/m 0,0 km/h (0 Bft) N 0 0,000 mm 0,4 C 11,3 C 0,0 km/h (0 Bft) 100,00 %
18.09.2019 19:33 21,3 C 11,4 C 43 % 47 % 1023,3 hPa 0,0 l/m 0,0 km/h (0 Bft) N 0 0,000 mm 0,5 C 11,4 C 0,0 km/h (0 Bft) 100,00 %
18.09.2019 19:32 21,3 C 11,4 C 43 % 47 % 1023,3 hPa 0,0 l/m 0,0 km/h (0 Bft) N 0 0,000 mm 0,5 C 11,4 C 0,0 km/h (0 Bft) 100,00 %
18.09.2019 19:31 21,3 C 11,4 C 43 % 47 % 1023,3 hPa 0,0 l/m 0,0 km/h (0 Bft) N 0 0,000 mm 0,5 C 11,4 C 0,0 km/h (0 Bft) 100,00 %
18.09.2019 19:30 21,3 C 11,4 C 43 % 48 % 1023,2 hPa 0,0 l/m 0,0 km/h (0 Bft) N 0 0,000 mm 0,8 C 11,4 C 0,0 km/h (0 Bft) 100,00 %
18.09.2019 19:29 21,3 C 11,4 C 43 % 46 % 1023,1 hPa 0,0 l/m 0,0 km/h (0 Bft) N 0 0,000 mm 0,2 C 11,4 C 0,0 km/h (0 Bft) 100,00 %
18.09.2019 19:28 21,3 C 11,4 C 43 % 47 % 1023,2 hPa 0,0 l/m 0,0 km/h (0 Bft) N 0 0,000 mm 0,5 C 11,4 C 0,0 km/h (0 Bft) 100,00 %
18.09.2019 19:27 21,3 C 11,5 C 43 % 47 % 1023,1 hPa 0,0 l/m 0,0 km/h (0 Bft) N 0 0,000 mm 0,6 C 11,5 C 0,0 km/h (0 Bft) 100,00 %
18.09.2019 19:26 21,3 C 11,6 C 43 % 49 % 1023,2 hPa 0,0 l/m 0,0 km/h (0 Bft) N 0 0,000 mm 1,3 C 11,6 C 0,0 km/h (0 Bft) 100,00 %
18.09.2019 19:25 21,3 C 11,7 C 43 % 46 % 1023,2 hPa 0,0 l/m 0,0 km/h (0 Bft) N 0 0,000 mm 0,5 C 11,7 C 0,0 km/h (0 Bft) 100,00 %
18.09.2019 19:24 21,3 C 11,8 C 43 % 48 % 1023,1 hPa 0,0 l/m 0,0 km/h (0 Bft) N 0 0,000 mm 1,2 C 11,8 C 0,0 km/h (0 Bft) 100,00 %
18.09.2019 19:23 21,3 C 11,9 C 43 % 46 % 1023,2 hPa 0,0 l/m 0,0 km/h (0 Bft) N 0 0,000 mm 0,7 C 11,9 C 0,0 km/h (0 Bft) 100,00 %
18.09.2019 19:22 21,3 C 12,0 C 43 % 46 % 1023,1 hPa 0,0 l/m 0,0 km/h (0 Bft) N 0 0,000 mm 0,7 C 12,0 C 0,0 km/h (0 Bft) 100,00 %
18.09.2019 19:21 21,3 C 12,1 C 43 % 47 % 1023,1 hPa 0,0 l/m 0,0 km/h (0 Bft) N 0 0,000 mm 1,1 C 12,1 C 0,0 km/h (0 Bft) 95,65 %
18.09.2019 19:20 21,3 C 12,3 C 43 % 44 % 1023,1 hPa 0,0 l/m 0,0 km/h (0 Bft) N 0 0,000 mm 0,4 C 12,3 C 0,0 km/h (0 Bft) 100,00 %
18.09.2019 19:19 21,3 C 12,3 C 43 % 44 % 1023,0 hPa 0,0 l/m 0,0 km/h (0 Bft) N 0 0,000 mm 0,4 C 12,3 C 0,0 km/h (0 Bft) 100,00 %
18.09.2019 19:18 21,3 C 12,3 C 43 % 44 % 1023,1 hPa 0,0 l/m 0,0 km/h (0 Bft) N 0 0,000 mm 0,4 C 12,3 C 0,0 km/h (0 Bft) 100,00 %
18.09.2019 19:17 21,3 C 12,4 C 43 % 44 % 1023,1 hPa 0,0 l/m 0,0 km/h (0 Bft) N 0 0,000 mm 0,5 C 12,4 C 0,0 km/h (0 Bft) 100,00 %
18.09.2019 19:16 21,3 C 12,6 C 43 % 45 % 1023,1 hPa 0,0 l/m 0,0 km/h (0 Bft) N 0 0,000 mm 1,0 C 12,6 C 0,0 km/h (0 Bft) 100,00 %
18.09.2019 19:15 21,3 C 12,6 C 43 % 44 % 1023,1 hPa 0,0 l/m 0,0 km/h (0 Bft) N 0 0,000 mm 0,7 C 12,6 C 0,0 km/h (0 Bft) 100,00 %
18.09.2019 19:14 21,3 C 12,7 C 43 % 43 % 1023,0 hPa 0,0 l/m 0,0 km/h (0 Bft) N 0 0,000 mm 0,5 C 12,7 C 0,0 km/h (0 Bft) 95,65 %
18.09.2019 19:13 21,3 C 12,7 C 43 % 44 % 1023,0 hPa 0,0 l/m 0,0 km/h (0 Bft) N 0 0,000 mm 0,8 C 12,7 C 0,0 km/h (0 Bft) 100,00 %
18.09.2019 19:12 21,3 C 12,8 C 43 % 46 % 1023,0 hPa 0,0 l/m 0,0 km/h (0 Bft) N 0 0,000 mm 1,5 C 12,8 C 0,0 km/h (0 Bft) 100,00 %
18.09.2019 19:11 21,3 C 13,1 C 43 % 42 % 1022,9 hPa 0,0 l/m 0,0 km/h (0 Bft) N 0 0,000 mm 0,5 C 13,1 C 0,0 km/h (0 Bft) 100,00 %
18.09.2019 19:10 21,3 C 13,2 C 43 % 42 % 1022,9 hPa 0,0 l/m 0,0 km/h (0 Bft) N-NO 22 0,000 mm 0,6 C 13,2 C 1,6 km/h (1 Bft) 100,00 %
18.09.2019 19:09 21,3 C 13,1 C 42 % 41 % 1023,0 hPa 0,0 l/m 0,0 km/h (0 Bft) N-NO 22 0,000 mm 0,2 C 13,1 C 1,6 km/h (1 Bft) 95,65 %
18.09.2019 19:08 21,3 C 13,2 C 42 % 41 % 1022,9 hPa 0,0 l/m 0,0 km/h (0 Bft) N-NO 22 0,000 mm 0,2 C 13,2 C 1,6 km/h (1 Bft) 100,00 %
18.09.2019 19:07 21,3 C 13,2 C 42 % 41 % 1023,0 hPa 0,0 l/m 0,0 km/h (0 Bft) N 0 0,000 mm 0,2 C 13,2 C 0,0 km/h (0 Bft) 100,00 %
18.09.2019 19:06 21,3 C 13,2 C 42 % 41 % 1023,0 hPa 0,0 l/m 0,0 km/h (0 Bft) N-NO 22 0,000 mm 0,2 C 13,2 C 1,6 km/h (1 Bft) 100,00 %
18.09.2019 19:05 21,3 C 13,3 C 42 % 40 % 1022,9 hPa 0,0 l/m 0,0 km/h (0 Bft) N-NO 22 0,000 mm -0,0 C 13,3 C 1,6 km/h (1 Bft) 95,65 %
18.09.2019 19:04 21,3 C 13,3 C 42 % 40 % 1022,9 hPa 0,0 l/m 0,0 km/h (0 Bft) N-NO 22 0,000 mm -0,0 C 13,3 C 1,6 km/h (1 Bft) 100,00 %
18.09.2019 19:03 21,3 C 13,3 C 42 % 40 % 1022,9 hPa 0,0 l/m 0,0 km/h (0 Bft) N-NO 22 0,000 mm -0,0 C 13,3 C 1,6 km/h (1 Bft) 100,00 %
18.09.2019 19:02 21,3 C 13,3 C 42 % 40 % 1022,9 hPa 0,0 l/m 0,0 km/h (0 Bft) N-NO 22 0,000 mm -0,0 C 13,3 C 1,6 km/h (1 Bft) 100,00 %
18.09.2019 19:01 21,3 C 13,2 C 42 % 43 % 1022,9 hPa 0,0 l/m 1,6 km/h (1 Bft) N-NO 22 0,000 mm 0,9 C 13,2 C 1,6 km/h (1 Bft) 100,00 %
18.09.2019 19:00 21,3 C 13,3 C 42 % 41 % 1022,9 hPa 0,0 l/m 0,0 km/h (0 Bft) N-NO 22 0,000 mm 0,3 C 13,3 C 1,6 km/h (1 Bft) 100,00 %
18.09.2019 18:59 21,3 C 13,3 C 42 % 41 % 1022,9 hPa 0,0 l/m 0,0 km/h (0 Bft) N-NO 22 0,000 mm 0,3 C 13,3 C 1,6 km/h (1 Bft) 100,00 %
18.09.2019 18:58 21,3 C 13,3 C 42 % 41 % 1022,9 hPa 0,0 l/m 0,0 km/h (0 Bft) N 0 0,000 mm 0,3 C 13,3 C 0,0 km/h (0 Bft) 91,30 %
18.09.2019 18:57 21,3 C 13,4 C 42 % 41 % 1022,8 hPa 0,0 l/m 0,0 km/h (0 Bft) N 0 0,000 mm 0,4 C 13,4 C 0,0 km/h (0 Bft) 100,00 %
18.09.2019 18:56 21,3 C 13,4 C 42 % 40 % 1022,8 hPa 0,0 l/m 0,0 km/h (0 Bft) N-NO 22 0,000 mm 0,1 C 13,4 C 1,6 km/h (1 Bft) 100,00 %
18.09.2019 18:55 21,3 C 13,4 C 42 % 41 % 1022,9 hPa 0,0 l/m 0,0 km/h (0 Bft) N 0 0,000 mm 0,4 C 13,4 C 0,0 km/h (0 Bft) 100,00 %
18.09.2019 18:54 21,3 C 13,5 C 42 % 40 % 1022,9 hPa 0,0 l/m 0,0 km/h (0 Bft) N 0 0,000 mm 0,2 C 13,5 C 0,0 km/h (0 Bft) 100,00 %
18.09.2019 18:53 21,3 C 13,6 C 42 % 41 % 1022,8 hPa 0,0 l/m 0,0 km/h (0 Bft) N-NO 22 0,000 mm 0,6 C 13,6 C 1,6 km/h (1 Bft) 100,00 %
18.09.2019 18:52 21,3 C 13,6 C 42 % 41 % 1022,9 hPa 0,0 l/m 1,6 km/h (1 Bft) N-NO 22 0,000 mm 0,6 C 13,6 C 3,2 km/h (1 Bft) 100,00 %
18.09.2019 18:51 21,3 C 13,6 C 41 % 40 % 1022,9 hPa 0,0 l/m 0,0 km/h (0 Bft) N 360 0,000 mm 0,3 C 13,6 C 1,6 km/h (1 Bft) 100,00 %
18.09.2019 18:50 21,3 C 13,7 C 42 % 41 % 1022,9 hPa 0,0 l/m 1,6 km/h (1 Bft) N 360 0,000 mm 0,7 C 13,7 C 3,2 km/h (1 Bft) 100,00 %
18.09.2019 18:49 21,3 C 13,7 C 41 % 40 % 1022,8 hPa 0,0 l/m 1,6 km/h (1 Bft) N 360 0,000 mm 0,4 C 13,7 C 3,2 km/h (1 Bft) 100,00 %
18.09.2019 18:48 21,3 C 13,7 C 41 % 40 % 1022,9 hPa 0,0 l/m 0,0 km/h (0 Bft) N 360 0,000 mm 0,4 C 13,7 C 4,8 km/h (1 Bft) 100,00 %
18.09.2019 18:47 21,3 C 13,7 C 42 % 40 % 1022,8 hPa 0,0 l/m 1,6 km/h (1 Bft) NW 315 0,000 mm 0,4 C 13,7 C 3,2 km/h (1 Bft) 100,00 %
18.09.2019 18:46 21,3 C 13,8 C 41 % 40 % 1022,8 hPa 0,0 l/m 1,6 km/h (1 Bft) NW 315 0,000 mm 0,4 C 13,8 C 4,8 km/h (1 Bft) 100,00 %
18.09.2019 18:45 21,3 C 13,8 C 42 % 40 % 1022,8 hPa 0,0 l/m 1,6 km/h (1 Bft) N-NW 337 0,000 mm 0,4 C 13,8 C 3,2 km/h (1 Bft) 100,00 %
18.09.2019 18:44 21,3 C 13,8 C 41 % 40 % 1022,9 hPa 0,0 l/m 0,0 km/h (0 Bft) N 360 0,000 mm 0,4 C 13,8 C 3,2 km/h (1 Bft) 100,00 %
18.09.2019 18:43 21,3 C 13,8 C 41 % 40 % 1022,8 hPa 0,0 l/m 1,6 km/h (1 Bft) N 360 0,000 mm 0,4 C 13,8 C 3,2 km/h (1 Bft) 91,30 %
18.09.2019 18:42 21,3 C 13,8 C 41 % 40 % 1022,8 hPa 0,0 l/m 1,6 km/h (1 Bft) N-NW 337 0,000 mm 0,4 C 13,8 C 4,8 km/h (1 Bft) 100,00 %
18.09.2019 18:41 21,3 C 13,8 C 41 % 41 % 1022,8 hPa 0,0 l/m 1,6 km/h (1 Bft) N-NW 337 0,000 mm 0,8 C 13,8 C 4,8 km/h (1 Bft) 100,00 %
18.09.2019 18:40 21,3 C 13,8 C 41 % 42 % 1022,8 hPa 0,0 l/m 1,6 km/h (1 Bft) N-NW 337 0,000 mm 1,1 C 13,8 C 3,2 km/h (1 Bft) 100,00 %
18.09.2019 18:39 21,3 C 13,8 C 41 % 41 % 1022,8 hPa 0,0 l/m 3,2 km/h (1 Bft) N 360 0,000 mm 0,8 C 13,8 C 4,8 km/h (1 Bft) 100,00 %
18.09.2019 18:38 21,3 C 13,8 C 41 % 40 % 1022,8 hPa 0,0 l/m 0,0 km/h (0 Bft) NW 315 0,000 mm 0,4 C 13,8 C 1,6 km/h (1 Bft) 95,65 %
18.09.2019 18:37 21,3 C 13,9 C 41 % 40 % 1022,8 hPa 0,0 l/m 1,6 km/h (1 Bft) NW 315 0,000 mm 0,5 C 13,9 C 3,2 km/h (1 Bft) 100,00 %
18.09.2019 18:36 21,3 C 13,9 C 41 % 42 % 1022,9 hPa 0,0 l/m 1,6 km/h (1 Bft) N-NW 337 0,000 mm 1,2 C 13,9 C 3,2 km/h (1 Bft) 95,65 %
18.09.2019 18:35 21,3 C 14,0 C 41 % 41 % 1022,8 hPa 0,0 l/m 3,2 km/h (1 Bft) NW 315 0,000 mm 1,0 C 14,0 C 4,8 km/h (1 Bft) 100,00 %
18.09.2019 18:34 21,3 C 14,0 C 41 % 41 % 1022,8 hPa 0,0 l/m 1,6 km/h (1 Bft) N-NW 337 0,000 mm 1,0 C 14,0 C 3,2 km/h (1 Bft) 100,00 %
18.09.2019 18:33 21,3 C 14,1 C 41 % 41 % 1022,8 hPa 0,0 l/m 0,0 km/h (0 Bft) N-NW 337 0,000 mm 1,1 C 14,1 C 1,6 km/h (1 Bft) 95,65 %
18.09.2019 18:32 21,3 C 14,1 C 41 % 40 % 1022,8 hPa 0,0 l/m 1,6 km/h (1 Bft) N-NW 337 0,000 mm 0,7 C 14,1 C 3,2 km/h (1 Bft) 100,00 %
18.09.2019 18:31 21,4 C 14,1 C 41 % 42 % 1022,8 hPa 0,0 l/m 3,2 km/h (1 Bft) N-NW 337 0,000 mm 1,4 C 14,1 C 4,8 km/h (1 Bft) 95,65 %
18.09.2019 18:30 21,3 C 14,2 C 41 % 42 % 1022,8 hPa 0,0 l/m 0,0 km/h (0 Bft) N-NW 337 0,000 mm 1,5 C 14,2 C 3,2 km/h (1 Bft) 100,00 %
18.09.2019 18:29 21,3 C 14,3 C 41 % 40 % 1022,8 hPa 0,0 l/m 0,0 km/h (0 Bft) N-NW 337 0,000 mm 0,9 C 14,3 C 3,2 km/h (1 Bft) 100,00 %
18.09.2019 18:28 21,4 C 14,3 C 41 % 38 % 1022,8 hPa 0,0 l/m 3,2 km/h (1 Bft) N-NW 337 0,000 mm 0,2 C 14,3 C 6,4 km/h (2 Bft) 100,00 %
18.09.2019 18:27 21,4 C 14,4 C 41 % 40 % 1022,8 hPa 0,0 l/m 1,6 km/h (1 Bft) N 360 0,000 mm 1,0 C 14,4 C 3,2 km/h (1 Bft) 100,00 %
18.09.2019 18:26 21,3 C 14,4 C 41 % 40 % 1022,8 hPa 0,0 l/m 3,2 km/h (1 Bft) N 360 0,000 mm 1,0 C 14,4 C 6,4 km/h (2 Bft) 95,65 %
18.09.2019 18:25 21,3 C 14,4 C 41 % 40 % 1022,9 hPa 0,0 l/m 1,6 km/h (1 Bft) N-NW 337 0,000 mm 1,0 C 14,4 C 1,6 km/h (1 Bft) 100,00 %
18.09.2019 18:24 21,3 C 14,4 C 41 % 39 % 1022,9 hPa 0,0 l/m 1,6 km/h (1 Bft) N-NW 337 0,000 mm 0,6 C 14,4 C 3,2 km/h (1 Bft) 100,00 %
18.09.2019 18:23 21,3 C 14,5 C 41 % 39 % 1022,8 hPa 0,0 l/m 3,2 km/h (1 Bft) N-NW 337 0,000 mm 0,7 C 14,5 C 4,8 km/h (1 Bft) 100,00 %
18.09.2019 18:22 21,3 C 14,6 C 41 % 40 % 1022,9 hPa 0,0 l/m 1,6 km/h (1 Bft) N-NW 337 0,000 mm 1,2 C 14,6 C 3,2 km/h (1 Bft) 100,00 %
18.09.2019 18:21 21,3 C 14,6 C 41 % 38 % 1022,8 hPa 0,0 l/m 3,2 km/h (1 Bft) NO 45 0,000 mm 0,4 C 14,6 C 6,4 km/h (2 Bft) 100,00 %
18.09.2019 18:20 21,3 C 14,6 C 41 % 39 % 1022,8 hPa 0,0 l/m 3,2 km/h (1 Bft) N-NW 337 0,000 mm 0,8 C 14,6 C 6,4 km/h (2 Bft) 100,00 %
18.09.2019 18:19 21,3 C 14,6 C 41 % 38 % 1022,8 hPa 0,0 l/m 4,8 km/h (1 Bft) N-NO 22 0,000 mm 0,4 C 14,6 C 8,0 km/h (2 Bft) 100,00 %
18.09.2019 18:18 21,3 C 14,6 C 41 % 39 % 1022,8 hPa 0,0 l/m 1,6 km/h (1 Bft) N-NW 337 0,000 mm 0,8 C 14,6 C 4,8 km/h (1 Bft) 100,00 %
18.09.2019 18:17 21,3 C 14,6 C 41 % 39 % 1022,7 hPa 0,0 l/m 1,6 km/h (1 Bft) N 360 0,000 mm 0,8 C 14,6 C 3,2 km/h (1 Bft) 100,00 %
18.09.2019 18:16 21,3 C 14,7 C 41 % 38 % 1022,8 hPa 0,0 l/m 1,6 km/h (1 Bft) N 360 0,000 mm 0,5 C 14,7 C 3,2 km/h (1 Bft) 95,65 %
18.09.2019 18:15 21,4 C 14,7 C 41 % 38 % 1022,8 hPa 0,0 l/m 3,2 km/h (1 Bft) N-NO 22 0,000 mm 0,5 C 14,7 C 4,8 km/h (1 Bft) 100,00 %
18.09.2019 18:14 21,3 C 14,8 C 41 % 37 % 1022,8 hPa 0,0 l/m 1,6 km/h (1 Bft) NW 315 0,000 mm 0,3 C 14,8 C 3,2 km/h (1 Bft) 95,65 %
18.09.2019 18:13 21,4 C 14,8 C 41 % 39 % 1022,7 hPa 0,0 l/m 1,6 km/h (1 Bft) N-NW 337 0,000 mm 1,0 C 14,8 C 3,2 km/h (1 Bft) 95,65 %
18.09.2019 18:12 21,3 C 14,8 C 41 % 38 % 1022,8 hPa 0,0 l/m 1,6 km/h (1 Bft) N-NW 337 0,000 mm 0,6 C 14,8 C 3,2 km/h (1 Bft) 100,00 %
18.09.2019 18:11 21,3 C 14,9 C 41 % 36 % 1022,7 hPa 0,0 l/m 4,8 km/h (1 Bft) N-NW 337 0,000 mm -0,0 C 14,9 C 6,4 km/h (2 Bft) 100,00 %
18.09.2019 18:10 21,3 C 14,9 C 41 % 37 % 1022,8 hPa 0,0 l/m 3,2 km/h (1 Bft) N-NW 337 0,000 mm 0,3 C 14,9 C 4,8 km/h (1 Bft) 100,00 %
18.09.2019 18:09 21,4 C 14,9 C 41 % 38 % 1022,7 hPa 0,0 l/m 3,2 km/h (1 Bft) N-NW 337 0,000 mm 0,7 C 14,9 C 6,4 km/h (2 Bft) 95,65 %
18.09.2019 18:08 21,3 C 14,9 C 41 % 37 % 1022,7 hPa 0,0 l/m 4,8 km/h (1 Bft) NW 315 0,000 mm 0,3 C 14,9 C 6,4 km/h (2 Bft) 100,00 %
18.09.2019 18:07 21,3 C 15,0 C 41 % 37 % 1022,8 hPa 0,0 l/m 3,2 km/h (1 Bft) N 360 0,000 mm 0,4 C 15,0 C 4,8 km/h (1 Bft) 100,00 %
18.09.2019 18:06 21,4 C 15,0 C 41 % 37 % 1022,7 hPa 0,0 l/m 3,2 km/h (1 Bft) N-NO 22 0,000 mm 0,4 C 15,0 C 6,4 km/h (2 Bft) 100,00 %
18.09.2019 18:05 21,3 C 15,0 C 41 % 38 % 1022,7 hPa 0,0 l/m 3,2 km/h (1 Bft) N-NO 22 0,000 mm 0,8 C 15,0 C 6,4 km/h (2 Bft) 95,65 %
18.09.2019 18:04 21,4 C 15,1 C 41 % 38 % 1022,7 hPa 0,0 l/m 3,2 km/h (1 Bft) N-NO 22 0,000 mm 0,9 C 15,1 C 6,4 km/h (2 Bft) 100,00 %
18.09.2019 18:03 21,4 C 15,1 C 41 % 38 % 1022,7 hPa 0,0 l/m 4,8 km/h (1 Bft) N-NW 337 0,000 mm 0,9 C 15,1 C 8,0 km/h (2 Bft) 100,00 %
18.09.2019 18:02 21,4 C 15,1 C 41 % 38 % 1022,7 hPa 0,0 l/m 3,2 km/h (1 Bft) N-NW 337 0,000 mm 0,9 C 15,1 C 4,8 km/h (1 Bft) 95,65 %
18.09.2019 18:01 21,4 C 15,2 C 41 % 39 % 1022,7 hPa 0,0 l/m 3,2 km/h (1 Bft) N 360 0,000 mm 1,3 C 15,2 C 4,8 km/h (1 Bft) 100,00 %
18.09.2019 18:00 21,4 C 15,2 C 41 % 38 % 1022,7 hPa 0,0 l/m 3,2 km/h (1 Bft) N-NO 22 0,000 mm 1,0 C 15,2 C 4,8 km/h (1 Bft) 95,65 %
18.09.2019 17:59 21,3 C 15,2 C 41 % 38 % 1022,7 hPa 0,0 l/m 3,2 km/h (1 Bft) N-NW 337 0,000 mm 1,0 C 15,2 C 6,4 km/h (2 Bft) 100,00 %
18.09.2019 17:58 21,4 C 15,2 C 41 % 38 % 1022,7 hPa 0,0 l/m 1,6 km/h (1 Bft) N-NO 22 0,000 mm 1,0 C 15,2 C 4,8 km/h (1 Bft) 100,00 %
18.09.2019 17:57 21,3 C 15,2 C 41 % 38 % 1022,6 hPa 0,0 l/m 3,2 km/h (1 Bft) N-NW 337 0,000 mm 1,0 C 15,2 C 4,8 km/h (1 Bft) 100,00 %
18.09.2019 17:56 21,3 C 15,3 C 41 % 38 % 1022,6 hPa 0,0 l/m 3,2 km/h (1 Bft) N-NW 337 0,000 mm 1,1 C 15,3 C 6,4 km/h (2 Bft) 100,00 %
18.09.2019 17:55 21,3 C 15,3 C 41 % 38 % 1022,6 hPa 0,0 l/m 3,2 km/h (1 Bft) N 360 0,000 mm 1,1 C 15,3 C 4,8 km/h (1 Bft) 100,00 %
18.09.2019 17:54 21,3 C 15,3 C 41 % 37 % 1022,6 hPa 0,0 l/m 1,6 km/h (1 Bft) N-NW 337 0,000 mm 0,7 C 15,3 C 3,2 km/h (1 Bft) 100,00 %
18.09.2019 17:53 21,4 C 15,3 C 41 % 36 % 1022,7 hPa 0,0 l/m 4,8 km/h (1 Bft) N-NW 337 0,000 mm 0,3 C 15,3 C 8,0 km/h (2 Bft) 100,00 %
18.09.2019 17:52 21,4 C 15,3 C 41 % 38 % 1022,7 hPa 0,0 l/m 4,8 km/h (1 Bft) N-NW 337 0,000 mm 1,1 C 15,3 C 8,0 km/h (2 Bft) 95,65 %
18.09.2019 17:51 21,4 C 15,3 C 41 % 38 % 1022,7 hPa 0,0 l/m 3,2 km/h (1 Bft) N 360 0,000 mm 1,1 C 15,3 C 4,8 km/h (1 Bft) 100,00 %
18.09.2019 17:50 21,4 C 15,4 C 41 % 37 % 1022,7 hPa 0,0 l/m 3,2 km/h (1 Bft) N-NW 337 0,000 mm 0,8 C 15,4 C 6,4 km/h (2 Bft) 100,00 %
18.09.2019 17:49 21,3 C 15,4 C 41 % 36 % 1022,7 hPa 0,0 l/m 4,8 km/h (1 Bft) N-NW 337 0,000 mm 0,4 C 15,4 C 4,8 km/h (1 Bft) 100,00 %
18.09.2019 17:48 21,3 C 15,4 C 41 % 37 % 1022,7 hPa 0,0 l/m 4,8 km/h (1 Bft) N 360 0,000 mm 0,8 C 15,4 C 8,0 km/h (2 Bft) 95,65 %
18.09.2019 17:47 21,3 C 15,4 C 41 % 36 % 1022,7 hPa 0,0 l/m 4,8 km/h (1 Bft) N-NW 337 0,000 mm 0,4 C 15,4 C 6,4 km/h (2 Bft) 100,00 %
18.09.2019 17:46 21,4 C 15,5 C 41 % 36 % 1022,6 hPa 0,0 l/m 4,8 km/h (1 Bft) NW 315 0,000 mm 0,5 C 15,5 C 8,0 km/h (2 Bft) 100,00 %
18.09.2019 17:45 21,4 C 15,5 C 40 % 37 % 1022,6 hPa 0,0 l/m 4,8 km/h (1 Bft) N 360 0,000 mm 0,9 C 15,5 C 6,4 km/h (2 Bft) 100,00 %
18.09.2019 17:44 21,4 C 15,6 C 41 % 38 % 1022,7 hPa 0,0 l/m 4,8 km/h (1 Bft) N-NW 337 0,000 mm 1,3 C 15,6 C 6,4 km/h (2 Bft) 100,00 %
18.09.2019 17:43 21,4 C 15,6 C 40 % 38 % 1022,6 hPa 0,0 l/m 3,2 km/h (1 Bft) NW 315 0,000 mm 1,3 C 15,6 C 4,8 km/h (1 Bft) 95,65 %
18.09.2019 17:42 21,4 C 15,7 C 41 % 36 % 1022,6 hPa 0,0 l/m 3,2 km/h (1 Bft) N-NW 337 0,000 mm 0,7 C 15,7 C 4,8 km/h (1 Bft) 100,00 %
18.09.2019 17:41 21,4 C 15,7 C 41 % 37 % 1022,7 hPa 0,0 l/m 3,2 km/h (1 Bft) N 360 0,000 mm 1,1 C 15,7 C 6,4 km/h (2 Bft) 100,00 %
18.09.2019 17:40 21,4 C 15,8 C 41 % 37 % 1022,6 hPa 0,0 l/m 4,8 km/h (1 Bft) N-NO 22 0,000 mm 1,1 C 15,8 C 8,0 km/h (2 Bft) 100,00 %
18.09.2019 17:39 21,3 C 15,8 C 41 % 36 % 1022,6 hPa 0,0 l/m 4,8 km/h (1 Bft) N 360 0,000 mm 0,8 C 15,8 C 9,7 km/h (2 Bft) 100,00 %
18.09.2019 17:38 21,4 C 15,8 C 41 % 35 % 1022,6 hPa 0,0 l/m 3,2 km/h (1 Bft) N 360 0,000 mm 0,4 C 15,8 C 4,8 km/h (1 Bft) 95,65 %
18.09.2019 17:37 21,4 C 15,8 C 41 % 36 % 1022,7 hPa 0,0 l/m 4,8 km/h (1 Bft) N-NO 22 0,000 mm 0,8 C 15,8 C 6,4 km/h (2 Bft) 100,00 %
18.09.2019 17:36 21,4 C 15,8 C 40 % 36 % 1022,7 hPa 0,0 l/m 1,6 km/h (1 Bft) N 360 0,000 mm 0,8 C 15,8 C 4,8 km/h (1 Bft) 100,00 %
18.09.2019 17:35 21,4 C 15,8 C 40 % 37 % 1022,5 hPa 0,0 l/m 3,2 km/h (1 Bft) N-NW 337 0,000 mm 1,1 C 15,8 C 6,4 km/h (2 Bft) 95,65 %
18.09.2019 17:34 21,4 C 15,9 C 40 % 36 % 1022,6 hPa 0,0 l/m 3,2 km/h (1 Bft) N-NO 22 0,000 mm 0,9 C 15,9 C 6,4 km/h (2 Bft) 95,65 %
18.09.2019 17:33 21,4 C 15,9 C 40 % 36 % 1022,7 hPa 0,0 l/m 4,8 km/h (1 Bft) N-NO 22 0,000 mm 0,9 C 15,9 C 11,3 km/h (2 Bft) 95,65 %
18.09.2019 17:32 21,4 C 15,9 C 41 % 36 % 1022,7 hPa 0,0 l/m 6,4 km/h (2 Bft) N-NO 22 0,000 mm 0,9 C 15,9 C 9,7 km/h (2 Bft) 100,00 %
18.09.2019 17:31 21,3 C 15,9 C 41 % 36 % 1022,6 hPa 0,0 l/m 3,2 km/h (1 Bft) N-NW 337 0,000 mm 0,9 C 15,9 C 8,0 km/h (2 Bft) 95,65 %
18.09.2019 17:30 21,4 C 15,9 C 40 % 36 % 1022,6 hPa 0,0 l/m 4,8 km/h (1 Bft) N-NW 337 0,000 mm 0,9 C 15,9 C 6,4 km/h (2 Bft) 100,00 %
18.09.2019 17:29 21,4 C 16,0 C 40 % 35 % 1022,6 hPa 0,0 l/m 4,8 km/h (1 Bft) N 360 0,000 mm 0,6 C 16,0 C 6,4 km/h (2 Bft) 100,00 %
18.09.2019 17:28 21,4 C 16,1 C 41 % 34 % 1022,7 hPa 0,0 l/m 6,4 km/h (2 Bft) N-NW 337 0,000 mm 0,2 C 16,1 C 8,0 km/h (2 Bft) 100,00 %
18.09.2019 17:27 21,4 C 16,1 C 41 % 36 % 1022,6 hPa 0,0 l/m 6,4 km/h (2 Bft) N-NW 337 0,000 mm 1,0 C 16,1 C 9,7 km/h (2 Bft) 100,00 %
18.09.2019 17:26 21,4 C 16,1 C 41 % 36 % 1022,6 hPa 0,0 l/m 4,8 km/h (1 Bft) NO 45 0,000 mm 1,0 C 16,1 C 11,3 km/h (2 Bft) 91,30 %
18.09.2019 17:25 21,4 C 16,1 C 41 % 36 % 1022,7 hPa 0,0 l/m 6,4 km/h (2 Bft) N 360 0,000 mm 1,0 C 16,1 C 9,7 km/h (2 Bft) 100,00 %
18.09.2019 17:24 21,4 C 16,1 C 41 % 36 % 1022,6 hPa 0,0 l/m 3,2 km/h (1 Bft) N 360 0,000 mm 1,0 C 16,1 C 6,4 km/h (2 Bft) 95,65 %
18.09.2019 17:23 21,4 C 16,1 C 41 % 37 % 1022,7 hPa 0,0 l/m 3,2 km/h (1 Bft) N 360 0,000 mm 1,4 C 16,1 C 4,8 km/h (1 Bft) 100,00 %
18.09.2019 17:22 21,4 C 16,1 C 41 % 35 % 1022,6 hPa 0,0 l/m 6,4 km/h (2 Bft) N 360 0,000 mm 0,6 C 16,1 C 11,3 km/h (2 Bft) 100,00 %
18.09.2019 17:21 21,4 C 16,1 C 41 % 36 % 1022,6 hPa 0,0 l/m 3,2 km/h (1 Bft) N 360 0,000 mm 1,0 C 16,1 C 4,8 km/h (1 Bft) 100,00 %
18.09.2019 17:20 21,4 C 16,1 C 41 % 35 % 1022,6 hPa 0,0 l/m 1,6 km/h (1 Bft) N 360 0,000 mm 0,6 C 16,1 C 4,8 km/h (1 Bft) 100,00 %
18.09.2019 17:19 21,4 C 16,1 C 41 % 36 % 1022,6 hPa 0,0 l/m 3,2 km/h (1 Bft) N-NW 337 0,000 mm 1,0 C 16,1 C 4,8 km/h (1 Bft) 95,65 %
18.09.2019 17:18 21,4 C 16,1 C 41 % 35 % 1022,6 hPa 0,0 l/m 3,2 km/h (1 Bft) N-NW 337 0,000 mm 0,6 C 16,1 C 6,4 km/h (2 Bft) 100,00 %
18.09.2019 17:17 21,4 C 16,1 C 41 % 35 % 1022,6 hPa 0,0 l/m 4,8 km/h (1 Bft) NW 315 0,000 mm 0,6 C 16,1 C 8,0 km/h (2 Bft) 100,00 %
18.09.2019 17:16 21,4 C 16,1 C 41 % 34 % 1022,7 hPa 0,0 l/m 6,4 km/h (2 Bft) N-NW 337 0,000 mm 0,2 C 16,1 C 9,7 km/h (2 Bft) 95,65 %
18.09.2019 17:15 21,4 C 16,2 C 41 % 35 % 1022,6 hPa 0,0 l/m 4,8 km/h (1 Bft) NW 315 0,000 mm 0,7 C 16,2 C 8,0 km/h (2 Bft) 100,00 %
18.09.2019 17:14 21,4 C 16,2 C 41 % 34 % 1022,7 hPa 0,0 l/m 4,8 km/h (1 Bft) N 360 0,000 mm 0,3 C 16,2 C 8,0 km/h (2 Bft) 100,00 %
18.09.2019 17:13 21,4 C 16,2 C 41 % 34 % 1022,6 hPa 0,0 l/m 4,8 km/h (1 Bft) NO 45 0,000 mm 0,3 C 16,2 C 8,0 km/h (2 Bft) 95,65 %
18.09.2019 17:12 21,4 C 16,2 C 41 % 37 % 1022,6 hPa 0,0 l/m 4,8 km/h (1 Bft) N-NW 337 0,000 mm 1,5 C 16,2 C 8,0 km/h (2 Bft) 91,30 %
18.09.2019 17:11 21,4 C 16,1 C 41 % 34 % 1022,6 hPa 0,0 l/m 3,2 km/h (1 Bft) W-NW 292 0,000 mm 0,2 C 16,1 C 6,4 km/h (2 Bft) 100,00 %
18.09.2019 17:10 21,4 C 16,1 C 41 % 35 % 1022,5 hPa 0,0 l/m 3,2 km/h (1 Bft) N-NW 337 0,000 mm 0,6 C 16,1 C 4,8 km/h (1 Bft) 100,00 %
18.09.2019 17:09 21,4 C 16,2 C 41 % 35 % 1022,6 hPa 0,0 l/m 4,8 km/h (1 Bft) W-NW 292 0,000 mm 0,7 C 16,2 C 6,4 km/h (2 Bft) 100,00 %
18.09.2019 17:08 21,4 C 16,3 C 41 % 34 % 1022,5 hPa 0,0 l/m 4,8 km/h (1 Bft) NW 315 0,000 mm 0,4 C 16,3 C 6,4 km/h (2 Bft) 100,00 %
18.09.2019 17:07 21,4 C 16,3 C 41 % 35 % 1022,6 hPa 0,0 l/m 4,8 km/h (1 Bft) N-NW 337 0,000 mm 0,8 C 16,3 C 6,4 km/h (2 Bft) 100,00 %
18.09.2019 17:06 21,4 C 16,3 C 41 % 35 % 1022,6 hPa 0,0 l/m 4,8 km/h (1 Bft) N 360 0,000 mm 0,8 C 16,3 C 6,4 km/h (2 Bft) 100,00 %
18.09.2019 17:05 21,4 C 16,3 C 41 % 36 % 1022,6 hPa 0,0 l/m 3,2 km/h (1 Bft) NW 315 0,000 mm 1,2 C 16,3 C 6,4 km/h (2 Bft) 100,00 %
18.09.2019 17:04 21,4 C 16,3 C 41 % 37 % 1022,6 hPa 0,0 l/m 3,2 km/h (1 Bft) N-NW 337 0,000 mm 1,6 C 16,3 C 4,8 km/h (1 Bft) 100,00 %
18.09.2019 17:03 21,4 C 16,3 C 41 % 35 % 1022,6 hPa 0,0 l/m 3,2 km/h (1 Bft) N-NW 337 0,000 mm 0,8 C 16,3 C 6,4 km/h (2 Bft) 100,00 %
18.09.2019 17:02 21,4 C 16,3 C 41 % 36 % 1022,6 hPa 0,0 l/m 4,8 km/h (1 Bft) N-NW 337 0,000 mm 1,2 C 16,3 C 8,0 km/h (2 Bft) 100,00 %
18.09.2019 17:01 21,4 C 16,3 C 41 % 35 % 1022,6 hPa 0,0 l/m 4,8 km/h (1 Bft) N-NW 337 0,000 mm 0,8 C 16,3 C 8,0 km/h (2 Bft) 100,00 %
18.09.2019 17:00 21,4 C 16,3 C 41 % 37 % 1022,6 hPa 0,0 l/m 6,4 km/h (2 Bft) N-NW 337 0,000 mm 1,6 C 16,3 C 8,0 km/h (2 Bft) 100,00 %
18.09.2019 16:59 21,4 C 16,3 C 41 % 36 % 1022,5 hPa 0,0 l/m 3,2 km/h (1 Bft) N-NW 337 0,000 mm 1,2 C 16,3 C 4,8 km/h (1 Bft) 95,65 %
18.09.2019 16:58 21,4 C 16,3 C 41 % 34 % 1022,6 hPa 0,0 l/m 3,2 km/h (1 Bft) NW 315 0,000 mm 0,4 C 16,3 C 4,8 km/h (1 Bft) 100,00 %
18.09.2019 16:57 21,4 C 16,4 C 41 % 34 % 1022,6 hPa 0,0 l/m 4,8 km/h (1 Bft) N 360 0,000 mm 0,5 C 16,4 C 6,4 km/h (2 Bft) 100,00 %
18.09.2019 16:56 21,4 C 16,5 C 41 % 33 % 1022,6 hPa 0,0 l/m 6,4 km/h (2 Bft) N-NW 337 0,000 mm 0,2 C 16,5 C 9,7 km/h (2 Bft) 100,00 %
18.09.2019 16:55 21,4 C 16,5 C 41 % 35 % 1022,6 hPa 0,0 l/m 4,8 km/h (1 Bft) N 360 0,000 mm 1,0 C 16,5 C 6,4 km/h (2 Bft) 100,00 %
18.09.2019 16:54 21,4 C 16,5 C 41 % 35 % 1022,6 hPa 0,0 l/m 4,8 km/h (1 Bft) N-NO 22 0,000 mm 1,0 C 16,5 C 6,4 km/h (2 Bft) 100,00 %
18.09.2019 16:53 21,4 C 16,5 C 41 % 36 % 1022,6 hPa 0,0 l/m 3,2 km/h (1 Bft) N 360 0,000 mm 1,4 C 16,5 C 4,8 km/h (1 Bft) 100,00 %
18.09.2019 16:52 21,4 C 16,5 C 41 % 37 % 1022,7 hPa 0,0 l/m 4,8 km/h (1 Bft) N 360 0,000 mm 1,8 C 16,5 C 6,4 km/h (2 Bft) 100,00 %
18.09.2019 16:51 21,4 C 16,4 C 41 % 36 % 1022,6 hPa 0,0 l/m 3,2 km/h (1 Bft) N 360 0,000 mm 1,3 C 16,4 C 4,8 km/h (1 Bft) 100,00 %
18.09.2019 16:50 21,4 C 16,4 C 41 % 34 % 1022,7 hPa 0,0 l/m 4,8 km/h (1 Bft) N-NW 337 0,000 mm 0,5 C 16,4 C 6,4 km/h (2 Bft) 95,65 %
18.09.2019 16:49 21,4 C 16,4 C 41 % 35 % 1022,6 hPa 0,0 l/m 4,8 km/h (1 Bft) N 360 0,000 mm 0,9 C 16,4 C 8,0 km/h (2 Bft) 100,00 %
18.09.2019 16:48 21,4 C 16,5 C 41 % 35 % 1022,6 hPa 0,0 l/m 6,4 km/h (2 Bft) N-NW 337 0,000 mm 1,0 C 16,5 C 8,0 km/h (2 Bft) 100,00 %
18.09.2019 16:47 21,4 C 16,6 C 41 % 35 % 1022,6 hPa 0,0 l/m 8,0 km/h (2 Bft) N-NO 22 0,000 mm 1,1 C 15,8 C 12,9 km/h (3 Bft) 100,00 %
18.09.2019 16:46 21,4 C 16,6 C 41 % 36 % 1022,6 hPa 0,0 l/m 4,8 km/h (1 Bft) N-NO 22 0,000 mm 1,5 C 16,6 C 6,4 km/h (2 Bft) 100,00 %
18.09.2019 16:45 21,4 C 16,6 C 41 % 35 % 1022,6 hPa 0,0 l/m 4,8 km/h (1 Bft) N 360 0,000 mm 1,1 C 16,6 C 6,4 km/h (2 Bft) 100,00 %
18.09.2019 16:44 21,4 C 16,6 C 41 % 36 % 1022,7 hPa 0,0 l/m 3,2 km/h (1 Bft) N 360 0,000 mm 1,5 C 16,6 C 3,2 km/h (1 Bft) 100,00 %
18.09.2019 16:43 21,4 C 16,6 C 41 % 35 % 1022,6 hPa 0,0 l/m 3,2 km/h (1 Bft) N-NO 22 0,000 mm 1,1 C 16,6 C 4,8 km/h (1 Bft) 100,00 %
18.09.2019 16:42 21,4 C 16,6 C 41 % 36 % 1022,7 hPa 0,0 l/m 4,8 km/h (1 Bft) N-NO 22 0,000 mm 1,5 C 16,6 C 6,4 km/h (2 Bft) 100,00 %
18.09.2019 16:41 21,4 C 16,6 C 41 % 35 % 1022,6 hPa 0,0 l/m 4,8 km/h (1 Bft) N-NW 337 0,000 mm 1,1 C 16,6 C 9,7 km/h (2 Bft) 100,00 %
18.09.2019 16:40 21,4 C 16,6 C 41 % 36 % 1022,6 hPa 0,0 l/m 4,8 km/h (1 Bft) N-NO 22 0,000 mm 1,5 C 16,6 C 8,0 km/h (2 Bft) 100,00 %
18.09.2019 16:39 21,4 C 16,5 C 41 % 36 % 1022,7 hPa 0,0 l/m 4,8 km/h (1 Bft) N-NW 337 0,000 mm 1,4 C 16,5 C 6,4 km/h (2 Bft) 100,00 %
18.09.2019 16:38 21,4 C 16,5 C 41 % 35 % 1022,6 hPa 0,0 l/m 4,8 km/h (1 Bft) N-NW 337 0,000 mm 1,0 C 16,5 C 8,0 km/h (2 Bft) 95,65 %
18.09.2019 16:37 21,4 C 16,5 C 41 % 36 % 1022,6 hPa 0,0 l/m 4,8 km/h (1 Bft) N 360 0,000 mm 1,4 C 16,5 C 6,4 km/h (2 Bft) 95,65 %
18.09.2019 16:36 21,4 C 16,4 C 41 % 36 % 1022,6 hPa 0,0 l/m 3,2 km/h (1 Bft) N-NO 22 0,000 mm 1,3 C 16,4 C 4,8 km/h (1 Bft) 100,00 %
18.09.2019 16:35 21,4 C 16,3 C 41 % 36 % 1022,6 hPa 0,0 l/m 4,8 km/h (1 Bft) N 360 0,000 mm 1,2 C 16,3 C 8,0 km/h (2 Bft) 100,00 %
18.09.2019 16:34 21,4 C 16,4 C 41 % 33 % 1022,6 hPa 0,0 l/m 6,4 km/h (2 Bft) N-NW 337 0,000 mm 0,1 C 16,4 C 9,7 km/h (2 Bft) 100,00 %
18.09.2019 16:33 21,4 C 16,6 C 41 % 34 % 1022,7 hPa 0,0 l/m 8,0 km/h (2 Bft) N-NW 337 0,000 mm 0,7 C 15,8 C 12,9 km/h (3 Bft) 95,65 %
18.09.2019 16:32 21,4 C 16,7 C 41 % 35 % 1022,6 hPa 0,0 l/m 6,4 km/h (2 Bft) N-NO 22 0,000 mm 1,2 C 16,7 C 9,7 km/h (2 Bft) 100,00 %
18.09.2019 16:31 21,4 C 16,7 C 41 % 35 % 1022,6 hPa 0,0 l/m 4,8 km/h (1 Bft) N 360 0,000 mm 1,2 C 16,7 C 6,4 km/h (2 Bft) 95,65 %
18.09.2019 16:30 21,4 C 16,6 C 41 % 35 % 1022,7 hPa 0,0 l/m 6,4 km/h (2 Bft) N 360 0,000 mm 1,1 C 16,6 C 9,7 km/h (2 Bft) 95,65 %
18.09.2019 16:29 21,4 C 16,7 C 41 % 36 % 1022,7 hPa 0,0 l/m 4,8 km/h (1 Bft) N-NW 337 0,000 mm 1,6 C 16,7 C 9,7 km/h (2 Bft) 100,00 %
18.09.2019 16:28 21,4 C 16,7 C 41 % 33 % 1022,7 hPa 0,0 l/m 4,8 km/h (1 Bft) N-NW 337 0,000 mm 0,4 C 16,7 C 6,4 km/h (2 Bft) 100,00 %
18.09.2019 16:27 21,4 C 16,8 C 41 % 34 % 1022,7 hPa 0,0 l/m 4,8 km/h (1 Bft) N-NW 337 0,000 mm 0,9 C 16,8 C 8,0 km/h (2 Bft) 100,00 %
18.09.2019 16:26 21,4 C 16,8 C 41 % 37 % 1022,7 hPa 0,0 l/m 4,8 km/h (1 Bft) N-NO 22 0,000 mm 2,0 C 16,8 C 6,4 km/h (2 Bft) 100,00 %
18.09.2019 16:25 21,4 C 16,8 C 41 % 35 % 1022,7 hPa 0,0 l/m 3,2 km/h (1 Bft) NO 45 0,000 mm 1,3 C 16,8 C 4,8 km/h (1 Bft) 100,00 %
18.09.2019 16:24 21,4 C 16,8 C 41 % 35 % 1022,7 hPa 0,0 l/m 4,8 km/h (1 Bft) N 360 0,000 mm 1,3 C 16,8 C 8,0 km/h (2 Bft) 100,00 %
18.09.2019 16:23 21,5 C 16,9 C 41 % 35 % 1022,7 hPa 0,0 l/m 6,4 km/h (2 Bft) N-NW 337 0,000 mm 1,3 C 16,9 C 8,0 km/h (2 Bft) 100,00 %
18.09.2019 16:22 21,4 C 16,9 C 41 % 37 % 1022,7 hPa 0,0 l/m 6,4 km/h (2 Bft) N 360 0,000 mm 2,1 C 16,9 C 9,7 km/h (2 Bft) 100,00 %
18.09.2019 16:21 21,5 C 17,0 C 41 % 36 % 1022,7 hPa 0,0 l/m 6,4 km/h (2 Bft) N-NO 22 0,000 mm 1,8 C 17,0 C 14,5 km/h (3 Bft) 100,00 %
18.09.2019 16:20 21,4 C 17,0 C 42 % 36 % 1022,7 hPa 0,0 l/m 6,4 km/h (2 Bft) N-NO 22 0,000 mm 1,8 C 17,0 C 12,9 km/h (3 Bft) 100,00 %
18.09.2019 16:19 21,4 C 16,9 C 42 % 36 % 1022,7 hPa 0,0 l/m 6,4 km/h (2 Bft) NO 45 0,000 mm 1,7 C 16,9 C 11,3 km/h (2 Bft) 95,65 %
18.09.2019 16:18 21,4 C 17,0 C 42 % 34 % 1022,7 hPa 0,0 l/m 3,2 km/h (1 Bft) NO 45 0,000 mm 1,0 C 17,0 C 6,4 km/h (2 Bft) 100,00 %
18.09.2019 16:17 21,4 C 17,0 C 42 % 38 % 1022,7 hPa 0,0 l/m 4,8 km/h (1 Bft) NO 45 0,000 mm 2,6 C 17,0 C 8,0 km/h (2 Bft) 100,00 %
18.09.2019 16:16 21,4 C 16,9 C 42 % 35 % 1022,7 hPa 0,0 l/m 3,2 km/h (1 Bft) N-NW 337 0,000 mm 1,3 C 16,9 C 6,4 km/h (2 Bft) 100,00 %
18.09.2019 16:15 21,4 C 16,9 C 42 % 35 % 1022,7 hPa 0,0 l/m 3,2 km/h (1 Bft) N 360 0,000 mm 1,3 C 16,9 C 4,8 km/h (1 Bft) 100,00 %
18.09.2019 16:14 21,4 C 16,9 C 42 % 36 % 1022,7 hPa 0,0 l/m 3,2 km/h (1 Bft) N 360 0,000 mm 1,7 C 16,9 C 6,4 km/h (2 Bft) 100,00 %
18.09.2019 16:13 21,5 C 17,0 C 42 % 38 % 1022,8 hPa 0,0 l/m 6,4 km/h (2 Bft) N-NW 337 0,000 mm 2,6 C 17,0 C 9,7 km/h (2 Bft) 100,00 %
18.09.2019 16:12 21,5 C 16,9 C 42 % 41 % 1022,7 hPa 0,0 l/m 3,2 km/h (1 Bft) NO 45 0,000 mm 3,6 C 16,9 C 6,4 km/h (2 Bft) 100,00 %
18.09.2019 16:11 21,4 C 16,8 C 42 % 40 % 1022,7 hPa 0,0 l/m 3,2 km/h (1 Bft) W-NW 292 0,000 mm 3,1 C 16,8 C 4,8 km/h (1 Bft) 100,00 %
18.09.2019 16:10 21,5 C 16,8 C 42 % 37 % 1022,7 hPa 0,0 l/m 4,8 km/h (1 Bft) NW 315 0,000 mm 2,0 C 16,8 C 6,4 km/h (2 Bft) 100,00 %
18.09.2019 16:09 21,5 C 16,8 C 42 % 39 % 1022,8 hPa 0,0 l/m 3,2 km/h (1 Bft) W-NW 292 0,000 mm 2,8 C 16,8 C 4,8 km/h (1 Bft) 100,00 %
18.09.2019 16:08 21,4 C 16,8 C 42 % 36 % 1022,8 hPa 0,0 l/m 3,2 km/h (1 Bft) N-NW 337 0,000 mm 1,7 C 16,8 C 4,8 km/h (1 Bft) 100,00 %
18.09.2019 16:07 21,5 C 16,8 C 42 % 38 % 1022,7 hPa 0,0 l/m 4,8 km/h (1 Bft) NW 315 0,000 mm 2,4 C 16,8 C 9,7 km/h (2 Bft) 100,00 %
18.09.2019 16:06 21,4 C 16,8 C 42 % 36 % 1022,7 hPa 0,0 l/m 6,4 km/h (2 Bft) N-NW 337 0,000 mm 1,7 C 16,8 C 9,7 km/h (2 Bft) 95,65 %
18.09.2019 16:05 21,5 C 16,8 C 42 % 35 % 1022,7 hPa 0,0 l/m 8,0 km/h (2 Bft) N-NW 337 0,000 mm 1,3 C 16,0 C 14,5 km/h (3 Bft) 100,00 %
18.09.2019 16:04 21,4 C 16,8 C 42 % 36 % 1022,7 hPa 0,0 l/m 3,2 km/h (1 Bft) NO 45 0,000 mm 1,7 C 16,8 C 4,8 km/h (1 Bft) 100,00 %
18.09.2019 16:03 21,4 C 16,8 C 42 % 37 % 1022,8 hPa 0,0 l/m 3,2 km/h (1 Bft) N 360 0,000 mm 2,0 C 16,8 C 6,4 km/h (2 Bft) 100,00 %
18.09.2019 16:02 21,5 C 16,7 C 42 % 37 % 1022,7 hPa 0,0 l/m 3,2 km/h (1 Bft) N-NO 22 0,000 mm 1,9 C 16,7 C 6,4 km/h (2 Bft) 95,65 %
18.09.2019 16:01 21,5 C 16,6 C 42 % 37 % 1022,8 hPa 0,0 l/m 4,8 km/h (1 Bft) N 360 0,000 mm 1,9 C 16,6 C 6,4 km/h (2 Bft) 100,00 %
18.09.2019 16:00 21,5 C 16,6 C 42 % 36 % 1022,7 hPa 0,0 l/m 4,8 km/h (1 Bft) NO 45 0,000 mm 1,5 C 16,6 C 9,7 km/h (2 Bft) 100,00 %
18.09.2019 15:59 21,5 C 16,6 C 42 % 38 % 1022,7 hPa 0,0 l/m 4,8 km/h (1 Bft) NO 45 0,000 mm 2,2 C 16,6 C 6,4 km/h (2 Bft) 100,00 %
18.09.2019 15:58 21,5 C 16,5 C 42 % 36 % 1022,7 hPa 0,0 l/m 4,8 km/h (1 Bft) N-NW 337 0,000 mm 1,4 C 16,5 C 8,0 km/h (2 Bft) 100,00 %
18.09.2019 15:57 21,5 C 16,6 C 42 % 36 % 1022,8 hPa 0,0 l/m 6,4 km/h (2 Bft) N-NW 337 0,000 mm 1,5 C 16,6 C 9,7 km/h (2 Bft) 95,65 %
18.09.2019 15:56 21,5 C 16,7 C 42 % 36 % 1022,7 hPa 0,0 l/m 8,0 km/h (2 Bft) N-NW 337 0,000 mm 1,6 C 15,9 C 12,9 km/h (3 Bft) 100,00 %
18.09.2019 15:55 21,5 C 16,7 C 42 % 37 % 1022,7 hPa 0,0 l/m 4,8 km/h (1 Bft) NW 315 0,000 mm 1,9 C 16,7 C 6,4 km/h (2 Bft) 100,00 %
18.09.2019 15:54 21,5 C 16,8 C 42 % 38 % 1022,8 hPa 0,0 l/m 3,2 km/h (1 Bft) W-NW 292 0,000 mm 2,4 C 16,8 C 8,0 km/h (2 Bft) 100,00 %
18.09.2019 15:53 21,5 C 16,8 C 42 % 38 % 1022,8 hPa 0,0 l/m 6,4 km/h (2 Bft) NW 315 0,000 mm 2,4 C 16,8 C 12,9 km/h (3 Bft) 100,00 %
18.09.2019 15:52 21,5 C 16,8 C 43 % 37 % 1022,7 hPa 0,0 l/m 6,4 km/h (2 Bft) N-NW 337 0,000 mm 2,0 C 16,8 C 12,9 km/h (3 Bft) 100,00 %
18.09.2019 15:51 21,5 C 16,8 C 43 % 37 % 1022,7 hPa 0,0 l/m 9,7 km/h (2 Bft) NO 45 0,000 mm 2,0 C 15,2 C 16,1 km/h (3 Bft) 100,00 %
18.09.2019 15:50 21,5 C 16,7 C 43 % 37 % 1022,8 hPa 0,0 l/m 6,4 km/h (2 Bft) N 360 0,000 mm 1,9 C 16,7 C 9,7 km/h (2 Bft) 100,00 %
18.09.2019 15:49 21,5 C 16,7 C 43 % 36 % 1022,8 hPa 0,0 l/m 4,8 km/h (1 Bft) N-NW 337 0,000 mm 1,6 C 16,7 C 8,0 km/h (2 Bft) 100,00 %
18.09.2019 15:48 21,5 C 16,8 C 43 % 37 % 1022,7 hPa 0,0 l/m 6,4 km/h (2 Bft) N-NW 337 0,000 mm 2,0 C 16,8 C 9,7 km/h (2 Bft) 100,00 %
18.09.2019 15:47 21,5 C 16,9 C 43 % 37 % 1022,8 hPa 0,0 l/m 3,2 km/h (1 Bft) NW 315 0,000 mm 2,1 C 16,9 C 8,0 km/h (2 Bft) 100,00 %
18.09.2019 15:46 21,5 C 16,9 C 43 % 37 % 1022,8 hPa 0,0 l/m 3,2 km/h (1 Bft) N-NO 22 0,000 mm 2,1 C 16,9 C 4,8 km/h (1 Bft) 100,00 %
18.09.2019 15:45 21,5 C 16,8 C 43 % 40 % 1022,8 hPa 0,0 l/m 3,2 km/h (1 Bft) N 360 0,000 mm 3,1 C 16,8 C 6,4 km/h (2 Bft) 95,65 %
18.09.2019 15:44 21,5 C 16,9 C 43 % 36 % 1022,8 hPa 0,0 l/m 6,4 km/h (2 Bft) N-NW 337 0,000 mm 1,7 C 16,9 C 8,0 km/h (2 Bft) 100,00 %
18.09.2019 15:43 21,5 C 16,9 C 43 % 40 % 1022,8 hPa 0,0 l/m 4,8 km/h (1 Bft) N-NO 22 0,000 mm 3,2 C 16,9 C 6,4 km/h (2 Bft) 100,00 %
18.09.2019 15:42 21,5 C 16,8 C 43 % 38 % 1022,7 hPa 0,0 l/m 6,4 km/h (2 Bft) N-NW 337 0,000 mm 2,4 C 16,8 C 8,0 km/h (2 Bft) 100,00 %
18.09.2019 15:41 21,5 C 16,7 C 43 % 36 % 1022,9 hPa 0,0 l/m 4,8 km/h (1 Bft) N-NW 337 0,000 mm 1,6 C 16,7 C 8,0 km/h (2 Bft) 100,00 %
18.09.2019 15:40 21,5 C 16,9 C 43 % 37 % 1022,8 hPa 0,0 l/m 6,4 km/h (2 Bft) N-NW 337 0,000 mm 2,1 C 16,9 C 12,9 km/h (3 Bft) 100,00 %
18.09.2019 15:39 21,5 C 17,0 C 43 % 38 % 1022,9 hPa 0,0 l/m 4,8 km/h (1 Bft) N-NW 337 0,000 mm 2,6 C 17,0 C 9,7 km/h (2 Bft) 100,00 %
18.09.2019 15:38 21,5 C 16,9 C 43 % 41 % 1022,8 hPa 0,0 l/m 4,8 km/h (1 Bft) N-NW 337 0,000 mm 3,6 C 16,9 C 9,7 km/h (2 Bft) 100,00 %
18.09.2019 15:37 21,5 C 16,8 C 43 % 38 % 1022,8 hPa 0,0 l/m 4,8 km/h (1 Bft) N-NW 337 0,000 mm 2,4 C 16,8 C 6,4 km/h (2 Bft) 91,30 %
18.09.2019 15:36 21,5 C 16,8 C 43 % 38 % 1022,9 hPa 0,0 l/m 6,4 km/h (2 Bft) W-NW 292 0,000 mm 2,4 C 16,8 C 9,7 km/h (2 Bft) 100,00 %
18.09.2019 15:35 21,5 C 16,8 C 43 % 39 % 1022,8 hPa 0,0 l/m 4,8 km/h (1 Bft) N-NW 337 0,000 mm 2,8 C 16,8 C 6,4 km/h (2 Bft) 100,00 %
18.09.2019 15:34 21,5 C 16,8 C 43 % 37 % 1022,9 hPa 0,0 l/m 4,8 km/h (1 Bft) N 360 0,000 mm 2,0 C 16,8 C 6,4 km/h (2 Bft) 100,00 %
18.09.2019 15:33 21,5 C 16,8 C 43 % 38 % 1022,8 hPa 0,0 l/m 4,8 km/h (1 Bft) N 360 0,000 mm 2,4 C 16,8 C 8,0 km/h (2 Bft) 100,00 %
18.09.2019 15:32 21,5 C 16,9 C 43 % 38 % 1022,9 hPa 0,0 l/m 4,8 km/h (1 Bft) N-NW 337 0,000 mm 2,5 C 16,9 C 8,0 km/h (2 Bft) 100,00 %
18.09.2019 15:31 21,5 C 16,8 C 43 % 37 % 1022,9 hPa 0,0 l/m 4,8 km/h (1 Bft) N-NW 337 0,000 mm 2,0 C 16,8 C 6,4 km/h (2 Bft) 100,00 %
18.09.2019 15:30 21,5 C 16,9 C 43 % 42 % 1022,9 hPa 0,0 l/m 4,8 km/h (1 Bft) N 360 0,000 mm 3,9 C 16,9 C 6,4 km/h (2 Bft) 100,00 %
18.09.2019 15:29 21,5 C 16,8 C 43 % 39 % 1022,9 hPa 0,0 l/m 3,2 km/h (1 Bft) N-NW 337 0,000 mm 2,8 C 16,8 C 4,8 km/h (1 Bft) 100,00 %
18.09.2019 15:28 21,6 C 16,8 C 43 % 39 % 1022,9 hPa 0,0 l/m 4,8 km/h (1 Bft) N-NW 337 0,000 mm 2,8 C 16,8 C 8,0 km/h (2 Bft) 100,00 %
18.09.2019 15:27 21,5 C 16,7 C 43 % 41 % 1022,9 hPa 0,0 l/m 3,2 km/h (1 Bft) N-NW 337 0,000 mm 3,4 C 16,7 C 6,4 km/h (2 Bft) 100,00 %
18.09.2019 15:26 21,5 C 16,6 C 43 % 41 % 1022,8 hPa 0,0 l/m 3,2 km/h (1 Bft) NW 315 0,000 mm 3,3 C 16,6 C 6,4 km/h (2 Bft) 100,00 %
18.09.2019 15:25 21,5 C 16,6 C 43 % 37 % 1022,9 hPa 0,0 l/m 3,2 km/h (1 Bft) NW 315 0,000 mm 1,9 C 16,6 C 4,8 km/h (1 Bft) 100,00 %
18.09.2019 15:24 21,5 C 16,6 C 43 % 39 % 1022,9 hPa 0,0 l/m 4,8 km/h (1 Bft) W-NW 292 0,000 mm 2,6 C 16,6 C 6,4 km/h (2 Bft) 100,00 %
18.09.2019 15:23 21,5 C 16,7 C 43 % 38 % 1022,9 hPa 0,0 l/m 4,8 km/h (1 Bft) N-NW 337 0,000 mm 2,3 C 16,7 C 6,4 km/h (2 Bft) 100,00 %
18.09.2019 15:22 21,6 C 16,8 C 43 % 39 % 1022,9 hPa 0,0 l/m 4,8 km/h (1 Bft) N-NW 337 0,000 mm 2,8 C 16,8 C 8,0 km/h (2 Bft) 100,00 %
18.09.2019 15:21 21,5 C 16,8 C 43 % 39 % 1022,9 hPa 0,0 l/m 6,4 km/h (2 Bft) N-NW 337 0,000 mm 2,8 C 16,8 C 9,7 km/h (2 Bft) 100,00 %
18.09.2019 15:20 21,5 C 16,8 C 43 % 42 % 1022,8 hPa 0,0 l/m 6,4 km/h (2 Bft) N-NW 337 0,000 mm 3,8 C 16,8 C 11,3 km/h (2 Bft) 100,00 %
18.09.2019 15:19 21,6 C 16,8 C 43 % 39 % 1022,9 hPa 0,0 l/m 8,0 km/h (2 Bft) NW 315 0,000 mm 2,8 C 16,0 C 16,1 km/h (3 Bft) 100,00 %
18.09.2019 15:18 21,6 C 16,9 C 43 % 40 % 1022,9 hPa 0,0 l/m 4,8 km/h (1 Bft) N 360 0,000 mm 3,2 C 16,9 C 8,0 km/h (2 Bft) 100,00 %
18.09.2019 15:17 21,6 C 16,9 C 43 % 42 % 1022,8 hPa 0,0 l/m 4,8 km/h (1 Bft) N 360 0,000 mm 3,9 C 16,9 C 8,0 km/h (2 Bft) 100,00 %
18.09.2019 15:16 21,6 C 16,8 C 43 % 40 % 1022,8 hPa 0,0 l/m 4,8 km/h (1 Bft) O-NO 67 0,000 mm 3,1 C 16,8 C 8,0 km/h (2 Bft) 100,00 %
18.09.2019 15:15 21,5 C 16,8 C 43 % 41 % 1022,8 hPa 0,0 l/m 3,2 km/h (1 Bft) O-NO 67 0,000 mm 3,5 C 16,8 C 8,0 km/h (2 Bft) 100,00 %
18.09.2019 15:14 21,6 C 16,5 C 43 % 40 % 1023,0 hPa 0,0 l/m 4,8 km/h (1 Bft) NO 45 0,000 mm 2,9 C 16,5 C 8,0 km/h (2 Bft) 100,00 %
18.09.2019 15:13 21,6 C 16,4 C 43 % 40 % 1022,9 hPa 0,0 l/m 3,2 km/h (1 Bft) W 270 0,000 mm 2,8 C 16,4 C 4,8 km/h (1 Bft) 100,00 %
18.09.2019 15:12 21,6 C 16,4 C 43 % 38 % 1022,9 hPa 0,0 l/m 1,6 km/h (1 Bft) W-SW 247 0,000 mm 2,1 C 16,4 C 3,2 km/h (1 Bft) 100,00 %
18.09.2019 15:11 21,6 C 16,6 C 43 % 38 % 1022,9 hPa 0,0 l/m 3,2 km/h (1 Bft) NW 315 0,000 mm 2,2 C 16,6 C 6,4 km/h (2 Bft) 100,00 %
18.09.2019 15:10 21,6 C 16,6 C 43 % 39 % 1023,0 hPa 0,0 l/m 3,2 km/h (1 Bft) N-NW 337 0,000 mm 2,6 C 16,6 C 6,4 km/h (2 Bft) 100,00 %
18.09.2019 15:09 21,6 C 16,7 C 43 % 40 % 1022,9 hPa 0,0 l/m 4,8 km/h (1 Bft) N 360 0,000 mm 3,0 C 16,7 C 6,4 km/h (2 Bft) 95,65 %
18.09.2019 15:08 21,6 C 16,7 C 43 % 41 % 1023,0 hPa 0,0 l/m 4,8 km/h (1 Bft) N-NW 337 0,000 mm 3,4 C 16,7 C 8,0 km/h (2 Bft) 100,00 %
18.09.2019 15:07 21,6 C 16,7 C 43 % 41 % 1023,0 hPa 0,0 l/m 6,4 km/h (2 Bft) NW 315 0,000 mm 3,4 C 16,7 C 9,7 km/h (2 Bft) 100,00 %
18.09.2019 15:06 21,6 C 16,8 C 43 % 40 % 1023,0 hPa 0,0 l/m 4,8 km/h (1 Bft) N-NW 337 0,000 mm 3,1 C 16,8 C 6,4 km/h (2 Bft) 100,00 %
18.09.2019 15:05 21,6 C 16,8 C 43 % 42 % 1023,0 hPa 0,0 l/m 4,8 km/h (1 Bft) NW 315 0,000 mm 3,8 C 16,8 C 6,4 km/h (2 Bft) 100,00 %
18.09.2019 15:04 21,6 C 16,9 C 43 % 39 % 1022,9 hPa 0,0 l/m 8,0 km/h (2 Bft) N-NW 337 0,000 mm 2,9 C 16,1 C 12,9 km/h (3 Bft) 100,00 %
18.09.2019 15:03 21,6 C 17,0 C 43 % 41 % 1023,0 hPa 0,0 l/m 4,8 km/h (1 Bft) N-NW 337 0,000 mm 3,7 C 17,0 C 8,0 km/h (2 Bft) 100,00 %
18.09.2019 15:02 21,6 C 16,9 C 43 % 44 % 1023,0 hPa 0,0 l/m 4,8 km/h (1 Bft) N-NW 337 0,000 mm 4,6 C 16,9 C 6,4 km/h (2 Bft) 100,00 %
18.09.2019 15:01 21,6 C 16,9 C 43 % 43 % 1023,0 hPa 0,0 l/m 6,4 km/h (2 Bft) N-NW 337 0,000 mm 4,2 C 16,9 C 9,7 km/h (2 Bft) 100,00 %
18.09.2019 15:00 21,6 C 16,7 C 43 % 42 % 1023,0 hPa 0,0 l/m 4,8 km/h (1 Bft) N-NW 337 0,000 mm 3,7 C 16,7 C 8,0 km/h (2 Bft) 100,00 %
18.09.2019 14:59 21,6 C 16,7 C 43 % 41 % 1023,0 hPa 0,0 l/m 4,8 km/h (1 Bft) N-NW 337 0,000 mm 3,4 C 16,7 C 14,5 km/h (3 Bft) 95,65 %
18.09.2019 14:58 21,6 C 16,6 C 43 % 43 % 1023,0 hPa 0,0 l/m 8,0 km/h (2 Bft) N-NW 337 0,000 mm 4,0 C 15,8 C 12,9 km/h (3 Bft) 100,00 %
18.09.2019 14:57 21,6 C 16,4 C 43 % 39 % 1023,0 hPa 0,0 l/m 1,6 km/h (1 Bft) W-NW 292 0,000 mm 2,4 C 16,4 C 3,2 km/h (1 Bft) 100,00 %
18.09.2019 14:56 21,6 C 16,5 C 43 % 37 % 1023,0 hPa 0,0 l/m 1,6 km/h (1 Bft) W-NW 292 0,000 mm 1,8 C 16,5 C 3,2 km/h (1 Bft) 100,00 %
18.09.2019 14:55 21,6 C 16,6 C 43 % 38 % 1023,0 hPa 0,0 l/m 3,2 km/h (1 Bft) W-NW 292 0,000 mm 2,2 C 16,6 C 4,8 km/h (1 Bft) 100,00 %
18.09.2019 14:54 21,6 C 16,7 C 43 % 38 % 1023,0 hPa 0,0 l/m 4,8 km/h (1 Bft) W 270 0,000 mm 2,3 C 16,7 C 6,4 km/h (2 Bft) 100,00 %
18.09.2019 14:53 21,6 C 16,9 C 43 % 38 % 1023,0 hPa 0,0 l/m 3,2 km/h (1 Bft) W 270 0,000 mm 2,5 C 16,9 C 4,8 km/h (1 Bft) 100,00 %
18.09.2019 14:52 21,6 C 17,0 C 43 % 42 % 1023,0 hPa 0,0 l/m 3,2 km/h (1 Bft) W-NW 292 0,000 mm 4,0 C 17,0 C 6,4 km/h (2 Bft) 100,00 %
18.09.2019 14:51 21,6 C 17,0 C 43 % 44 % 1023,0 hPa 0,0 l/m 3,2 km/h (1 Bft) NW 315 0,000 mm 4,7 C 17,0 C 4,8 km/h (1 Bft) 95,65 %
18.09.2019 14:50 21,6 C 16,8 C 44 % 41 % 1023,0 hPa 0,0 l/m 0,0 km/h (0 Bft) N-NW 337 0,000 mm 3,5 C 16,8 C 1,6 km/h (1 Bft) 100,00 %
18.09.2019 14:49 21,6 C 16,7 C 44 % 42 % 1023,1 hPa 0,0 l/m 3,2 km/h (1 Bft) N-NW 337 0,000 mm 3,7 C 16,7 C 4,8 km/h (1 Bft) 95,65 %
18.09.2019 14:48 21,6 C 16,6 C 44 % 40 % 1023,1 hPa 0,0 l/m 3,2 km/h (1 Bft) N-NO 22 0,000 mm 2,9 C 16,6 C 6,4 km/h (2 Bft) 100,00 %
18.09.2019 14:47 21,6 C 16,5 C 44 % 38 % 1023,1 hPa 0,0 l/m 4,8 km/h (1 Bft) N 360 0,000 mm 2,1 C 16,5 C 9,7 km/h (2 Bft) 95,65 %
18.09.2019 14:46 21,6 C 16,6 C 44 % 39 % 1023,1 hPa 0,0 l/m 4,8 km/h (1 Bft) N 360 0,000 mm 2,6 C 16,6 C 8,0 km/h (2 Bft) 95,65 %
18.09.2019 14:45 21,7 C 16,5 C 44 % 38 % 1023,1 hPa 0,0 l/m 3,2 km/h (1 Bft) W-NW 292 0,000 mm 2,1 C 16,5 C 4,8 km/h (1 Bft) 100,00 %
18.09.2019 14:44 21,6 C 16,6 C 44 % 40 % 1023,1 hPa 0,0 l/m 6,4 km/h (2 Bft) NW 315 0,000 mm 2,9 C 16,6 C 11,3 km/h (2 Bft) 100,00 %
18.09.2019 14:43 21,6 C 16,5 C 44 % 43 % 1023,1 hPa 0,0 l/m 4,8 km/h (1 Bft) W-NW 292 0,000 mm 3,9 C 16,5 C 8,0 km/h (2 Bft) 100,00 %
18.09.2019 14:42 21,6 C 16,4 C 44 % 40 % 1023,1 hPa 0,0 l/m 3,2 km/h (1 Bft) NW 315 0,000 mm 2,8 C 16,4 C 8,0 km/h (2 Bft) 100,00 %
18.09.2019 14:41 21,7 C 16,4 C 44 % 40 % 1023,1 hPa 0,0 l/m 3,2 km/h (1 Bft) N-NW 337 0,000 mm 2,8 C 16,4 C 6,4 km/h (2 Bft) 100,00 %
18.09.2019 14:40 21,6 C 16,4 C 44 % 40 % 1023,1 hPa 0,0 l/m 3,2 km/h (1 Bft) N 360 0,000 mm 2,8 C 16,4 C 4,8 km/h (1 Bft) 95,65 %
18.09.2019 14:39 21,7 C 16,4 C 44 % 40 % 1023,1 hPa 0,0 l/m 4,8 km/h (1 Bft) N-NW 337 0,000 mm 2,8 C 16,4 C 8,0 km/h (2 Bft) 100,00 %
18.09.2019 14:38 21,7 C 16,5 C 44 % 39 % 1023,1 hPa 0,0 l/m 6,4 km/h (2 Bft) N-NW 337 0,000 mm 2,5 C 16,5 C 9,7 km/h (2 Bft) 100,00 %
18.09.2019 14:37 21,7 C 16,4 C 44 % 40 % 1023,1 hPa 0,0 l/m 6,4 km/h (2 Bft) N-NW 337 0,000 mm 2,8 C 16,4 C 12,9 km/h (3 Bft) 100,00 %
18.09.2019 14:36 21,7 C 16,4 C 44 % 40 % 1023,1 hPa 0,0 l/m 6,4 km/h (2 Bft) NW 315 0,000 mm 2,8 C 16,4 C 9,7 km/h (2 Bft) 100,00 %
18.09.2019 14:35 21,7 C 16,5 C 44 % 40 % 1023,1 hPa 0,0 l/m 8,0 km/h (2 Bft) N-NW 337 0,000 mm 2,9 C 15,7 C 12,9 km/h (3 Bft) 100,00 %
18.09.2019 14:34 21,7 C 16,5 C 44 % 40 % 1023,1 hPa 0,0 l/m 8,0 km/h (2 Bft) N-NW 337 0,000 mm 2,9 C 15,7 C 12,9 km/h (3 Bft) 100,00 %
18.09.2019 14:33 21,7 C 16,4 C 44 % 42 % 1023,1 hPa 0,0 l/m 6,4 km/h (2 Bft) N-NW 337 0,000 mm 3,5 C 16,4 C 9,7 km/h (2 Bft) 95,65 %
18.09.2019 14:32 21,7 C 16,4 C 44 % 42 % 1023,1 hPa 0,0 l/m 8,0 km/h (2 Bft) N-NW 337 0,000 mm 3,5 C 15,6 C 12,9 km/h (3 Bft) 86,96 %
18.09.2019 14:31 21,7 C 16,4 C 44 % 42 % 1023,1 hPa 0,0 l/m 8,0 km/h (2 Bft) N-NW 337 0,000 mm 3,5 C 15,6 C 16,1 km/h (3 Bft) 100,00 %
18.09.2019 14:30 21,7 C 16,4 C 44 % 42 % 1023,1 hPa 0,0 l/m 4,8 km/h (1 Bft) N-NW 337 0,000 mm 3,5 C 16,4 C 8,0 km/h (2 Bft) 69,57 %
18.09.2019 14:29 21,7 C 16,4 C 44 % 43 % 1023,2 hPa 0,0 l/m 6,4 km/h (2 Bft) N 360 0,000 mm 3,8 C 16,4 C 8,0 km/h (2 Bft) 60,87 %
18.09.2019 14:28 21,7 C 16,3 C 44 % 43 % 1023,1 hPa 0,0 l/m 6,4 km/h (2 Bft) NO 45 0,000 mm 3,7 C 16,3 C 11,3 km/h (2 Bft) 65,22 %
18.09.2019 14:27 21,6 C 16,2 C 44 % 40 % 1023,2 hPa 0,0 l/m 4,8 km/h (1 Bft) S 180 0,000 mm 2,6 C 16,2 C 12,9 km/h (3 Bft) 100,00 %
18.09.2019 14:26 21,7 C 16,1 C 44 % 43 % 1023,2 hPa 0,0 l/m 1,6 km/h (1 Bft) NO 45 0,000 mm 3,5 C 16,1 C 3,2 km/h (1 Bft) 100,00 %
18.09.2019 14:25 21,7 C 16,1 C 44 % 40 % 1023,2 hPa 0,0 l/m 1,6 km/h (1 Bft) NW 315 0,000 mm 2,5 C 16,1 C 4,8 km/h (1 Bft) 100,00 %
18.09.2019 14:24 21,7 C 16,3 C 44 % 39 % 1023,1 hPa 0,0 l/m 3,2 km/h (1 Bft) W-SW 247 0,000 mm 2,3 C 16,3 C 4,8 km/h (1 Bft) 100,00 %
18.09.2019 14:23 21,7 C 16,5 C 44 % 41 % 1023,2 hPa 0,0 l/m 4,8 km/h (1 Bft) NW 315 0,000 mm 3,2 C 16,5 C 8,0 km/h (2 Bft) 100,00 %
18.09.2019 14:22 21,7 C 16,5 C 45 % 43 % 1023,3 hPa 0,0 l/m 4,8 km/h (1 Bft) N-NW 337 0,000 mm 3,9 C 16,5 C 6,4 km/h (2 Bft) 100,00 %
18.09.2019 14:21 21,7 C 16,4 C 45 % 44 % 1023,3 hPa 0,0 l/m 4,8 km/h (1 Bft) N-NW 337 0,000 mm 4,1 C 16,4 C 6,4 km/h (2 Bft) 95,65 %
18.09.2019 14:20 21,7 C 16,4 C 45 % 43 % 1023,2 hPa 0,0 l/m 6,4 km/h (2 Bft) N-NO 22 0,000 mm 3,8 C 16,4 C 9,7 km/h (2 Bft) 100,00 %
18.09.2019 14:19 21,7 C 16,3 C 45 % 42 % 1023,3 hPa 0,0 l/m 4,8 km/h (1 Bft) N 360 0,000 mm 3,4 C 16,3 C 8,0 km/h (2 Bft) 100,00 %
18.09.2019 14:18 21,7 C 16,3 C 45 % 43 % 1023,3 hPa 0,0 l/m 4,8 km/h (1 Bft) N-NW 337 0,000 mm 3,7 C 16,3 C 8,0 km/h (2 Bft) 100,00 %
18.09.2019 14:17 21,7 C 16,3 C 45 % 40 % 1023,3 hPa 0,0 l/m 8,0 km/h (2 Bft) N-NW 337 0,000 mm 2,7 C 15,5 C 12,9 km/h (3 Bft) 100,00 %
18.09.2019 14:16 21,7 C 16,3 C 45 % 42 % 1023,3 hPa 0,0 l/m 4,8 km/h (1 Bft) N 360 0,000 mm 3,4 C 16,3 C 8,0 km/h (2 Bft) 100,00 %
18.09.2019 14:15 21,7 C 16,3 C 45 % 42 % 1023,2 hPa 0,0 l/m 4,8 km/h (1 Bft) NO 45 0,000 mm 3,4 C 16,3 C 8,0 km/h (2 Bft) 100,00 %
18.09.2019 14:14 21,6 C 16,4 C 45 % 41 % 1023,3 hPa 0,0 l/m 6,4 km/h (2 Bft) N 360 0,000 mm 3,1 C 16,4 C 14,5 km/h (3 Bft) 100,00 %
18.09.2019 14:13 21,6 C 16,4 C 45 % 43 % 1023,3 hPa 0,0 l/m 6,4 km/h (2 Bft) N 360 0,000 mm 3,8 C 16,4 C 9,7 km/h (2 Bft) 100,00 %
18.09.2019 14:12 21,6 C 16,4 C 45 % 46 % 1023,3 hPa 0,0 l/m 6,4 km/h (2 Bft) NW 315 0,000 mm 4,8 C 16,4 C 8,0 km/h (2 Bft) 100,00 %
18.09.2019 14:11 21,6 C 16,4 C 45 % 44 % 1023,3 hPa 0,0 l/m 4,8 km/h (1 Bft) NW 315 0,000 mm 4,1 C 16,4 C 8,0 km/h (2 Bft) 100,00 %
18.09.2019 14:10 21,6 C 16,4 C 45 % 44 % 1023,3 hPa 0,0 l/m 3,2 km/h (1 Bft) N-NW 337 0,000 mm 4,1 C 16,4 C 8,0 km/h (2 Bft) 100,00 %
18.09.2019 14:09 21,6 C 16,3 C 45 % 44 % 1023,3 hPa 0,0 l/m 4,8 km/h (1 Bft) N 360 0,000 mm 4,0 C 16,3 C 8,0 km/h (2 Bft) 100,00 %
18.09.2019 14:08 21,6 C 16,4 C 45 % 44 % 1023,3 hPa 0,0 l/m 4,8 km/h (1 Bft) NW 315 0,000 mm 4,1 C 16,4 C 6,4 km/h (2 Bft) 100,00 %
18.09.2019 14:07 21,6 C 16,4 C 45 % 45 % 1023,3 hPa 0,0 l/m 6,4 km/h (2 Bft) N 360 0,000 mm 4,4 C 16,4 C 9,7 km/h (2 Bft) 100,00 %
18.09.2019 14:06 21,6 C 16,3 C 45 % 44 % 1023,3 hPa 0,0 l/m 3,2 km/h (1 Bft) N-NW 337 0,000 mm 4,0 C 16,3 C 6,4 km/h (2 Bft) 100,00 %
18.09.2019 14:05 21,6 C 16,2 C 45 % 43 % 1023,2 hPa 0,0 l/m 1,6 km/h (1 Bft) O-NO 67 0,000 mm 3,6 C 16,2 C 3,2 km/h (1 Bft) 100,00 %
18.09.2019 14:04 21,6 C 16,1 C 45 % 44 % 1023,3 hPa 0,0 l/m 1,6 km/h (1 Bft) SW 225 0,000 mm 3,8 C 16,1 C 3,2 km/h (1 Bft) 100,00 %
18.09.2019 14:03 21,6 C 16,2 C 45 % 44 % 1023,3 hPa 0,0 l/m 4,8 km/h (1 Bft) W-NW 292 0,000 mm 3,9 C 16,2 C 9,7 km/h (2 Bft) 100,00 %
18.09.2019 14:02 21,6 C 16,3 C 45 % 44 % 1023,3 hPa 0,0 l/m 8,0 km/h (2 Bft) W-NW 292 0,000 mm 4,0 C 15,5 C 12,9 km/h (3 Bft) 100,00 %
18.09.2019 14:01 21,6 C 16,2 C 45 % 46 % 1023,3 hPa 0,0 l/m 8,0 km/h (2 Bft) W-NW 292 0,000 mm 4,6 C 15,4 C 12,9 km/h (3 Bft) 100,00 %
18.09.2019 14:00 21,6 C 16,2 C 45 % 47 % 1023,2 hPa 0,0 l/m 6,4 km/h (2 Bft) S-SW 202 0,000 mm 4,9 C 16,2 C 11,3 km/h (2 Bft) 100,00 %
18.09.2019 13:59 21,6 C 16,2 C 45 % 44 % 1023,2 hPa 0,0 l/m 4,8 km/h (1 Bft) N-NW 337 0,000 mm 3,9 C 16,2 C 8,0 km/h (2 Bft) 100,00 %
18.09.2019 13:58 21,6 C 16,2 C 45 % 46 % 1023,3 hPa 0,0 l/m 8,0 km/h (2 Bft) N-NW 337 0,000 mm 4,6 C 15,4 C 12,9 km/h (3 Bft) 100,00 %
18.09.2019 13:57 21,5 C 16,2 C 46 % 44 % 1023,3 hPa 0,0 l/m 4,8 km/h (1 Bft) NW 315 0,000 mm 3,9 C 16,2 C 9,7 km/h (2 Bft) 100,00 %
18.09.2019 13:56 21,6 C 16,4 C 45 % 43 % 1023,3 hPa 0,0 l/m 8,0 km/h (2 Bft) NW 315 0,000 mm 3,8 C 15,6 C 12,9 km/h (3 Bft) 95,65 %
18.09.2019 13:55 21,6 C 16,4 C 45 % 45 % 1023,2 hPa 0,0 l/m 4,8 km/h (1 Bft) N 360 0,000 mm 4,4 C 16,4 C 11,3 km/h (2 Bft) 100,00 %
18.09.2019 13:54 21,5 C 16,4 C 45 % 46 % 1023,2 hPa 0,0 l/m 1,6 km/h (1 Bft) NW 315 0,000 mm 4,8 C 16,4 C 4,8 km/h (1 Bft) 95,65 %
18.09.2019 13:53 21,5 C 16,4 C 45 % 48 % 1023,3 hPa 0,0 l/m 4,8 km/h (1 Bft) NW 315 0,000 mm 5,4 C 16,4 C 6,4 km/h (2 Bft) 100,00 %
18.09.2019 13:52 21,5 C 16,2 C 45 % 48 % 1023,2 hPa 0,0 l/m 4,8 km/h (1 Bft) NW 315 0,000 mm 5,2 C 16,2 C 8,0 km/h (2 Bft) 100,00 %
18.09.2019 13:51 21,5 C 16,2 C 45 % 47 % 1023,3 hPa 0,0 l/m 6,4 km/h (2 Bft) NW 315 0,000 mm 4,9 C 16,2 C 9,7 km/h (2 Bft) 100,00 %
18.09.2019 13:50 21,5 C 16,2 C 45 % 47 % 1023,3 hPa 0,0 l/m 6,4 km/h (2 Bft) N-NW 337 0,000 mm 4,9 C 16,2 C 8,0 km/h (2 Bft) 100,00 %
18.09.2019 13:49 21,5 C 16,1 C 45 % 47 % 1023,3 hPa 0,0 l/m 4,8 km/h (1 Bft) NO 45 0,000 mm 4,8 C 16,1 C 8,0 km/h (2 Bft) 95,65 %
18.09.2019 13:48 21,5 C 16,1 C 45 % 45 % 1023,3 hPa 0,0 l/m 6,4 km/h (2 Bft) N-NW 337 0,000 mm 4,2 C 16,1 C 9,7 km/h (2 Bft) 100,00 %
18.09.2019 13:47 21,5 C 16,1 C 45 % 46 % 1023,3 hPa 0,0 l/m 4,8 km/h (1 Bft) W-NW 292 0,000 mm 4,5 C 16,1 C 6,4 km/h (2 Bft) 91,30 %
18.09.2019 13:46 21,5 C 16,1 C 45 % 46 % 1023,3 hPa 0,0 l/m 4,8 km/h (1 Bft) N 360 0,000 mm 4,5 C 16,1 C 8,0 km/h (2 Bft) 100,00 %
18.09.2019 13:45 21,5 C 16,0 C 45 % 46 % 1023,4 hPa 0,0 l/m 1,6 km/h (1 Bft) N-NO 22 0,000 mm 4,4 C 16,0 C 3,2 km/h (1 Bft) 95,65 %
18.09.2019 13:44 21,5 C 16,1 C 45 % 49 % 1023,4 hPa 0,0 l/m 3,2 km/h (1 Bft) SW 225 0,000 mm 5,4 C 16,1 C 6,4 km/h (2 Bft) 100,00 %
18.09.2019 13:43 21,5 C 15,9 C 45 % 47 % 1023,3 hPa 0,0 l/m 4,8 km/h (1 Bft) S-SW 202 0,000 mm 4,6 C 15,9 C 6,4 km/h (2 Bft) 100,00 %
18.09.2019 13:42 21,5 C 15,9 C 45 % 49 % 1023,4 hPa 0,0 l/m 3,2 km/h (1 Bft) N 360 0,000 mm 5,2 C 15,9 C 6,4 km/h (2 Bft) 100,00 %
18.09.2019 13:41 21,5 C 16,1 C 45 % 49 % 1023,4 hPa 0,0 l/m 6,4 km/h (2 Bft) N 360 0,000 mm 5,4 C 16,1 C 8,0 km/h (2 Bft) 100,00 %
18.09.2019 13:40 21,5 C 16,2 C 45 % 46 % 1023,4 hPa 0,0 l/m 6,4 km/h (2 Bft) NW 315 0,000 mm 4,6 C 16,2 C 11,3 km/h (2 Bft) 95,65 %
18.09.2019 13:39 21,4 C 16,2 C 45 % 45 % 1023,4 hPa 0,0 l/m 8,0 km/h (2 Bft) W-NW 292 0,000 mm 4,3 C 15,4 C 14,5 km/h (3 Bft) 95,65 %
18.09.2019 13:38 21,5 C 16,2 C 45 % 46 % 1023,5 hPa 0,0 l/m 8,0 km/h (2 Bft) W-NW 292 0,000 mm 4,6 C 15,4 C 16,1 km/h (3 Bft) 100,00 %
18.09.2019 13:37 21,5 C 16,2 C 45 % 47 % 1023,4 hPa 0,0 l/m 4,8 km/h (1 Bft) NW 315 0,000 mm 4,9 C 16,2 C 6,4 km/h (2 Bft) 100,00 %
18.09.2019 13:36 21,4 C 16,1 C 45 % 51 % 1023,5 hPa 0,0 l/m 3,2 km/h (1 Bft) N-NW 337 0,000 mm 6,0 C 16,1 C 9,7 km/h (2 Bft) 100,00 %
18.09.2019 13:35 21,4 C 15,8 C 45 % 47 % 1023,5 hPa 0,0 l/m 6,4 km/h (2 Bft) N-NW 337 0,000 mm 4,5 C 15,8 C 9,7 km/h (2 Bft) 95,65 %
18.09.2019 13:34 21,4 C 15,8 C 45 % 46 % 1023,5 hPa 0,0 l/m 6,4 km/h (2 Bft) N-NW 337 0,000 mm 4,2 C 15,8 C 9,7 km/h (2 Bft) 100,00 %
18.09.2019 13:33 21,4 C 15,8 C 45 % 45 % 1023,4 hPa 0,0 l/m 4,8 km/h (1 Bft) N-NW 337 0,000 mm 3,9 C 15,8 C 8,0 km/h (2 Bft) 100,00 %
18.09.2019 13:32 21,4 C 15,9 C 45 % 45 % 1023,4 hPa 0,0 l/m 8,0 km/h (2 Bft) N-NW 337 0,000 mm 4,0 C 15,0 C 12,9 km/h (3 Bft) 95,65 %
18.09.2019 13:31 21,4 C 16,0 C 45 % 46 % 1023,5 hPa 0,0 l/m 4,8 km/h (1 Bft) N-NO 22 0,000 mm 4,4 C 16,0 C 11,3 km/h (2 Bft) 100,00 %
18.09.2019 13:30 21,4 C 16,0 C 45 % 46 % 1023,5 hPa 0,0 l/m 6,4 km/h (2 Bft) N-NW 337 0,000 mm 4,4 C 16,0 C 14,5 km/h (3 Bft) 100,00 %
18.09.2019 13:29 21,4 C 15,9 C 45 % 47 % 1023,5 hPa 0,0 l/m 4,8 km/h (1 Bft) N-NO 22 0,000 mm 4,6 C 15,9 C 11,3 km/h (2 Bft) 100,00 %
18.09.2019 13:28 21,4 C 15,8 C 45 % 49 % 1023,5 hPa 0,0 l/m 3,2 km/h (1 Bft) N-NW 337 0,000 mm 5,1 C 15,8 C 8,0 km/h (2 Bft) 100,00 %
18.09.2019 13:27 21,4 C 15,7 C 45 % 47 % 1023,5 hPa 0,0 l/m 1,6 km/h (1 Bft) N-NW 337 0,000 mm 4,4 C 15,7 C 3,2 km/h (1 Bft) 95,65 %
18.09.2019 13:26 21,4 C 15,8 C 45 % 49 % 1023,7 hPa 0,0 l/m 8,0 km/h (2 Bft) W-NW 292 0,000 mm 5,1 C 14,9 C 12,9 km/h (3 Bft) 100,00 %
18.09.2019 13:25 21,4 C 15,8 C 45 % 50 % 1023,6 hPa 0,0 l/m 4,8 km/h (1 Bft) S-SW 202 0,000 mm 5,4 C 15,8 C 9,7 km/h (2 Bft) 100,00 %
18.09.2019 13:24 21,4 C 15,7 C 45 % 48 % 1023,6 hPa 0,0 l/m 1,6 km/h (1 Bft) SW 225 0,000 mm 4,7 C 15,7 C 4,8 km/h (1 Bft) 100,00 %
18.09.2019 13:23 21,4 C 15,8 C 45 % 49 % 1023,6 hPa 0,0 l/m 3,2 km/h (1 Bft) SW 225 0,000 mm 5,1 C 15,8 C 4,8 km/h (1 Bft) 100,00 %
18.09.2019 13:22 21,4 C 15,8 C 45 % 47 % 1023,6 hPa 0,0 l/m 3,2 km/h (1 Bft) N-NW 337 0,000 mm 4,5 C 15,8 C 6,4 km/h (2 Bft) 100,00 %
18.09.2019 13:21 21,4 C 16,1 C 45 % 47 % 1023,7 hPa 0,0 l/m 4,8 km/h (1 Bft) N 360 0,000 mm 4,8 C 16,1 C 8,0 km/h (2 Bft) 100,00 %
18.09.2019 13:20 21,4 C 16,2 C 45 % 50 % 1023,6 hPa 0,0 l/m 3,2 km/h (1 Bft) N-NW 337 0,000 mm 5,8 C 16,2 C 6,4 km/h (2 Bft) 100,00 %
18.09.2019 13:19 21,4 C 15,9 C 45 % 50 % 1023,7 hPa 0,0 l/m 3,2 km/h (1 Bft) NW 315 0,000 mm 5,5 C 15,9 C 4,8 km/h (1 Bft) 100,00 %
18.09.2019 13:18 21,4 C 15,9 C 45 % 48 % 1023,7 hPa 0,0 l/m 4,8 km/h (1 Bft) N-NW 337 0,000 mm 4,9 C 15,9 C 9,7 km/h (2 Bft) 100,00 %
18.09.2019 13:17 21,4 C 15,8 C 45 % 48 % 1023,7 hPa 0,0 l/m 4,8 km/h (1 Bft) N-NW 337 0,000 mm 4,8 C 15,8 C 6,4 km/h (2 Bft) 100,00 %
18.09.2019 13:16 21,4 C 15,8 C 45 % 50 % 1023,7 hPa 0,0 l/m 6,4 km/h (2 Bft) N-NW 337 0,000 mm 5,4 C 15,8 C 9,7 km/h (2 Bft) 95,65 %
18.09.2019 13:15 21,4 C 15,6 C 45 % 48 % 1023,7 hPa 0,0 l/m 6,4 km/h (2 Bft) W-NW 292 0,000 mm 4,6 C 15,6 C 11,3 km/h (2 Bft) 95,65 %
18.09.2019 13:14 21,4 C 15,4 C 45 % 48 % 1023,7 hPa 0,0 l/m 4,8 km/h (1 Bft) O 90 0,000 mm 4,4 C 15,4 C 8,0 km/h (2 Bft) 100,00 %
18.09.2019 13:13 21,4 C 15,3 C 45 % 49 % 1023,8 hPa 0,0 l/m 4,8 km/h (1 Bft) W-NW 292 0,000 mm 4,7 C 15,3 C 6,4 km/h (2 Bft) 100,00 %
18.09.2019 13:12 21,4 C 15,3 C 45 % 49 % 1023,7 hPa 0,0 l/m 3,2 km/h (1 Bft) N-NW 337 0,000 mm 4,7 C 15,3 C 4,8 km/h (1 Bft) 100,00 %
18.09.2019 13:11 21,4 C 15,3 C 45 % 48 % 1023,8 hPa 0,0 l/m 3,2 km/h (1 Bft) S 180 0,000 mm 4,4 C 15,3 C 4,8 km/h (1 Bft) 100,00 %
18.09.2019 13:10 21,4 C 15,4 C 45 % 47 % 1023,8 hPa 0,0 l/m 3,2 km/h (1 Bft) W-SW 247 0,000 mm 4,1 C 15,4 C 6,4 km/h (2 Bft) 100,00 %
18.09.2019 13:09 21,4 C 15,5 C 45 % 49 % 1023,9 hPa 0,0 l/m 1,6 km/h (1 Bft) NW 315 0,000 mm 4,8 C 15,5 C 4,8 km/h (1 Bft) 100,00 %
18.09.2019 13:08 21,4 C 15,6 C 45 % 46 % 1023,9 hPa 0,0 l/m 4,8 km/h (1 Bft) NW 315 0,000 mm 4,0 C 15,6 C 8,0 km/h (2 Bft) 100,00 %
18.09.2019 13:07 21,4 C 15,7 C 45 % 49 % 1023,9 hPa 0,0 l/m 6,4 km/h (2 Bft) N 360 0,000 mm 5,0 C 15,7 C 11,3 km/h (2 Bft) 100,00 %
18.09.2019 13:06 21,4 C 15,7 C 45 % 50 % 1024,0 hPa 0,0 l/m 4,8 km/h (1 Bft) N 360 0,000 mm 5,3 C 15,7 C 8,0 km/h (2 Bft) 95,65 %
18.09.2019 13:05 21,4 C 15,7 C 45 % 47 % 1023,8 hPa 0,0 l/m 3,2 km/h (1 Bft) N 360 0,000 mm 4,4 C 15,7 C 4,8 km/h (1 Bft) 100,00 %
18.09.2019 13:04 21,4 C 15,7 C 45 % 49 % 1023,8 hPa 0,0 l/m 3,2 km/h (1 Bft) N-NW 337 0,000 mm 5,0 C 15,7 C 6,4 km/h (2 Bft) 100,00 %
18.09.2019 13:03 21,4 C 15,5 C 45 % 50 % 1023,8 hPa 0,0 l/m 3,2 km/h (1 Bft) N-NW 337 0,000 mm 5,1 C 15,5 C 4,8 km/h (1 Bft) 100,00 %
18.09.2019 13:02 21,4 C 15,5 C 45 % 50 % 1023,9 hPa 0,0 l/m 6,4 km/h (2 Bft) N-NW 337 0,000 mm 5,1 C 15,5 C 8,0 km/h (2 Bft) 100,00 %
18.09.2019 13:01 21,4 C 15,6 C 45 % 47 % 1023,9 hPa 0,0 l/m 8,0 km/h (2 Bft) NW 315 0,000 mm 4,3 C 14,7 C 12,9 km/h (3 Bft) 95,65 %
18.09.2019 13:00 21,4 C 15,7 C 45 % 48 % 1023,9 hPa 0,0 l/m 4,8 km/h (1 Bft) W-SW 247 0,000 mm 4,7 C 15,7 C 11,3 km/h (2 Bft) 100,00 %
18.09.2019 12:59 21,4 C 15,7 C 45 % 46 % 1023,9 hPa 0,0 l/m 1,6 km/h (1 Bft) W-SW 247 0,000 mm 4,1 C 15,7 C 4,8 km/h (1 Bft) 100,00 %
18.09.2019 12:58 21,4 C 15,8 C 45 % 49 % 1024,0 hPa 0,0 l/m 4,8 km/h (1 Bft) W 270 0,000 mm 5,1 C 15,8 C 6,4 km/h (2 Bft) 100,00 %
18.09.2019 12:57 21,5 C 15,9 C 45 % 48 % 1023,9 hPa 0,0 l/m 4,8 km/h (1 Bft) W-NW 292 0,000 mm 4,9 C 15,9 C 6,4 km/h (2 Bft) 100,00 %
18.09.2019 12:56 21,4 C 16,0 C 45 % 50 % 1024,0 hPa 0,0 l/m 3,2 km/h (1 Bft) SW 225 0,000 mm 5,6 C 16,0 C 4,8 km/h (1 Bft) 100,00 %
18.09.2019 12:55 21,4 C 16,1 C 45 % 49 % 1023,9 hPa 0,0 l/m 3,2 km/h (1 Bft) SW 225 0,000 mm 5,4 C 16,1 C 8,0 km/h (2 Bft) 100,00 %
18.09.2019 12:54 21,4 C 16,1 C 45 % 52 % 1023,9 hPa 0,0 l/m 4,8 km/h (1 Bft) SW 225 0,000 mm 6,2 C 16,1 C 8,0 km/h (2 Bft) 100,00 %
18.09.2019 12:53 21,4 C 16,0 C 45 % 52 % 1024,0 hPa 0,0 l/m 6,4 km/h (2 Bft) SW 225 0,000 mm 6,2 C 16,0 C 9,7 km/h (2 Bft) 100,00 %
18.09.2019 12:52 21,4 C 15,8 C 45 % 49 % 1023,9 hPa 0,0 l/m 3,2 km/h (1 Bft) W-SW 247 0,000 mm 5,1 C 15,8 C 6,4 km/h (2 Bft) 100,00 %
18.09.2019 12:51 21,4 C 15,8 C 45 % 50 % 1023,9 hPa 0,0 l/m 4,8 km/h (1 Bft) W-NW 292 0,000 mm 5,4 C 15,8 C 6,4 km/h (2 Bft) 95,65 %
18.09.2019 12:50 21,4 C 15,6 C 45 % 54 % 1024,0 hPa 0,0 l/m 4,8 km/h (1 Bft) SW 225 0,000 mm 6,3 C 15,6 C 8,0 km/h (2 Bft) 100,00 %
18.09.2019 12:49 21,4 C 15,3 C 45 % 53 % 1024,0 hPa 0,0 l/m 3,2 km/h (1 Bft) W-SW 247 0,000 mm 5,8 C 15,3 C 8,0 km/h (2 Bft) 100,00 %
18.09.2019 12:48 21,4 C 15,1 C 45 % 53 % 1024,0 hPa 0,0 l/m 1,6 km/h (1 Bft) SW 225 0,000 mm 5,6 C 15,1 C 3,2 km/h (1 Bft) 100,00 %
18.09.2019 12:47 21,4 C 15,0 C 45 % 52 % 1023,9 hPa 0,0 l/m 3,2 km/h (1 Bft) W-NW 292 0,000 mm 5,2 C 15,0 C 6,4 km/h (2 Bft) 95,65 %
18.09.2019 12:46 21,4 C 14,9 C 45 % 52 % 1024,0 hPa 0,0 l/m 1,6 km/h (1 Bft) W-SW 247 0,000 mm 5,1 C 14,9 C 4,8 km/h (1 Bft) 100,00 %
18.09.2019 12:45 21,4 C 14,8 C 45 % 50 % 1024,0 hPa 0,0 l/m 1,6 km/h (1 Bft) W-SW 247 0,000 mm 4,5 C 14,8 C 3,2 km/h (1 Bft) 100,00 %
18.09.2019 12:44 21,4 C 14,9 C 45 % 51 % 1024,0 hPa 0,0 l/m 4,8 km/h (1 Bft) S-SW 202 0,000 mm 4,9 C 14,9 C 8,0 km/h (2 Bft) 95,65 %
18.09.2019 12:43 21,4 C 15,0 C 45 % 50 % 1024,0 hPa 0,0 l/m 3,2 km/h (1 Bft) S-SW 202 0,000 mm 4,7 C 15,0 C 6,4 km/h (2 Bft) 100,00 %
18.09.2019 12:42 21,4 C 14,9 C 45 % 49 % 1024,0 hPa 0,0 l/m 3,2 km/h (1 Bft) W-SW 247 0,000 mm 4,3 C 14,9 C 3,2 km/h (1 Bft) 100,00 %
18.09.2019 12:41 21,4 C 15,0 C 45 % 50 % 1024,0 hPa 0,0 l/m 4,8 km/h (1 Bft) W-NW 292 0,000 mm 4,7 C 15,0 C 11,3 km/h (2 Bft) 100,00 %
18.09.2019 12:40 21,4 C 15,2 C 45 % 51 % 1024,0 hPa 0,0 l/m 3,2 km/h (1 Bft) W 270 0,000 mm 5,1 C 15,2 C 4,8 km/h (1 Bft) 100,00 %
18.09.2019 12:39 21,4 C 15,2 C 45 % 52 % 1024,0 hPa 0,0 l/m 3,2 km/h (1 Bft) W-SW 247 0,000 mm 5,4 C 15,2 C 6,4 km/h (2 Bft) 95,65 %
18.09.2019 12:38 21,4 C 15,3 C 45 % 50 % 1024,1 hPa 0,0 l/m 3,2 km/h (1 Bft) NW 315 0,000 mm 4,9 C 15,3 C 4,8 km/h (1 Bft) 100,00 %
18.09.2019 12:37 21,4 C 15,3 C 45 % 51 % 1024,1 hPa 0,0 l/m 4,8 km/h (1 Bft) NW 315 0,000 mm 5,2 C 15,3 C 9,7 km/h (2 Bft) 95,65 %
18.09.2019 12:36 21,4 C 15,4 C 45 % 51 % 1024,1 hPa 0,0 l/m 6,4 km/h (2 Bft) W-NW 292 0,000 mm 5,3 C 15,4 C 8,0 km/h (2 Bft) 100,00 %
18.09.2019 12:35 21,4 C 15,3 C 45 % 53 % 1024,1 hPa 0,0 l/m 4,8 km/h (1 Bft) W-NW 292 0,000 mm 5,8 C 15,3 C 11,3 km/h (2 Bft) 100,00 %
18.09.2019 12:34 21,4 C 15,2 C 45 % 52 % 1024,1 hPa 0,0 l/m 6,4 km/h (2 Bft) W-NW 292 0,000 mm 5,4 C 15,2 C 14,5 km/h (3 Bft) 100,00 %
18.09.2019 12:33 21,4 C 15,1 C 45 % 55 % 1024,1 hPa 0,0 l/m 3,2 km/h (1 Bft) SW 225 0,000 mm 6,1 C 15,1 C 4,8 km/h (1 Bft) 100,00 %
18.09.2019 12:32 21,4 C 14,9 C 45 % 53 % 1024,0 hPa 0,0 l/m 1,6 km/h (1 Bft) S-SW 202 0,000 mm 5,4 C 14,9 C 3,2 km/h (1 Bft) 95,65 %
18.09.2019 12:31 21,4 C 14,9 C 45 % 53 % 1024,1 hPa 0,0 l/m 6,4 km/h (2 Bft) S-SW 202 0,000 mm 5,4 C 14,9 C 9,7 km/h (2 Bft) 100,00 %
18.09.2019 12:30 21,4 C 14,9 C 45 % 54 % 1024,1 hPa 0,0 l/m 4,8 km/h (1 Bft) S-SW 202 0,000 mm 5,7 C 14,9 C 8,0 km/h (2 Bft) 100,00 %
18.09.2019 12:29 21,4 C 14,7 C 45 % 51 % 1024,1 hPa 0,0 l/m 1,6 km/h (1 Bft) SW 225 0,000 mm 4,7 C 14,7 C 3,2 km/h (1 Bft) 100,00 %
18.09.2019 12:28 21,4 C 14,7 C 45 % 53 % 1024,1 hPa 0,0 l/m 3,2 km/h (1 Bft) SW 225 0,000 mm 5,2 C 14,7 C 6,4 km/h (2 Bft) 100,00 %
18.09.2019 12:27 21,4 C 14,7 C 45 % 50 % 1024,0 hPa 0,0 l/m 1,6 km/h (1 Bft) SW 225 0,000 mm 4,4 C 14,7 C 3,2 km/h (1 Bft) 95,65 %
18.09.2019 12:26 21,4 C 14,7 C 45 % 52 % 1024,1 hPa 0,0 l/m 3,2 km/h (1 Bft) W 270 0,000 mm 5,0 C 14,7 C 6,4 km/h (2 Bft) 100,00 %
18.09.2019 12:25 21,4 C 14,7 C 45 % 51 % 1024,1 hPa 0,0 l/m 3,2 km/h (1 Bft) SW 225 0,000 mm 4,7 C 14,7 C 6,4 km/h (2 Bft) 91,30 %
18.09.2019 12:24 21,4 C 14,7 C 45 % 51 % 1024,2 hPa 0,0 l/m 4,8 km/h (1 Bft) SW 225 0,000 mm 4,7 C 14,7 C 6,4 km/h (2 Bft) 100,00 %
18.09.2019 12:23 21,4 C 14,8 C 45 % 51 % 1024,1 hPa 0,0 l/m 1,6 km/h (1 Bft) SW 225 0,000 mm 4,8 C 14,8 C 4,8 km/h (1 Bft) 100,00 %
18.09.2019 12:22 21,4 C 14,9 C 45 % 50 % 1024,1 hPa 0,0 l/m 1,6 km/h (1 Bft) SW 225 0,000 mm 4,6 C 14,9 C 4,8 km/h (1 Bft) 100,00 %
18.09.2019 12:21 21,4 C 15,0 C 45 % 53 % 1024,2 hPa 0,0 l/m 1,6 km/h (1 Bft) SW 225 0,000 mm 5,5 C 15,0 C 3,2 km/h (1 Bft) 100,00 %
18.09.2019 12:20 21,4 C 15,0 C 45 % 50 % 1024,1 hPa 0,0 l/m 1,6 km/h (1 Bft) S-SW 202 0,000 mm 4,7 C 15,0 C 4,8 km/h (1 Bft) 95,65 %
18.09.2019 12:19 21,4 C 15,1 C 45 % 51 % 1024,1 hPa 0,0 l/m 3,2 km/h (1 Bft) W 270 0,000 mm 5,0 C 15,1 C 6,4 km/h (2 Bft) 100,00 %
18.09.2019 12:18 21,4 C 15,2 C 45 % 53 % 1024,1 hPa 0,0 l/m 3,2 km/h (1 Bft) W 270 0,000 mm 5,7 C 15,2 C 6,4 km/h (2 Bft) 95,65 %
18.09.2019 12:17 21,4 C 15,2 C 45 % 53 % 1024,2 hPa 0,0 l/m 3,2 km/h (1 Bft) W 270 0,000 mm 5,7 C 15,2 C 6,4 km/h (2 Bft) 100,00 %
18.09.2019 12:16 21,4 C 15,1 C 45 % 55 % 1024,2 hPa 0,0 l/m 1,6 km/h (1 Bft) NW 315 0,000 mm 6,1 C 15,1 C 3,2 km/h (1 Bft) 100,00 %
18.09.2019 12:15 21,4 C 14,9 C 45 % 54 % 1024,2 hPa 0,0 l/m 3,2 km/h (1 Bft) N-NO 22 0,000 mm 5,7 C 14,9 C 6,4 km/h (2 Bft) 100,00 %
18.09.2019 12:14 21,4 C 14,8 C 45 % 54 % 1024,3 hPa 0,0 l/m 4,8 km/h (1 Bft) N-NW 337 0,000 mm 5,6 C 14,8 C 6,4 km/h (2 Bft) 100,00 %
18.09.2019 12:13 21,4 C 14,9 C 44 % 51 % 1024,2 hPa 0,0 l/m 4,8 km/h (1 Bft) N-NW 337 0,000 mm 4,9 C 14,9 C 8,0 km/h (2 Bft) 100,00 %
18.09.2019 12:12 21,4 C 15,1 C 45 % 54 % 1024,2 hPa 0,0 l/m 4,8 km/h (1 Bft) N-NO 22 0,000 mm 5,9 C 15,1 C 8,0 km/h (2 Bft) 100,00 %
18.09.2019 12:11 21,4 C 15,0 C 44 % 52 % 1024,2 hPa 0,0 l/m 6,4 km/h (2 Bft) NW 315 0,000 mm 5,2 C 15,0 C 8,0 km/h (2 Bft) 100,00 %
18.09.2019 12:10 21,4 C 14,9 C 44 % 54 % 1024,2 hPa 0,0 l/m 3,2 km/h (1 Bft) N-NW 337 0,000 mm 5,7 C 14,9 C 4,8 km/h (1 Bft) 95,65 %
18.09.2019 12:09 21,4 C 14,9 C 44 % 53 % 1024,2 hPa 0,0 l/m 3,2 km/h (1 Bft) N 360 0,000 mm 5,4 C 14,9 C 4,8 km/h (1 Bft) 100,00 %
18.09.2019 12:08 21,4 C 14,8 C 44 % 52 % 1024,2 hPa 0,0 l/m 4,8 km/h (1 Bft) NO 45 0,000 mm 5,0 C 14,8 C 9,7 km/h (2 Bft) 91,30 %
18.09.2019 12:07 21,4 C 14,7 C 45 % 54 % 1024,2 hPa 0,0 l/m 4,8 km/h (1 Bft) N-NW 337 0,000 mm 5,5 C 14,7 C 8,0 km/h (2 Bft) 100,00 %
18.09.2019 12:06 21,4 C 14,4 C 45 % 53 % 1024,2 hPa 0,0 l/m 8,0 km/h (2 Bft) NO 45 0,000 mm 4,9 C 13,5 C 14,5 km/h (3 Bft) 100,00 %
18.09.2019 12:05 21,4 C 14,3 C 45 % 50 % 1024,2 hPa 0,0 l/m 3,2 km/h (1 Bft) N-NO 22 0,000 mm 4,0 C 14,3 C 4,8 km/h (1 Bft) 100,00 %
18.09.2019 12:04 21,4 C 14,3 C 45 % 55 % 1024,2 hPa 0,0 l/m 3,2 km/h (1 Bft) NO 45 0,000 mm 5,4 C 14,3 C 4,8 km/h (1 Bft) 100,00 %
18.09.2019 12:03 21,4 C 14,1 C 45 % 51 % 1024,3 hPa 0,0 l/m 3,2 km/h (1 Bft) NO 45 0,000 mm 4,1 C 14,1 C 4,8 km/h (1 Bft) 100,00 %
18.09.2019 12:02 21,4 C 14,2 C 45 % 51 % 1024,2 hPa 0,0 l/m 3,2 km/h (1 Bft) N-NW 337 0,000 mm 4,2 C 14,2 C 4,8 km/h (1 Bft) 100,00 %
18.09.2019 12:01 21,4 C 14,2 C 45 % 53 % 1024,3 hPa 0,0 l/m 3,2 km/h (1 Bft) N-NW 337 0,000 mm 4,8 C 14,2 C 4,8 km/h (1 Bft) 100,00 %
18.09.2019 12:00 21,4 C 14,2 C 45 % 51 % 1024,3 hPa 0,0 l/m 3,2 km/h (1 Bft) W-NW 292 0,000 mm 4,2 C 14,2 C 4,8 km/h (1 Bft) 100,00 %
18.09.2019 11:59 21,4 C 14,3 C 45 % 51 % 1024,2 hPa 0,0 l/m 4,8 km/h (1 Bft) NW 315 0,000 mm 4,3 C 14,3 C 6,4 km/h (2 Bft) 100,00 %
18.09.2019 11:58 21,4 C 14,5 C 45 % 53 % 1024,3 hPa 0,0 l/m 6,4 km/h (2 Bft) W-NW 292 0,000 mm 5,0 C 14,5 C 9,7 km/h (2 Bft) 100,00 %
18.09.2019 11:57 21,4 C 14,4 C 45 % 52 % 1024,3 hPa 0,0 l/m 3,2 km/h (1 Bft) W 270 0,000 mm 4,7 C 14,4 C 6,4 km/h (2 Bft) 100,00 %
18.09.2019 11:56 21,4 C 14,4 C 45 % 53 % 1024,3 hPa 0,0 l/m 4,8 km/h (1 Bft) NW 315 0,000 mm 4,9 C 14,4 C 11,3 km/h (2 Bft) 100,00 %
18.09.2019 11:55 21,4 C 14,5 C 45 % 55 % 1024,3 hPa 0,0 l/m 4,8 km/h (1 Bft) W-SW 247 0,000 mm 5,6 C 14,5 C 4,8 km/h (1 Bft) 100,00 %
18.09.2019 11:54 21,4 C 14,4 C 45 % 54 % 1024,3 hPa 0,0 l/m 4,8 km/h (1 Bft) S-SW 202 0,000 mm 5,2 C 14,4 C 8,0 km/h (2 Bft) 95,65 %
18.09.2019 11:53 21,4 C 14,3 C 45 % 53 % 1024,3 hPa 0,0 l/m 1,6 km/h (1 Bft) N-NW 337 0,000 mm 4,9 C 14,3 C 4,8 km/h (1 Bft) 100,00 %
18.09.2019 11:52 21,4 C 14,4 C 45 % 52 % 1024,3 hPa 0,0 l/m 3,2 km/h (1 Bft) NW 315 0,000 mm 4,7 C 14,4 C 6,4 km/h (2 Bft) 100,00 %
18.09.2019 11:51 21,4 C 14,4 C 45 % 54 % 1024,3 hPa 0,0 l/m 6,4 km/h (2 Bft) NW 315 0,000 mm 5,2 C 14,4 C 12,9 km/h (3 Bft) 95,65 %
18.09.2019 11:50 21,4 C 14,4 C 45 % 54 % 1024,3 hPa 0,0 l/m 3,2 km/h (1 Bft) SW 225 0,000 mm 5,2 C 14,4 C 4,8 km/h (1 Bft) 100,00 %
18.09.2019 11:49 21,4 C 14,3 C 45 % 55 % 1024,4 hPa 0,0 l/m 3,2 km/h (1 Bft) W 270 0,000 mm 5,4 C 14,3 C 4,8 km/h (1 Bft) 100,00 %
18.09.2019 11:48 21,4 C 14,2 C 45 % 55 % 1024,3 hPa 0,0 l/m 3,2 km/h (1 Bft) NW 315 0,000 mm 5,3 C 14,2 C 4,8 km/h (1 Bft) 100,00 %
18.09.2019 11:47 21,4 C 14,1 C 45 % 55 % 1024,4 hPa 0,0 l/m 3,2 km/h (1 Bft) SW 225 0,000 mm 5,2 C 14,1 C 4,8 km/h (1 Bft) 100,00 %
18.09.2019 11:46 21,4 C 13,9 C 45 % 53 % 1024,3 hPa 0,0 l/m 3,2 km/h (1 Bft) S-SW 202 0,000 mm 4,5 C 13,9 C 4,8 km/h (1 Bft) 95,65 %
18.09.2019 11:45 21,4 C 13,8 C 45 % 53 % 1024,4 hPa 0,0 l/m 1,6 km/h (1 Bft) NW 315 0,000 mm 4,4 C 13,8 C 3,2 km/h (1 Bft) 100,00 %
18.09.2019 11:44 21,4 C 13,9 C 45 % 53 % 1024,3 hPa 0,0 l/m 4,8 km/h (1 Bft) W-NW 292 0,000 mm 4,5 C 13,9 C 6,4 km/h (2 Bft) 100,00 %
18.09.2019 11:43 21,4 C 13,9 C 45 % 52 % 1024,3 hPa 0,0 l/m 6,4 km/h (2 Bft) W-NW 292 0,000 mm 4,2 C 13,9 C 11,3 km/h (2 Bft) 100,00 %
18.09.2019 11:42 21,4 C 14,0 C 45 % 54 % 1024,4 hPa 0,0 l/m 4,8 km/h (1 Bft) W-NW 292 0,000 mm 4,8 C 14,0 C 8,0 km/h (2 Bft) 100,00 %
18.09.2019 11:41 21,4 C 14,0 C 45 % 53 % 1024,3 hPa 0,0 l/m 3,2 km/h (1 Bft) NW 315 0,000 mm 4,6 C 14,0 C 8,0 km/h (2 Bft) 100,00 %
18.09.2019 11:40 21,4 C 13,8 C 45 % 55 % 1024,3 hPa 0,0 l/m 4,8 km/h (1 Bft) NO 45 0,000 mm 4,9 C 13,8 C 8,0 km/h (2 Bft) 100,00 %
18.09.2019 11:39 21,4 C 13,7 C 45 % 53 % 1024,4 hPa 0,0 l/m 3,2 km/h (1 Bft) N-NO 22 0,000 mm 4,3 C 13,7 C 4,8 km/h (1 Bft) 100,00 %
18.09.2019 11:38 21,4 C 13,7 C 45 % 52 % 1024,4 hPa 0,0 l/m 3,2 km/h (1 Bft) NW 315 0,000 mm 4,0 C 13,7 C 8,0 km/h (2 Bft) 100,00 %
18.09.2019 11:37 21,4 C 13,8 C 45 % 53 % 1024,4 hPa 0,0 l/m 3,2 km/h (1 Bft) NW 315 0,000 mm 4,4 C 13,8 C 8,0 km/h (2 Bft) 100,00 %
18.09.2019 11:36 21,4 C 13,8 C 45 % 53 % 1024,4 hPa 0,0 l/m 3,2 km/h (1 Bft) NW 315 0,000 mm 4,4 C 13,8 C 6,4 km/h (2 Bft) 100,00 %
18.09.2019 11:35 21,5 C 13,9 C 45 % 55 % 1024,3 hPa 0,0 l/m 4,8 km/h (1 Bft) NW 315 0,000 mm 5,0 C 13,9 C 8,0 km/h (2 Bft) 100,00 %
18.09.2019 11:34 21,4 C 13,8 C 45 % 55 % 1024,4 hPa 0,0 l/m 1,6 km/h (1 Bft) W 270 0,000 mm 4,9 C 13,8 C 3,2 km/h (1 Bft) 95,65 %
18.09.2019 11:33 21,5 C 13,8 C 45 % 55 % 1024,4 hPa 0,0 l/m 1,6 km/h (1 Bft) NW 315 0,000 mm 4,9 C 13,8 C 6,4 km/h (2 Bft) 100,00 %
18.09.2019 11:32 21,5 C 13,9 C 45 % 57 % 1024,4 hPa 0,0 l/m 4,8 km/h (1 Bft) W 270 0,000 mm 5,5 C 13,9 C 9,7 km/h (2 Bft) 91,30 %
18.09.2019 11:31 21,5 C 13,8 C 45 % 56 % 1024,4 hPa 0,0 l/m 4,8 km/h (1 Bft) N-NW 337 0,000 mm 5,2 C 13,8 C 8,0 km/h (2 Bft) 100,00 %
18.09.2019 11:30 21,4 C 13,6 C 45 % 56 % 1024,4 hPa 0,0 l/m 3,2 km/h (1 Bft) S-SW 202 0,000 mm 5,0 C 13,6 C 6,4 km/h (2 Bft) 100,00 %
18.09.2019 11:29 21,5 C 13,6 C 45 % 55 % 1024,4 hPa 0,0 l/m 1,6 km/h (1 Bft) W-SW 247 0,000 mm 4,7 C 13,6 C 3,2 km/h (1 Bft) 95,65 %
18.09.2019 11:28 21,5 C 13,6 C 45 % 53 % 1024,4 hPa 0,0 l/m 1,6 km/h (1 Bft) W-NW 292 0,000 mm 4,2 C 13,6 C 4,8 km/h (1 Bft) 100,00 %
18.09.2019 11:27 21,5 C 13,7 C 45 % 53 % 1024,4 hPa 0,0 l/m 1,6 km/h (1 Bft) NW 315 0,000 mm 4,3 C 13,7 C 3,2 km/h (1 Bft) 95,65 %
18.09.2019 11:26 21,5 C 13,7 C 45 % 54 % 1024,4 hPa 0,0 l/m 3,2 km/h (1 Bft) N-NW 337 0,000 mm 4,6 C 13,7 C 6,4 km/h (2 Bft) 100,00 %
18.09.2019 11:25 21,5 C 13,7 C 45 % 54 % 1024,4 hPa 0,0 l/m 3,2 km/h (1 Bft) W 270 0,000 mm 4,6 C 13,7 C 6,4 km/h (2 Bft) 100,00 %
18.09.2019 11:24 21,5 C 13,7 C 45 % 54 % 1024,4 hPa 0,0 l/m 3,2 km/h (1 Bft) W-SW 247 0,000 mm 4,6 C 13,7 C 4,8 km/h (1 Bft) 100,00 %
18.09.2019 11:23 21,5 C 13,7 C 45 % 53 % 1024,4 hPa 0,0 l/m 4,8 km/h (1 Bft) W 270 0,000 mm 4,3 C 13,7 C 6,4 km/h (2 Bft) 100,00 %
18.09.2019 11:22 21,5 C 13,7 C 45 % 55 % 1024,4 hPa 0,0 l/m 4,8 km/h (1 Bft) W-NW 292 0,000 mm 4,8 C 13,7 C 9,7 km/h (2 Bft) 95,65 %
18.09.2019 11:21 21,5 C 13,7 C 45 % 55 % 1024,4 hPa 0,0 l/m 4,8 km/h (1 Bft) N-NW 337 0,000 mm 4,8 C 13,7 C 6,4 km/h (2 Bft) 100,00 %
18.09.2019 11:20 21,5 C 13,7 C 45 % 54 % 1024,4 hPa 0,0 l/m 3,2 km/h (1 Bft) W-NW 292 0,000 mm 4,6 C 13,7 C 4,8 km/h (1 Bft) 100,00 %
18.09.2019 11:19 21,5 C 13,7 C 45 % 58 % 1024,4 hPa 0,0 l/m 1,6 km/h (1 Bft) W-NW 292 0,000 mm 5,6 C 13,7 C 3,2 km/h (1 Bft) 100,00 %
18.09.2019 11:18 21,5 C 13,5 C 45 % 54 % 1024,4 hPa 0,0 l/m 1,6 km/h (1 Bft) NW 315 0,000 mm 4,4 C 13,5 C 3,2 km/h (1 Bft) 100,00 %
18.09.2019 11:17 21,5 C 13,4 C 45 % 55 % 1024,4 hPa 0,0 l/m 3,2 km/h (1 Bft) W-NW 292 0,000 mm 4,5 C 13,4 C 4,8 km/h (1 Bft) 91,30 %
18.09.2019 11:16 21,5 C 13,4 C 45 % 55 % 1024,4 hPa 0,0 l/m 4,8 km/h (1 Bft) W-SW 247 0,000 mm 4,5 C 13,4 C 6,4 km/h (2 Bft) 100,00 %
18.09.2019 11:15 21,5 C 13,4 C 45 % 54 % 1024,4 hPa 0,0 l/m 6,4 km/h (2 Bft) N-NW 337 0,000 mm 4,3 C 13,4 C 9,7 km/h (2 Bft) 100,00 %
18.09.2019 11:14 21,5 C 13,4 C 45 % 54 % 1024,5 hPa 0,0 l/m 4,8 km/h (1 Bft) NW 315 0,000 mm 4,3 C 13,4 C 8,0 km/h (2 Bft) 100,00 %
18.09.2019 11:13 21,5 C 13,4 C 45 % 53 % 1024,4 hPa 0,0 l/m 6,4 km/h (2 Bft) NW 315 0,000 mm 4,0 C 13,4 C 9,7 km/h (2 Bft) 100,00 %
18.09.2019 11:12 21,5 C 13,5 C 45 % 54 % 1024,4 hPa 0,0 l/m 4,8 km/h (1 Bft) W 270 0,000 mm 4,4 C 13,5 C 6,4 km/h (2 Bft) 100,00 %
18.09.2019 11:11 21,5 C 13,6 C 45 % 54 % 1024,3 hPa 0,0 l/m 4,8 km/h (1 Bft) S-SW 202 0,000 mm 4,5 C 13,6 C 8,0 km/h (2 Bft) 100,00 %
18.09.2019 11:10 21,5 C 13,7 C 45 % 54 % 1024,3 hPa 0,0 l/m 6,4 km/h (2 Bft) SW 225 0,000 mm 4,6 C 13,7 C 11,3 km/h (2 Bft) 95,65 %
18.09.2019 11:09 21,5 C 13,7 C 45 % 55 % 1024,3 hPa 0,0 l/m 4,8 km/h (1 Bft) NW 315 0,000 mm 4,8 C 13,7 C 6,4 km/h (2 Bft) 100,00 %
18.09.2019 11:08 21,5 C 13,7 C 45 % 54 % 1024,3 hPa 0,0 l/m 0,0 km/h (0 Bft) NW 315 0,000 mm 4,6 C 13,7 C 4,8 km/h (1 Bft) 100,00 %
18.09.2019 11:07 21,4 C 13,6 C 45 % 56 % 1024,4 hPa 0,0 l/m 1,6 km/h (1 Bft) NO 45 0,000 mm 5,0 C 13,6 C 1,6 km/h (1 Bft) 100,00 %
18.09.2019 11:06 21,5 C 13,4 C 45 % 53 % 1024,4 hPa 0,0 l/m 1,6 km/h (1 Bft) NO 45 0,000 mm 4,0 C 13,4 C 3,2 km/h (1 Bft) 100,00 %
18.09.2019 11:05 21,5 C 13,4 C 45 % 54 % 1024,4 hPa 0,0 l/m 3,2 km/h (1 Bft) NO 45 0,000 mm 4,3 C 13,4 C 3,2 km/h (1 Bft) 95,65 %
18.09.2019 11:04 21,5 C 13,5 C 45 % 54 % 1024,4 hPa 0,0 l/m 4,8 km/h (1 Bft) NO 45 0,000 mm 4,4 C 13,5 C 9,7 km/h (2 Bft) 100,00 %
18.09.2019 11:03 21,5 C 13,6 C 45 % 54 % 1024,3 hPa 0,0 l/m 4,8 km/h (1 Bft) N-NW 337 0,000 mm 4,5 C 13,6 C 9,7 km/h (2 Bft) 95,65 %
18.09.2019 11:02 21,5 C 13,6 C 45 % 58 % 1024,4 hPa 0,0 l/m 6,4 km/h (2 Bft) N-NO 22 0,000 mm 5,5 C 13,6 C 9,7 km/h (2 Bft) 100,00 %
18.09.2019 11:01 21,5 C 13,6 C 45 % 56 % 1024,3 hPa 0,0 l/m 1,6 km/h (1 Bft) N-NO 22 0,000 mm 5,0 C 13,6 C 3,2 km/h (1 Bft) 100,00 %
18.09.2019 11:00 21,5 C 13,4 C 45 % 58 % 1024,4 hPa 0,0 l/m 1,6 km/h (1 Bft) N-NW 337 0,000 mm 5,3 C 13,4 C 4,8 km/h (1 Bft) 100,00 %
18.09.2019 10:59 21,5 C 13,2 C 45 % 54 % 1024,3 hPa 0,0 l/m 1,6 km/h (1 Bft) N 360 0,000 mm 4,1 C 13,2 C 4,8 km/h (1 Bft) 100,00 %
18.09.2019 10:58 21,4 C 13,2 C 45 % 55 % 1024,3 hPa 0,0 l/m 3,2 km/h (1 Bft) N-NW 337 0,000 mm 4,4 C 13,2 C 4,8 km/h (1 Bft) 91,30 %
18.09.2019 10:57 21,5 C 13,2 C 45 % 53 % 1024,4 hPa 0,0 l/m 1,6 km/h (1 Bft) NO 45 0,000 mm 3,8 C 13,2 C 3,2 km/h (1 Bft) 100,00 %
18.09.2019 10:56 21,5 C 13,3 C 45 % 55 % 1024,4 hPa 0,0 l/m 3,2 km/h (1 Bft) NO 45 0,000 mm 4,5 C 13,3 C 4,8 km/h (1 Bft) 100,00 %
18.09.2019 10:55 21,5 C 13,2 C 45 % 54 % 1024,4 hPa 0,0 l/m 0,0 km/h (0 Bft) N 360 0,000 mm 4,1 C 13,2 C 1,6 km/h (1 Bft) 100,00 %
18.09.2019 10:54 21,5 C 13,2 C 45 % 55 % 1024,3 hPa 0,0 l/m 1,6 km/h (1 Bft) N 360 0,000 mm 4,4 C 13,2 C 4,8 km/h (1 Bft) 100,00 %
18.09.2019 10:53 21,5 C 13,2 C 45 % 57 % 1024,3 hPa 0,0 l/m 4,8 km/h (1 Bft) N 360 0,000 mm 4,9 C 13,2 C 6,4 km/h (2 Bft) 95,65 %
18.09.2019 10:52 21,4 C 13,1 C 45 % 54 % 1024,3 hPa 0,0 l/m 1,6 km/h (1 Bft) NO 45 0,000 mm 4,0 C 13,1 C 4,8 km/h (1 Bft) 100,00 %
18.09.2019 10:51 21,5 C 13,1 C 45 % 55 % 1024,4 hPa 0,0 l/m 3,2 km/h (1 Bft) NO 45 0,000 mm 4,3 C 13,1 C 8,0 km/h (2 Bft) 100,00 %
18.09.2019 10:50 21,5 C 13,1 C 45 % 55 % 1024,3 hPa 0,0 l/m 4,8 km/h (1 Bft) N-NO 22 0,000 mm 4,3 C 13,1 C 8,0 km/h (2 Bft) 100,00 %
18.09.2019 10:49 21,4 C 13,0 C 45 % 53 % 1024,4 hPa 0,0 l/m 3,2 km/h (1 Bft) N-NO 22 0,000 mm 3,6 C 13,0 C 6,4 km/h (2 Bft) 95,65 %
18.09.2019 10:48 21,5 C 13,0 C 45 % 56 % 1024,3 hPa 0,0 l/m 3,2 km/h (1 Bft) N-NO 22 0,000 mm 4,4 C 13,0 C 4,8 km/h (1 Bft) 100,00 %
18.09.2019 10:47 21,5 C 12,9 C 45 % 58 % 1024,4 hPa 0,0 l/m 3,2 km/h (1 Bft) N 360 0,000 mm 4,8 C 12,9 C 4,8 km/h (1 Bft) 100,00 %
18.09.2019 10:46 21,4 C 12,8 C 45 % 53 % 1024,4 hPa 0,0 l/m 4,8 km/h (1 Bft) N-NW 337 0,000 mm 3,5 C 12,8 C 6,4 km/h (2 Bft) 100,00 %
18.09.2019 10:45 21,5 C 12,9 C 45 % 54 % 1024,4 hPa 0,0 l/m 6,4 km/h (2 Bft) NW 315 0,000 mm 3,8 C 12,9 C 14,5 km/h (3 Bft) 100,00 %
18.09.2019 10:44 21,5 C 12,9 C 45 % 55 % 1024,4 hPa 0,0 l/m 3,2 km/h (1 Bft) NW 315 0,000 mm 4,1 C 12,9 C 8,0 km/h (2 Bft) 95,65 %
18.09.2019 10:43 21,5 C 12,9 C 45 % 54 % 1024,4 hPa 0,0 l/m 1,6 km/h (1 Bft) N-NO 22 0,000 mm 3,8 C 12,9 C 4,8 km/h (1 Bft) 100,00 %
18.09.2019 10:42 21,5 C 12,9 C 44 % 56 % 1024,4 hPa 0,0 l/m 4,8 km/h (1 Bft) N-NW 337 0,000 mm 4,3 C 12,9 C 8,0 km/h (2 Bft) 100,00 %
18.09.2019 10:41 21,5 C 12,9 C 44 % 55 % 1024,4 hPa 0,0 l/m 3,2 km/h (1 Bft) N 360 0,000 mm 4,1 C 12,9 C 4,8 km/h (1 Bft) 100,00 %
18.09.2019 10:40 21,5 C 13,0 C 45 % 54 % 1024,4 hPa 0,0 l/m 4,8 km/h (1 Bft) N-NW 337 0,000 mm 3,9 C 13,0 C 6,4 km/h (2 Bft) 100,00 %
18.09.2019 10:39 21,5 C 13,1 C 45 % 55 % 1024,4 hPa 0,0 l/m 4,8 km/h (1 Bft) N-NO 22 0,000 mm 4,3 C 13,1 C 6,4 km/h (2 Bft) 100,00 %
18.09.2019 10:38 21,5 C 13,1 C 45 % 56 % 1024,4 hPa 0,0 l/m 3,2 km/h (1 Bft) N-NO 22 0,000 mm 4,5 C 13,1 C 9,7 km/h (2 Bft) 100,00 %
18.09.2019 10:37 21,5 C 13,1 C 45 % 55 % 1024,4 hPa 0,0 l/m 4,8 km/h (1 Bft) O-NO 67 0,000 mm 4,3 C 13,1 C 6,4 km/h (2 Bft) 100,00 %
18.09.2019 10:36 21,5 C 13,0 C 45 % 56 % 1024,4 hPa 0,0 l/m 4,8 km/h (1 Bft) N-NO 22 0,000 mm 4,4 C 13,0 C 9,7 km/h (2 Bft) 100,00 %
18.09.2019 10:35 21,5 C 13,1 C 45 % 57 % 1024,4 hPa 0,0 l/m 4,8 km/h (1 Bft) N 360 0,000 mm 4,8 C 13,1 C 6,4 km/h (2 Bft) 100,00 %
18.09.2019 10:34 21,5 C 12,9 C 45 % 57 % 1024,4 hPa 0,0 l/m 4,8 km/h (1 Bft) NO 45 0,000 mm 4,6 C 12,9 C 9,7 km/h (2 Bft) 91,30 %
18.09.2019 10:33 21,5 C 12,9 C 45 % 57 % 1024,4 hPa 0,0 l/m 6,4 km/h (2 Bft) N-NO 22 0,000 mm 4,6 C 12,9 C 9,7 km/h (2 Bft) 95,65 %
18.09.2019 10:32 21,5 C 13,0 C 45 % 56 % 1024,4 hPa 0,0 l/m 4,8 km/h (1 Bft) NO 45 0,000 mm 4,4 C 13,0 C 8,0 km/h (2 Bft) 100,00 %
18.09.2019 10:31 21,5 C 13,0 C 45 % 57 % 1024,3 hPa 0,0 l/m 6,4 km/h (2 Bft) NO 45 0,000 mm 4,7 C 13,0 C 11,3 km/h (2 Bft) 100,00 %
18.09.2019 10:30 21,5 C 12,9 C 45 % 57 % 1024,4 hPa 0,0 l/m 6,4 km/h (2 Bft) NO 45 0,000 mm 4,6 C 12,9 C 9,7 km/h (2 Bft) 100,00 %
18.09.2019 10:29 21,5 C 12,9 C 45 % 56 % 1024,4 hPa 0,0 l/m 3,2 km/h (1 Bft) N-NO 22 0,000 mm 4,3 C 12,9 C 4,8 km/h (1 Bft) 100,00 %
18.09.2019 10:28 21,5 C 12,8 C 45 % 56 % 1024,3 hPa 0,0 l/m 3,2 km/h (1 Bft) O-NO 67 0,000 mm 4,2 C 12,8 C 4,8 km/h (1 Bft) 100,00 %
18.09.2019 10:27 21,5 C 12,8 C 45 % 58 % 1024,3 hPa 0,0 l/m 3,2 km/h (1 Bft) N-NW 337 0,000 mm 4,7 C 12,8 C 4,8 km/h (1 Bft) 100,00 %
18.09.2019 10:26 21,5 C 12,7 C 45 % 58 % 1024,4 hPa 0,0 l/m 3,2 km/h (1 Bft) NO 45 0,000 mm 4,7 C 12,7 C 4,8 km/h (1 Bft) 100,00 %
18.09.2019 10:25 21,5 C 12,7 C 45 % 59 % 1024,3 hPa 0,0 l/m 3,2 km/h (1 Bft) N-NO 22 0,000 mm 4,9 C 12,7 C 4,8 km/h (1 Bft) 100,00 %
18.09.2019 10:24 21,5 C 12,5 C 45 % 58 % 1024,4 hPa 0,0 l/m 4,8 km/h (1 Bft) N-NW 337 0,000 mm 4,5 C 12,5 C 8,0 km/h (2 Bft) 100,00 %
18.09.2019 10:23 21,5 C 12,3 C 45 % 56 % 1024,3 hPa 0,0 l/m 3,2 km/h (1 Bft) N 360 0,000 mm 3,8 C 12,3 C 4,8 km/h (1 Bft) 100,00 %
18.09.2019 10:22 21,5 C 12,4 C 45 % 56 % 1024,4 hPa 0,0 l/m 3,2 km/h (1 Bft) N 360 0,000 mm 3,9 C 12,4 C 6,4 km/h (2 Bft) 100,00 %
18.09.2019 10:21 21,5 C 12,3 C 45 % 58 % 1024,4 hPa 0,0 l/m 4,8 km/h (1 Bft) NW 315 0,000 mm 4,3 C 12,3 C 6,4 km/h (2 Bft) 100,00 %
18.09.2019 10:20 21,5 C 12,3 C 45 % 57 % 1024,4 hPa 0,0 l/m 4,8 km/h (1 Bft) NW 315 0,000 mm 4,0 C 12,3 C 8,0 km/h (2 Bft) 100,00 %
18.09.2019 10:19 21,5 C 12,2 C 45 % 56 % 1024,3 hPa 0,0 l/m 4,8 km/h (1 Bft) N-NW 337 0,000 mm 3,7 C 12,2 C 6,4 km/h (2 Bft) 100,00 %
18.09.2019 10:18 21,6 C 12,3 C 45 % 56 % 1024,4 hPa 0,0 l/m 6,4 km/h (2 Bft) N-NW 337 0,000 mm 3,8 C 12,3 C 14,5 km/h (3 Bft) 100,00 %
18.09.2019 10:17 21,6 C 12,4 C 45 % 56 % 1024,3 hPa 0,0 l/m 8,0 km/h (2 Bft) N-NW 337 0,000 mm 3,9 C 11,4 C 12,9 km/h (3 Bft) 100,00 %
18.09.2019 10:16 21,5 C 12,4 C 46 % 56 % 1024,4 hPa 0,0 l/m 8,0 km/h (2 Bft) N 360 0,000 mm 3,9 C 11,4 C 12,9 km/h (3 Bft) 100,00 %
18.09.2019 10:15 21,5 C 12,4 C 45 % 57 % 1024,3 hPa 0,0 l/m 6,4 km/h (2 Bft) N-NO 22 0,000 mm 4,1 C 12,4 C 9,7 km/h (2 Bft) 100,00 %
18.09.2019 10:14 21,6 C 12,4 C 45 % 59 % 1024,4 hPa 0,0 l/m 3,2 km/h (1 Bft) N 360 0,000 mm 4,6 C 12,4 C 6,4 km/h (2 Bft) 100,00 %
18.09.2019 10:13 21,5 C 12,4 C 46 % 58 % 1024,4 hPa 0,0 l/m 4,8 km/h (1 Bft) N 360 0,000 mm 4,4 C 12,4 C 8,0 km/h (2 Bft) 100,00 %
18.09.2019 10:12 21,6 C 12,4 C 46 % 58 % 1024,4 hPa 0,0 l/m 6,4 km/h (2 Bft) N 360 0,000 mm 4,4 C 12,4 C 8,0 km/h (2 Bft) 100,00 %
18.09.2019 10:11 21,5 C 12,4 C 46 % 59 % 1024,4 hPa 0,0 l/m 3,2 km/h (1 Bft) N-NW 337 0,000 mm 4,6 C 12,4 C 8,0 km/h (2 Bft) 100,00 %
18.09.2019 10:10 21,5 C 12,3 C 46 % 58 % 1024,4 hPa 0,0 l/m 3,2 km/h (1 Bft) W 270 0,000 mm 4,3 C 12,3 C 4,8 km/h (1 Bft) 100,00 %
18.09.2019 10:09 21,6 C 12,4 C 46 % 58 % 1024,5 hPa 0,0 l/m 4,8 km/h (1 Bft) NW 315 0,000 mm 4,4 C 12,4 C 8,0 km/h (2 Bft) 100,00 %
18.09.2019 10:08 21,6 C 12,3 C 46 % 57 % 1024,4 hPa 0,0 l/m 3,2 km/h (1 Bft) N 360 0,000 mm 4,0 C 12,3 C 6,4 km/h (2 Bft) 95,65 %
18.09.2019 10:07 21,5 C 12,3 C 46 % 57 % 1024,5 hPa 0,0 l/m 3,2 km/h (1 Bft) NW 315 0,000 mm 4,0 C 12,3 C 4,8 km/h (1 Bft) 100,00 %
18.09.2019 10:06 21,6 C 12,3 C 46 % 55 % 1024,5 hPa 0,0 l/m 6,4 km/h (2 Bft) N-NW 337 0,000 mm 3,5 C 12,3 C 8,0 km/h (2 Bft) 100,00 %
18.09.2019 10:05 21,6 C 12,4 C 46 % 55 % 1024,4 hPa 0,0 l/m 4,8 km/h (1 Bft) NW 315 0,000 mm 3,6 C 12,4 C 6,4 km/h (2 Bft) 100,00 %
18.09.2019 10:04 21,6 C 12,3 C 46 % 57 % 1024,4 hPa 0,0 l/m 4,8 km/h (1 Bft) NW 315 0,000 mm 4,0 C 12,3 C 6,4 km/h (2 Bft) 100,00 %
18.09.2019 10:03 21,5 C 12,3 C 46 % 55 % 1024,4 hPa 0,0 l/m 4,8 km/h (1 Bft) NW 315 0,000 mm 3,5 C 12,3 C 4,8 km/h (1 Bft) 95,65 %
18.09.2019 10:02 21,6 C 12,3 C 46 % 53 % 1024,5 hPa 0,0 l/m 3,2 km/h (1 Bft) W 270 0,000 mm 3,0 C 12,3 C 4,8 km/h (1 Bft) 100,00 %
18.09.2019 10:01 21,6 C 12,3 C 46 % 56 % 1024,4 hPa 0,0 l/m 4,8 km/h (1 Bft) NW 315 0,000 mm 3,8 C 12,3 C 8,0 km/h (2 Bft) 95,65 %
18.09.2019 10:00 21,5 C 12,3 C 46 % 57 % 1024,5 hPa 0,0 l/m 4,8 km/h (1 Bft) W-NW 292 0,000 mm 4,0 C 12,3 C 8,0 km/h (2 Bft) 100,00 %
18.09.2019 09:59 21,5 C 12,3 C 46 % 56 % 1024,4 hPa 0,0 l/m 3,2 km/h (1 Bft) W-NW 292 0,000 mm 3,8 C 12,3 C 4,8 km/h (1 Bft) 100,00 %
18.09.2019 09:58 21,6 C 12,4 C 46 % 56 % 1024,4 hPa 0,0 l/m 4,8 km/h (1 Bft) W-NW 292 0,000 mm 3,9 C 12,4 C 6,4 km/h (2 Bft) 100,00 %
18.09.2019 09:57 21,5 C 12,4 C 46 % 60 % 1024,4 hPa 0,0 l/m 4,8 km/h (1 Bft) NW 315 0,000 mm 4,9 C 12,4 C 8,0 km/h (2 Bft) 100,00 %
18.09.2019 09:56 21,6 C 12,3 C 46 % 57 % 1024,4 hPa 0,0 l/m 4,8 km/h (1 Bft) N-NW 337 0,000 mm 4,0 C 12,3 C 6,4 km/h (2 Bft) 100,00 %
18.09.2019 09:55 21,6 C 12,3 C 46 % 59 % 1024,4 hPa 0,0 l/m 1,6 km/h (1 Bft) NW 315 0,000 mm 4,5 C 12,3 C 4,8 km/h (1 Bft) 95,65 %
18.09.2019 09:54 21,6 C 12,2 C 46 % 57 % 1024,4 hPa 0,0 l/m 1,6 km/h (1 Bft) W 270 0,000 mm 3,9 C 12,2 C 4,8 km/h (1 Bft) 100,00 %
18.09.2019 09:53 21,6 C 12,1 C 46 % 57 % 1024,4 hPa 0,0 l/m 4,8 km/h (1 Bft) W-NW 292 0,000 mm 3,8 C 12,1 C 9,7 km/h (2 Bft) 100,00 %
18.09.2019 09:52 21,5 C 12,2 C 46 % 57 % 1024,4 hPa 0,0 l/m 6,4 km/h (2 Bft) W 270 0,000 mm 3,9 C 12,2 C 9,7 km/h (2 Bft) 100,00 %
18.09.2019 09:51 21,6 C 12,2 C 46 % 56 % 1024,3 hPa 0,0 l/m 4,8 km/h (1 Bft) N-NW 337 0,000 mm 3,7 C 12,2 C 6,4 km/h (2 Bft) 100,00 %
18.09.2019 09:50 21,6 C 12,2 C 47 % 58 % 1024,4 hPa 0,0 l/m 3,2 km/h (1 Bft) NW 315 0,000 mm 4,2 C 12,2 C 6,4 km/h (2 Bft) 100,00 %
18.09.2019 09:49 21,6 C 12,2 C 47 % 57 % 1024,4 hPa 0,0 l/m 3,2 km/h (1 Bft) N-NW 337 0,000 mm 3,9 C 12,2 C 8,0 km/h (2 Bft) 100,00 %
18.09.2019 09:48 21,5 C 12,2 C 47 % 58 % 1024,4 hPa 0,0 l/m 3,2 km/h (1 Bft) NW 315 0,000 mm 4,2 C 12,2 C 8,0 km/h (2 Bft) 100,00 %
18.09.2019 09:47 21,6 C 12,3 C 47 % 58 % 1024,4 hPa 0,0 l/m 4,8 km/h (1 Bft) W-NW 292 0,000 mm 4,3 C 12,3 C 9,7 km/h (2 Bft) 95,65 %
18.09.2019 09:46 21,6 C 12,4 C 47 % 58 % 1024,4 hPa 0,0 l/m 4,8 km/h (1 Bft) W-NW 292 0,000 mm 4,4 C 12,4 C 6,4 km/h (2 Bft) 95,65 %
18.09.2019 09:45 21,5 C 12,4 C 47 % 60 % 1024,3 hPa 0,0 l/m 3,2 km/h (1 Bft) NW 315 0,000 mm 4,9 C 12,4 C 4,8 km/h (1 Bft) 100,00 %
18.09.2019 09:44 21,5 C 12,4 C 47 % 60 % 1024,3 hPa 0,0 l/m 3,2 km/h (1 Bft) NW 315 0,000 mm 4,9 C 12,4 C 3,2 km/h (1 Bft) 100,00 %
18.09.2019 09:43 21,5 C 12,4 C 47 % 59 % 1024,3 hPa 0,0 l/m 6,4 km/h (2 Bft) N-NW 337 0,000 mm 4,6 C 12,4 C 9,7 km/h (2 Bft) 95,65 %
18.09.2019 09:42 21,5 C 12,3 C 47 % 60 % 1024,4 hPa 0,0 l/m 4,8 km/h (1 Bft) NW 315 0,000 mm 4,8 C 12,3 C 6,4 km/h (2 Bft) 100,00 %
18.09.2019 09:41 21,5 C 12,3 C 47 % 61 % 1024,4 hPa 0,0 l/m 4,8 km/h (1 Bft) NW 315 0,000 mm 5,0 C 12,3 C 6,4 km/h (2 Bft) 100,00 %
18.09.2019 09:40 21,5 C 12,2 C 47 % 62 % 1024,3 hPa 0,0 l/m 3,2 km/h (1 Bft) NW 315 0,000 mm 5,1 C 12,2 C 4,8 km/h (1 Bft) 100,00 %
18.09.2019 09:39 21,5 C 12,1 C 47 % 62 % 1024,3 hPa 0,0 l/m 4,8 km/h (1 Bft) NW 315 0,000 mm 5,0 C 12,1 C 9,7 km/h (2 Bft) 100,00 %
18.09.2019 09:38 21,6 C 12,2 C 47 % 62 % 1024,3 hPa 0,0 l/m 3,2 km/h (1 Bft) N 360 0,000 mm 5,1 C 12,2 C 4,8 km/h (1 Bft) 100,00 %
18.09.2019 09:37 21,5 C 12,3 C 47 % 61 % 1024,3 hPa 0,0 l/m 3,2 km/h (1 Bft) N-NW 337 0,000 mm 5,0 C 12,3 C 4,8 km/h (1 Bft) 100,00 %
18.09.2019 09:36 21,5 C 12,3 C 47 % 62 % 1024,3 hPa 0,0 l/m 3,2 km/h (1 Bft) NW 315 0,000 mm 5,2 C 12,3 C 4,8 km/h (1 Bft) 95,65 %
18.09.2019 09:35 21,5 C 12,4 C 47 % 62 % 1024,3 hPa 0,0 l/m 3,2 km/h (1 Bft) N 360 0,000 mm 5,3 C 12,4 C 6,4 km/h (2 Bft) 100,00 %
18.09.2019 09:34 21,5 C 12,4 C 47 % 63 % 1024,3 hPa 0,0 l/m 3,2 km/h (1 Bft) N 360 0,000 mm 5,6 C 12,4 C 4,8 km/h (1 Bft) 100,00 %
18.09.2019 09:33 21,5 C 12,3 C 47 % 63 % 1024,3 hPa 0,0 l/m 4,8 km/h (1 Bft) NW 315 0,000 mm 5,5 C 12,3 C 6,4 km/h (2 Bft) 95,65 %
18.09.2019 09:32 21,5 C 12,3 C 47 % 62 % 1024,3 hPa 0,0 l/m 3,2 km/h (1 Bft) N-NW 337 0,000 mm 5,2 C 12,3 C 3,2 km/h (1 Bft) 100,00 %
18.09.2019 09:31 21,5 C 12,2 C 47 % 61 % 1024,4 hPa 0,0 l/m 3,2 km/h (1 Bft) N-NW 337 0,000 mm 4,9 C 12,2 C 6,4 km/h (2 Bft) 100,00 %
18.09.2019 09:30 21,6 C 12,1 C 47 % 61 % 1024,3 hPa 0,0 l/m 3,2 km/h (1 Bft) NW 315 0,000 mm 4,8 C 12,1 C 4,8 km/h (1 Bft) 100,00 %
18.09.2019 09:29 21,5 C 12,1 C 47 % 59 % 1024,3 hPa 0,0 l/m 3,2 km/h (1 Bft) W-NW 292 0,000 mm 4,3 C 12,1 C 4,8 km/h (1 Bft) 100,00 %
18.09.2019 09:28 21,5 C 12,1 C 47 % 59 % 1024,3 hPa 0,0 l/m 4,8 km/h (1 Bft) W-NW 292 0,000 mm 4,3 C 12,1 C 9,7 km/h (2 Bft) 100,00 %
18.09.2019 09:27 21,5 C 12,1 C 47 % 59 % 1024,3 hPa 0,0 l/m 4,8 km/h (1 Bft) W 270 0,000 mm 4,3 C 12,1 C 9,7 km/h (2 Bft) 100,00 %
18.09.2019 09:26 21,5 C 12,1 C 47 % 59 % 1024,3 hPa 0,0 l/m 4,8 km/h (1 Bft) W-NW 292 0,000 mm 4,3 C 12,1 C 6,4 km/h (2 Bft) 100,00 %
18.09.2019 09:25 21,5 C 12,1 C 47 % 61 % 1024,3 hPa 0,0 l/m 3,2 km/h (1 Bft) W-NW 292 0,000 mm 4,8 C 12,1 C 4,8 km/h (1 Bft) 95,65 %
18.09.2019 09:24 21,5 C 12,1 C 47 % 63 % 1024,3 hPa 0,0 l/m 3,2 km/h (1 Bft) N-NW 337 0,000 mm 5,3 C 12,1 C 4,8 km/h (1 Bft) 100,00 %
18.09.2019 09:23 21,5 C 12,0 C 47 % 63 % 1024,3 hPa 0,0 l/m 0,0 km/h (0 Bft) N-NW 337 0,000 mm 5,2 C 12,0 C 3,2 km/h (1 Bft) 100,00 %
18.09.2019 09:22 21,5 C 11,9 C 47 % 62 % 1024,3 hPa 0,0 l/m 3,2 km/h (1 Bft) N-NW 337 0,000 mm 4,9 C 11,9 C 4,8 km/h (1 Bft) 100,00 %
18.09.2019 09:21 21,5 C 11,9 C 48 % 62 % 1024,3 hPa 0,0 l/m 3,2 km/h (1 Bft) NW 315 0,000 mm 4,9 C 11,9 C 6,4 km/h (2 Bft) 100,00 %
18.09.2019 09:20 21,5 C 11,9 C 48 % 62 % 1024,3 hPa 0,0 l/m 4,8 km/h (1 Bft) NW 315 0,000 mm 4,9 C 11,9 C 8,0 km/h (2 Bft) 100,00 %
18.09.2019 09:19 21,5 C 12,0 C 48 % 62 % 1024,3 hPa 0,0 l/m 3,2 km/h (1 Bft) N-NW 337 0,000 mm 4,9 C 12,0 C 6,4 km/h (2 Bft) 100,00 %
18.09.2019 09:18 21,5 C 11,9 C 48 % 64 % 1024,1 hPa 0,0 l/m 1,6 km/h (1 Bft) N-NW 337 0,000 mm 5,3 C 11,9 C 3,2 km/h (1 Bft) 100,00 %
18.09.2019 09:17 21,5 C 11,8 C 48 % 63 % 1024,3 hPa 0,0 l/m 1,6 km/h (1 Bft) N-NW 337 0,000 mm 5,0 C 11,8 C 4,8 km/h (1 Bft) 100,00 %
18.09.2019 09:16 21,5 C 11,7 C 48 % 63 % 1024,2 hPa 0,0 l/m 1,6 km/h (1 Bft) N-NW 337 0,000 mm 4,9 C 11,7 C 4,8 km/h (1 Bft) 100,00 %
18.09.2019 09:15 21,5 C 11,6 C 48 % 65 % 1024,2 hPa 0,0 l/m 3,2 km/h (1 Bft) NW 315 0,000 mm 5,2 C 11,6 C 4,8 km/h (1 Bft) 100,00 %
18.09.2019 09:14 21,5 C 11,5 C 48 % 65 % 1024,2 hPa 0,0 l/m 1,6 km/h (1 Bft) NW 315 0,000 mm 5,2 C 11,5 C 3,2 km/h (1 Bft) 100,00 %
18.09.2019 09:13 21,5 C 11,5 C 48 % 63 % 1024,2 hPa 0,0 l/m 1,6 km/h (1 Bft) NW 315 0,000 mm 4,7 C 11,5 C 4,8 km/h (1 Bft) 95,65 %
18.09.2019 09:12 21,5 C 11,4 C 48 % 64 % 1024,2 hPa 0,0 l/m 1,6 km/h (1 Bft) W-NW 292 0,000 mm 4,8 C 11,4 C 3,2 km/h (1 Bft) 100,00 %
18.09.2019 09:11 21,5 C 11,4 C 48 % 63 % 1024,2 hPa 0,0 l/m 3,2 km/h (1 Bft) W-NW 292 0,000 mm 4,6 C 11,4 C 4,8 km/h (1 Bft) 100,00 %
18.09.2019 09:10 21,5 C 11,4 C 48 % 63 % 1024,1 hPa 0,0 l/m 1,6 km/h (1 Bft) W-NW 292 0,000 mm 4,6 C 11,4 C 4,8 km/h (1 Bft) 100,00 %
18.09.2019 09:09 21,5 C 11,5 C 48 % 63 % 1024,2 hPa 0,0 l/m 3,2 km/h (1 Bft) W 270 0,000 mm 4,7 C 11,5 C 6,4 km/h (2 Bft) 100,00 %
18.09.2019 09:08 21,5 C 11,5 C 48 % 64 % 1024,1 hPa 0,0 l/m 1,6 km/h (1 Bft) W-SW 247 0,000 mm 4,9 C 11,5 C 3,2 km/h (1 Bft) 100,00 %
18.09.2019 09:07 21,5 C 11,5 C 48 % 63 % 1024,2 hPa 0,0 l/m 1,6 km/h (1 Bft) W-SW 247 0,000 mm 4,7 C 11,5 C 3,2 km/h (1 Bft) 95,65 %
18.09.2019 09:06 21,5 C 11,5 C 48 % 62 % 1024,1 hPa 0,0 l/m 3,2 km/h (1 Bft) W 270 0,000 mm 4,5 C 11,5 C 4,8 km/h (1 Bft) 100,00 %
18.09.2019 09:05 21,5 C 11,6 C 48 % 65 % 1024,1 hPa 0,0 l/m 1,6 km/h (1 Bft) W-NW 292 0,000 mm 5,2 C 11,6 C 3,2 km/h (1 Bft) 100,00 %
18.09.2019 09:04 21,6 C 11,6 C 48 % 66 % 1024,1 hPa 0,0 l/m 1,6 km/h (1 Bft) W-NW 292 0,000 mm 5,5 C 11,6 C 3,2 km/h (1 Bft) 100,00 %
18.09.2019 09:03 21,5 C 11,4 C 48 % 67 % 1024,1 hPa 0,0 l/m 0,0 km/h (0 Bft) W 270 0,000 mm 5,5 C 11,4 C 1,6 km/h (1 Bft) 100,00 %
18.09.2019 09:02 21,6 C 11,3 C 48 % 67 % 1024,2 hPa 0,0 l/m 1,6 km/h (1 Bft) W 270 0,000 mm 5,4 C 11,3 C 3,2 km/h (1 Bft) 100,00 %
18.09.2019 09:01 21,6 C 11,3 C 48 % 65 % 1024,1 hPa 0,0 l/m 1,6 km/h (1 Bft) W 270 0,000 mm 5,0 C 11,3 C 1,6 km/h (1 Bft) 100,00 %
18.09.2019 09:00 21,6 C 11,3 C 48 % 64 % 1024,1 hPa 0,0 l/m 3,2 km/h (1 Bft) W 270 0,000 mm 4,7 C 11,3 C 8,0 km/h (2 Bft) 100,00 %
18.09.2019 08:59 21,5 C 11,3 C 48 % 66 % 1024,1 hPa 0,0 l/m 3,2 km/h (1 Bft) NW 315 0,000 mm 5,2 C 11,3 C 4,8 km/h (1 Bft) 100,00 %
18.09.2019 08:58 21,5 C 11,3 C 48 % 66 % 1024,1 hPa 0,0 l/m 3,2 km/h (1 Bft) W-NW 292 0,000 mm 5,2 C 11,3 C 6,4 km/h (2 Bft) 100,00 %
18.09.2019 08:57 21,6 C 11,3 C 48 % 66 % 1024,1 hPa 0,0 l/m 1,6 km/h (1 Bft) W-NW 292 0,000 mm 5,2 C 11,3 C 3,2 km/h (1 Bft) 100,00 %
18.09.2019 08:56 21,6 C 11,3 C 48 % 67 % 1024,1 hPa 0,0 l/m 1,6 km/h (1 Bft) W-NW 292 0,000 mm 5,4 C 11,3 C 3,2 km/h (1 Bft) 100,00 %
18.09.2019 08:55 21,6 C 11,3 C 48 % 67 % 1024,1 hPa 0,0 l/m 1,6 km/h (1 Bft) W-NW 292 0,000 mm 5,4 C 11,3 C 1,6 km/h (1 Bft) 100,00 %
18.09.2019 08:54 21,6 C 11,3 C 48 % 66 % 1024,1 hPa 0,0 l/m 1,6 km/h (1 Bft) W-NW 292 0,000 mm 5,2 C 11,3 C 3,2 km/h (1 Bft) 100,00 %
18.09.2019 08:53 21,6 C 11,3 C 48 % 66 % 1024,1 hPa 0,0 l/m 3,2 km/h (1 Bft) W-NW 292 0,000 mm 5,2 C 11,3 C 6,4 km/h (2 Bft) 91,30 %
18.09.2019 08:52 21,6 C 11,4 C 48 % 66 % 1024,1 hPa 0,0 l/m 3,2 km/h (1 Bft) NW 315 0,000 mm 5,3 C 11,4 C 4,8 km/h (1 Bft) 95,65 %
18.09.2019 08:51 21,6 C 11,3 C 48 % 66 % 1024,0 hPa 0,0 l/m 1,6 km/h (1 Bft) NW 315 0,000 mm 5,2 C 11,3 C 4,8 km/h (1 Bft) 95,65 %
18.09.2019 08:50 21,6 C 11,3 C 48 % 67 % 1024,0 hPa 0,0 l/m 3,2 km/h (1 Bft) W 270 0,000 mm 5,4 C 11,3 C 6,4 km/h (2 Bft) 100,00 %
18.09.2019 08:49 21,6 C 11,3 C 48 % 66 % 1024,0 hPa 0,0 l/m 1,6 km/h (1 Bft) W 270 0,000 mm 5,2 C 11,3 C 4,8 km/h (1 Bft) 100,00 %
18.09.2019 08:48 21,6 C 11,3 C 48 % 66 % 1024,0 hPa 0,0 l/m 3,2 km/h (1 Bft) NW 315 0,000 mm 5,2 C 11,3 C 4,8 km/h (1 Bft) 100,00 %
18.09.2019 08:47 21,6 C 11,3 C 48 % 66 % 1024,0 hPa 0,0 l/m 1,6 km/h (1 Bft) N-NW 337 0,000 mm 5,2 C 11,3 C 3,2 km/h (1 Bft) 100,00 %
18.09.2019 08:46 21,6 C 11,3 C 48 % 67 % 1024,0 hPa 0,0 l/m 1,6 km/h (1 Bft) N-NW 337 0,000 mm 5,4 C 11,3 C 3,2 km/h (1 Bft) 95,65 %
18.09.2019 08:45 21,6 C 11,3 C 48 % 67 % 1024,0 hPa 0,0 l/m 1,6 km/h (1 Bft) NW 315 0,000 mm 5,4 C 11,3 C 3,2 km/h (1 Bft) 100,00 %
18.09.2019 08:44 21,6 C 11,3 C 48 % 67 % 1024,0 hPa 0,0 l/m 3,2 km/h (1 Bft) N-NW 337 0,000 mm 5,4 C 11,3 C 6,4 km/h (2 Bft) 95,65 %
18.09.2019 08:43 21,6 C 11,3 C 48 % 67 % 1024,0 hPa 0,0 l/m 1,6 km/h (1 Bft) NW 315 0,000 mm 5,4 C 11,3 C 6,4 km/h (2 Bft) 95,65 %
18.09.2019 08:42 21,6 C 11,3 C 48 % 68 % 1024,0 hPa 0,0 l/m 1,6 km/h (1 Bft) NW 315 0,000 mm 5,6 C 11,3 C 3,2 km/h (1 Bft) 100,00 %
18.09.2019 08:41 21,6 C 11,3 C 48 % 67 % 1023,9 hPa 0,0 l/m 1,6 km/h (1 Bft) NW 315 0,000 mm 5,4 C 11,3 C 1,6 km/h (1 Bft) 95,65 %
18.09.2019 08:40 21,6 C 11,2 C 48 % 66 % 1024,0 hPa 0,0 l/m 3,2 km/h (1 Bft) NW 315 0,000 mm 5,1 C 11,2 C 4,8 km/h (1 Bft) 100,00 %
18.09.2019 08:39 21,6 C 11,2 C 48 % 68 % 1023,9 hPa 0,0 l/m 1,6 km/h (1 Bft) NW 315 0,000 mm 5,5 C 11,2 C 4,8 km/h (1 Bft) 100,00 %
18.09.2019 08:38 21,6 C 11,2 C 48 % 67 % 1024,0 hPa 0,0 l/m 3,2 km/h (1 Bft) NW 315 0,000 mm 5,3 C 11,2 C 3,2 km/h (1 Bft) 100,00 %
18.09.2019 08:37 21,6 C 11,2 C 48 % 67 % 1023,9 hPa 0,0 l/m 3,2 km/h (1 Bft) NW 315 0,000 mm 5,3 C 11,2 C 3,2 km/h (1 Bft) 100,00 %
18.09.2019 08:36 21,6 C 11,2 C 49 % 68 % 1024,0 hPa 0,0 l/m 3,2 km/h (1 Bft) NW 315 0,000 mm 5,5 C 11,2 C 3,2 km/h (1 Bft) 100,00 %
18.09.2019 08:35 21,6 C 11,2 C 49 % 68 % 1024,0 hPa 0,0 l/m 0,0 km/h (0 Bft) NW 315 0,000 mm 5,5 C 11,2 C 3,2 km/h (1 Bft) 100,00 %
18.09.2019 08:34 21,6 C 11,2 C 48 % 67 % 1023,9 hPa 0,0 l/m 0,0 km/h (0 Bft) NW 315 0,000 mm 5,3 C 11,2 C 1,6 km/h (1 Bft) 100,00 %
18.09.2019 08:33 21,6 C 11,2 C 48 % 67 % 1023,9 hPa 0,0 l/m 1,6 km/h (1 Bft) NW 315 0,000 mm 5,3 C 11,2 C 3,2 km/h (1 Bft) 100,00 %
18.09.2019 08:32 21,6 C 11,1 C 48 % 67 % 1023,9 hPa 0,0 l/m 1,6 km/h (1 Bft) NW 315 0,000 mm 5,2 C 11,1 C 3,2 km/h (1 Bft) 100,00 %
18.09.2019 08:31 21,6 C 11,1 C 48 % 67 % 1024,0 hPa 0,0 l/m 1,6 km/h (1 Bft) NW 315 0,000 mm 5,2 C 11,1 C 3,2 km/h (1 Bft) 100,00 %
18.09.2019 08:30 21,6 C 11,1 C 48 % 67 % 1023,9 hPa 0,0 l/m 1,6 km/h (1 Bft) NW 315 0,000 mm 5,2 C 11,1 C 3,2 km/h (1 Bft) 100,00 %
18.09.2019 08:29 21,6 C 11,1 C 48 % 67 % 1024,0 hPa 0,0 l/m 0,0 km/h (0 Bft) NW 315 0,000 mm 5,2 C 11,1 C 3,2 km/h (1 Bft) 100,00 %
18.09.2019 08:28 21,6 C 11,1 C 48 % 67 % 1024,0 hPa 0,0 l/m 0,0 km/h (0 Bft) NW 315 0,000 mm 5,2 C 11,1 C 1,6 km/h (1 Bft) 100,00 %
18.09.2019 08:27 21,6 C 11,1 C 48 % 66 % 1023,9 hPa 0,0 l/m 1,6 km/h (1 Bft) NW 315 0,000 mm 5,0 C 11,1 C 3,2 km/h (1 Bft) 95,65 %
18.09.2019 08:26 21,6 C 11,1 C 48 % 67 % 1023,8 hPa 0,0 l/m 1,6 km/h (1 Bft) NW 315 0,000 mm 5,2 C 11,1 C 3,2 km/h (1 Bft) 100,00 %
18.09.2019 08:25 21,6 C 11,1 C 48 % 66 % 1023,9 hPa 0,0 l/m 1,6 km/h (1 Bft) NW 315 0,000 mm 5,0 C 11,1 C 3,2 km/h (1 Bft) 100,00 %
18.09.2019 08:24 21,7 C 11,1 C 48 % 67 % 1023,8 hPa 0,0 l/m 1,6 km/h (1 Bft) NW 315 0,000 mm 5,2 C 11,1 C 3,2 km/h (1 Bft) 95,65 %
18.09.2019 08:23 21,6 C 11,1 C 48 % 66 % 1023,8 hPa 0,0 l/m 1,6 km/h (1 Bft) W 270 0,000 mm 5,0 C 11,1 C 3,2 km/h (1 Bft) 100,00 %
18.09.2019 08:22 21,6 C 11,1 C 48 % 68 % 1023,8 hPa 0,0 l/m 1,6 km/h (1 Bft) W-NW 292 0,000 mm 5,4 C 11,1 C 3,2 km/h (1 Bft) 100,00 %
18.09.2019 08:21 21,6 C 10,9 C 48 % 67 % 1023,8 hPa 0,0 l/m 1,6 km/h (1 Bft) W-NW 292 0,000 mm 5,0 C 10,9 C 1,6 km/h (1 Bft) 100,00 %
18.09.2019 08:20 21,7 C 11,0 C 48 % 66 % 1023,8 hPa 0,0 l/m 1,6 km/h (1 Bft) W-NW 292 0,000 mm 4,9 C 11,0 C 3,2 km/h (1 Bft) 91,30 %
18.09.2019 08:19 21,7 C 11,0 C 48 % 66 % 1023,8 hPa 0,0 l/m 3,2 km/h (1 Bft) W-NW 292 0,000 mm 4,9 C 11,0 C 4,8 km/h (1 Bft) 100,00 %
18.09.2019 08:18 21,7 C 11,0 C 48 % 68 % 1023,8 hPa 0,0 l/m 3,2 km/h (1 Bft) W 270 0,000 mm 5,3 C 11,0 C 4,8 km/h (1 Bft) 100,00 %
18.09.2019 08:17 21,7 C 11,0 C 48 % 67 % 1023,7 hPa 0,0 l/m 0,0 km/h (0 Bft) W 270 0,000 mm 5,1 C 11,0 C 1,6 km/h (1 Bft) 100,00 %
18.09.2019 08:16 21,7 C 10,9 C 48 % 66 % 1023,7 hPa 0,0 l/m 0,0 km/h (0 Bft) W 270 0,000 mm 4,8 C 10,9 C 1,6 km/h (1 Bft) 100,00 %
18.09.2019 08:15 21,7 C 10,9 C 48 % 67 % 1023,7 hPa 0,0 l/m 0,0 km/h (0 Bft) W 270 0,000 mm 5,0 C 10,9 C 1,6 km/h (1 Bft) 91,30 %
18.09.2019 08:14 21,7 C 10,9 C 48 % 66 % 1023,8 hPa 0,0 l/m 1,6 km/h (1 Bft) W 270 0,000 mm 4,8 C 10,9 C 3,2 km/h (1 Bft) 100,00 %
18.09.2019 08:13 21,7 C 10,9 C 48 % 66 % 1023,7 hPa 0,0 l/m 1,6 km/h (1 Bft) W 270 0,000 mm 4,8 C 10,9 C 4,8 km/h (1 Bft) 100,00 %
18.09.2019 08:12 21,7 C 10,9 C 48 % 65 % 1023,7 hPa 0,0 l/m 1,6 km/h (1 Bft) W-SW 247 0,000 mm 4,6 C 10,9 C 3,2 km/h (1 Bft) 100,00 %
18.09.2019 08:11 21,7 C 10,8 C 48 % 66 % 1023,7 hPa 0,0 l/m 3,2 km/h (1 Bft) W-SW 247 0,000 mm 4,7 C 10,8 C 6,4 km/h (2 Bft) 100,00 %
18.09.2019 08:10 21,7 C 10,8 C 48 % 66 % 1023,7 hPa 0,0 l/m 1,6 km/h (1 Bft) W-SW 247 0,000 mm 4,7 C 10,8 C 4,8 km/h (1 Bft) 95,65 %
18.09.2019 08:09 21,7 C 10,8 C 48 % 66 % 1023,7 hPa 0,0 l/m 1,6 km/h (1 Bft) W-SW 247 0,000 mm 4,7 C 10,8 C 4,8 km/h (1 Bft) 100,00 %
18.09.2019 08:08 21,7 C 10,8 C 48 % 66 % 1023,6 hPa 0,0 l/m 1,6 km/h (1 Bft) W 270 0,000 mm 4,7 C 10,8 C 3,2 km/h (1 Bft) 100,00 %
18.09.2019 08:07 21,7 C 10,8 C 48 % 67 % 1023,7 hPa 0,0 l/m 0,0 km/h (0 Bft) W 270 0,000 mm 4,9 C 10,8 C 1,6 km/h (1 Bft) 100,00 %
18.09.2019 08:06 21,7 C 10,8 C 48 % 67 % 1023,7 hPa 0,0 l/m 1,6 km/h (1 Bft) W 270 0,000 mm 4,9 C 10,8 C 3,2 km/h (1 Bft) 100,00 %
18.09.2019 08:05 21,7 C 10,7 C 48 % 67 % 1023,6 hPa 0,0 l/m 1,6 km/h (1 Bft) W 270 0,000 mm 4,8 C 10,7 C 3,2 km/h (1 Bft) 95,65 %
18.09.2019 08:04 21,7 C 10,7 C 48 % 67 % 1023,6 hPa 0,0 l/m 1,6 km/h (1 Bft) W 270 0,000 mm 4,8 C 10,7 C 3,2 km/h (1 Bft) 100,00 %
18.09.2019 08:03 21,7 C 10,7 C 48 % 66 % 1023,6 hPa 0,0 l/m 1,6 km/h (1 Bft) W 270 0,000 mm 4,6 C 10,7 C 3,2 km/h (1 Bft) 100,00 %
18.09.2019 08:02 21,7 C 10,7 C 48 % 66 % 1023,7 hPa 0,0 l/m 1,6 km/h (1 Bft) W 270 0,000 mm 4,6 C 10,7 C 3,2 km/h (1 Bft) 100,00 %
18.09.2019 08:01 21,7 C 10,7 C 48 % 66 % 1023,6 hPa 0,0 l/m 1,6 km/h (1 Bft) W 270 0,000 mm 4,6 C 10,7 C 3,2 km/h (1 Bft) 100,00 %
18.09.2019 08:00 21,7 C 10,7 C 48 % 66 % 1023,6 hPa 0,0 l/m 3,2 km/h (1 Bft) W-SW 247 0,000 mm 4,6 C 10,7 C 4,8 km/h (1 Bft) 100,00 %
18.09.2019 07:59 21,7 C 10,7 C 48 % 66 % 1023,6 hPa 0,0 l/m 1,6 km/h (1 Bft) W 270 0,000 mm 4,6 C 10,7 C 4,8 km/h (1 Bft) 100,00 %
18.09.2019 07:58 21,7 C 10,7 C 48 % 66 % 1023,5 hPa 0,0 l/m 1,6 km/h (1 Bft) W 270 0,000 mm 4,6 C 10,7 C 3,2 km/h (1 Bft) 100,00 %
18.09.2019 07:57 21,7 C 10,7 C 48 % 66 % 1023,6 hPa 0,0 l/m 1,6 km/h (1 Bft) W 270 0,000 mm 4,6 C 10,7 C 3,2 km/h (1 Bft) 100,00 %
18.09.2019 07:56 21,7 C 10,6 C 48 % 66 % 1023,6 hPa 0,0 l/m 1,6 km/h (1 Bft) W 270 0,000 mm 4,5 C 10,6 C 4,8 km/h (1 Bft) 100,00 %
18.09.2019 07:55 21,7 C 10,6 C 49 % 66 % 1023,6 hPa 0,0 l/m 3,2 km/h (1 Bft) W 270 0,000 mm 4,5 C 10,6 C 3,2 km/h (1 Bft) 100,00 %
18.09.2019 07:54 21,8 C 10,6 C 48 % 66 % 1023,6 hPa 0,0 l/m 1,6 km/h (1 Bft) W 270 0,000 mm 4,5 C 10,6 C 1,6 km/h (1 Bft) 100,00 %
18.09.2019 07:53 21,7 C 10,6 C 49 % 66 % 1023,5 hPa 0,0 l/m 0,0 km/h (0 Bft) W 270 0,000 mm 4,5 C 10,6 C 1,6 km/h (1 Bft) 95,65 %
18.09.2019 07:52 21,7 C 10,6 C 49 % 67 % 1023,5 hPa 0,0 l/m 0,0 km/h (0 Bft) W 270 0,000 mm 4,7 C 10,6 C 1,6 km/h (1 Bft) 100,00 %
18.09.2019 07:51 21,7 C 10,6 C 49 % 66 % 1023,5 hPa 0,0 l/m 1,6 km/h (1 Bft) W 270 0,000 mm 4,5 C 10,6 C 3,2 km/h (1 Bft) 95,65 %
18.09.2019 07:50 21,7 C 10,5 C 49 % 66 % 1023,6 hPa 0,0 l/m 3,2 km/h (1 Bft) W 270 0,000 mm 4,4 C 10,5 C 3,2 km/h (1 Bft) 95,65 %
18.09.2019 07:49 21,7 C 10,6 C 49 % 67 % 1023,6 hPa 0,0 l/m 0,0 km/h (0 Bft) W-NW 292 0,000 mm 4,7 C 10,6 C 1,6 km/h (1 Bft) 100,00 %
18.09.2019 07:48 21,7 C 10,5 C 49 % 66 % 1023,6 hPa 0,0 l/m 0,0 km/h (0 Bft) W-NW 292 0,000 mm 4,4 C 10,5 C 1,6 km/h (1 Bft) 100,00 %
18.09.2019 07:47 21,7 C 10,5 C 48 % 66 % 1023,6 hPa 0,0 l/m 1,6 km/h (1 Bft) W-NW 292 0,000 mm 4,4 C 10,5 C 3,2 km/h (1 Bft) 100,00 %
18.09.2019 07:46 21,7 C 10,5 C 48 % 67 % 1023,6 hPa 0,0 l/m 1,6 km/h (1 Bft) W-NW 292 0,000 mm 4,6 C 10,5 C 1,6 km/h (1 Bft) 100,00 %
18.09.2019 07:45 21,7 C 10,4 C 48 % 67 % 1023,6 hPa 0,0 l/m 0,0 km/h (0 Bft) W-NW 292 0,000 mm 4,5 C 10,4 C 1,6 km/h (1 Bft) 95,65 %
18.09.2019 07:44 21,7 C 10,4 C 48 % 67 % 1023,5 hPa 0,0 l/m 0,0 km/h (0 Bft) N 0 0,000 mm 4,5 C 10,4 C 0,0 km/h (0 Bft) 100,00 %
18.09.2019 07:43 21,7 C 10,4 C 48 % 66 % 1023,5 hPa 0,0 l/m 0,0 km/h (0 Bft) W-NW 292 0,000 mm 4,3 C 10,4 C 1,6 km/h (1 Bft) 91,30 %
18.09.2019 07:42 21,8 C 10,4 C 48 % 66 % 1023,6 hPa 0,0 l/m 0,0 km/h (0 Bft) W-NW 292 0,000 mm 4,3 C 10,4 C 1,6 km/h (1 Bft) 100,00 %
18.09.2019 07:41 21,7 C 10,4 C 48 % 66 % 1023,6 hPa 0,0 l/m 0,0 km/h (0 Bft) W-NW 292 0,000 mm 4,3 C 10,4 C 1,6 km/h (1 Bft) 100,00 %
18.09.2019 07:40 21,8 C 10,4 C 48 % 66 % 1023,6 hPa 0,0 l/m 1,6 km/h (1 Bft) W-NW 292 0,000 mm 4,3 C 10,4 C 3,2 km/h (1 Bft) 100,00 %
18.09.2019 07:39 21,7 C 10,4 C 48 % 66 % 1023,6 hPa 0,0 l/m 1,6 km/h (1 Bft) W-NW 292 0,000 mm 4,3 C 10,4 C 3,2 km/h (1 Bft) 100,00 %
18.09.2019 07:38 21,8 C 10,4 C 48 % 66 % 1023,6 hPa 0,0 l/m 0,0 km/h (0 Bft) W 270 0,000 mm 4,3 C 10,4 C 1,6 km/h (1 Bft) 100,00 %
18.09.2019 07:37 21,8 C 10,4 C 48 % 66 % 1023,6 hPa 0,0 l/m 1,6 km/h (1 Bft) W 270 0,000 mm 4,3 C 10,4 C 3,2 km/h (1 Bft) 100,00 %
18.09.2019 07:36 21,8 C 10,4 C 48 % 66 % 1023,5 hPa 0,0 l/m 1,6 km/h (1 Bft) W-SW 247 0,000 mm 4,3 C 10,4 C 4,8 km/h (1 Bft) 100,00 %
18.09.2019 07:35 21,8 C 10,4 C 48 % 66 % 1023,6 hPa 0,0 l/m 1,6 km/h (1 Bft) W 270 0,000 mm 4,3 C 10,4 C 3,2 km/h (1 Bft) 100,00 %
18.09.2019 07:34 21,8 C 10,4 C 48 % 66 % 1023,5 hPa 0,0 l/m 3,2 km/h (1 Bft) W 270 0,000 mm 4,3 C 10,4 C 4,8 km/h (1 Bft) 95,65 %
18.09.2019 07:33 21,8 C 10,4 C 48 % 66 % 1023,5 hPa 0,0 l/m 3,2 km/h (1 Bft) W 270 0,000 mm 4,3 C 10,4 C 4,8 km/h (1 Bft) 100,00 %
18.09.2019 07:32 21,8 C 10,4 C 48 % 66 % 1023,6 hPa 0,0 l/m 1,6 km/h (1 Bft) W 270 0,000 mm 4,3 C 10,4 C 3,2 km/h (1 Bft) 100,00 %
18.09.2019 07:31 21,8 C 10,4 C 48 % 66 % 1023,6 hPa 0,0 l/m 1,6 km/h (1 Bft) W-SW 247 0,000 mm 4,3 C 10,4 C 3,2 km/h (1 Bft) 100,00 %
18.09.2019 07:30 21,8 C 10,4 C 48 % 66 % 1023,6 hPa 0,0 l/m 3,2 km/h (1 Bft) W-SW 247 0,000 mm 4,3 C 10,4 C 3,2 km/h (1 Bft) 100,00 %
18.09.2019 07:29 21,8 C 10,4 C 48 % 67 % 1023,5 hPa 0,0 l/m 1,6 km/h (1 Bft) W-SW 247 0,000 mm 4,5 C 10,4 C 3,2 km/h (1 Bft) 100,00 %
18.09.2019 07:28 21,8 C 10,4 C 48 % 68 % 1023,5 hPa 0,0 l/m 0,0 km/h (0 Bft) W-SW 247 0,000 mm 4,8 C 10,4 C 1,6 km/h (1 Bft) 100,00 %
18.09.2019 07:27 21,8 C 10,4 C 48 % 67 % 1023,5 hPa 0,0 l/m 0,0 km/h (0 Bft) W-SW 247 0,000 mm 4,5 C 10,4 C 1,6 km/h (1 Bft) 91,30 %
18.09.2019 07:26 21,8 C 10,4 C 48 % 68 % 1023,5 hPa 0,0 l/m 3,2 km/h (1 Bft) W-SW 247 0,000 mm 4,8 C 10,4 C 4,8 km/h (1 Bft) 100,00 %
18.09.2019 07:25 21,8 C 10,4 C 48 % 67 % 1023,5 hPa 0,0 l/m 1,6 km/h (1 Bft) W-SW 247 0,000 mm 4,5 C 10,4 C 3,2 km/h (1 Bft) 100,00 %
18.09.2019 07:24 21,8 C 10,4 C 48 % 68 % 1023,4 hPa 0,0 l/m 0,0 km/h (0 Bft) W-SW 247 0,000 mm 4,8 C 10,4 C 1,6 km/h (1 Bft) 95,65 %
18.09.2019 07:23 21,9 C 10,4 C 49 % 67 % 1023,5 hPa 0,0 l/m 1,6 km/h (1 Bft) W-SW 247 0,000 mm 4,5 C 10,4 C 1,6 km/h (1 Bft) 100,00 %
18.09.2019 07:22 21,9 C 10,4 C 49 % 67 % 1023,4 hPa 0,0 l/m 1,6 km/h (1 Bft) W-SW 247 0,000 mm 4,5 C 10,4 C 3,2 km/h (1 Bft) 100,00 %
18.09.2019 07:21 21,9 C 10,4 C 49 % 68 % 1023,5 hPa 0,0 l/m 1,6 km/h (1 Bft) W-SW 247 0,000 mm 4,8 C 10,4 C 3,2 km/h (1 Bft) 100,00 %
18.09.2019 07:20 21,9 C 10,4 C 49 % 67 % 1023,5 hPa 0,0 l/m 1,6 km/h (1 Bft) SW 225 0,000 mm 4,5 C 10,4 C 3,2 km/h (1 Bft) 100,00 %
18.09.2019 07:19 21,9 C 10,4 C 49 % 67 % 1023,4 hPa 0,0 l/m 1,6 km/h (1 Bft) SW 225 0,000 mm 4,5 C 10,4 C 1,6 km/h (1 Bft) 100,00 %
18.09.2019 07:18 21,9 C 10,4 C 49 % 67 % 1023,4 hPa 0,0 l/m 1,6 km/h (1 Bft) SW 225 0,000 mm 4,5 C 10,4 C 3,2 km/h (1 Bft) 100,00 %
18.09.2019 07:17 21,9 C 10,4 C 49 % 67 % 1023,4 hPa 0,0 l/m 1,6 km/h (1 Bft) W 270 0,000 mm 4,5 C 10,4 C 4,8 km/h (1 Bft) 100,00 %
18.09.2019 07:16 21,9 C 10,5 C 49 % 67 % 1023,5 hPa 0,0 l/m 3,2 km/h (1 Bft) W-NW 292 0,000 mm 4,6 C 10,5 C 6,4 km/h (2 Bft) 100,00 %
18.09.2019 07:15 21,9 C 10,5 C 49 % 67 % 1023,4 hPa 0,0 l/m 1,6 km/h (1 Bft) W-NW 292 0,000 mm 4,6 C 10,5 C 6,4 km/h (2 Bft) 100,00 %
18.09.2019 07:14 21,9 C 10,5 C 49 % 67 % 1023,4 hPa 0,0 l/m 0,0 km/h (0 Bft) W-SW 247 0,000 mm 4,6 C 10,5 C 1,6 km/h (1 Bft) 100,00 %
18.09.2019 07:13 21,9 C 10,5 C 49 % 68 % 1023,5 hPa 0,0 l/m 1,6 km/h (1 Bft) SW 225 0,000 mm 4,8 C 10,5 C 4,8 km/h (1 Bft) 100,00 %
18.09.2019 07:12 21,9 C 10,5 C 49 % 68 % 1023,4 hPa 0,0 l/m 1,6 km/h (1 Bft) SW 225 0,000 mm 4,8 C 10,5 C 3,2 km/h (1 Bft) 100,00 %
18.09.2019 07:11 21,9 C 10,5 C 49 % 68 % 1023,4 hPa 0,0 l/m 1,6 km/h (1 Bft) SW 225 0,000 mm 4,8 C 10,5 C 1,6 km/h (1 Bft) 100,00 %
18.09.2019 07:10 21,9 C 10,5 C 49 % 68 % 1023,4 hPa 0,0 l/m 1,6 km/h (1 Bft) SW 225 0,000 mm 4,8 C 10,5 C 1,6 km/h (1 Bft) 95,65 %
18.09.2019 07:09 22,0 C 10,5 C 49 % 68 % 1023,4 hPa 0,0 l/m 1,6 km/h (1 Bft) SW 225 0,000 mm 4,8 C 10,5 C 6,4 km/h (2 Bft) 95,65 %
18.09.2019 07:08 21,9 C 10,6 C 49 % 67 % 1023,4 hPa 0,0 l/m 3,2 km/h (1 Bft) W-SW 247 0,000 mm 4,7 C 10,6 C 4,8 km/h (1 Bft) 100,00 %
18.09.2019 07:07 22,0 C 10,6 C 49 % 68 % 1023,4 hPa 0,0 l/m 3,2 km/h (1 Bft) W 270 0,000 mm 4,9 C 10,6 C 6,4 km/h (2 Bft) 100,00 %
18.09.2019 07:06 21,9 C 10,5 C 49 % 68 % 1023,4 hPa 0,0 l/m 0,0 km/h (0 Bft) W 270 0,000 mm 4,8 C 10,5 C 1,6 km/h (1 Bft) 100,00 %
18.09.2019 07:05 21,9 C 10,6 C 49 % 68 % 1023,4 hPa 0,0 l/m 0,0 km/h (0 Bft) W 270 0,000 mm 4,9 C 10,6 C 1,6 km/h (1 Bft) 100,00 %
18.09.2019 07:04 21,9 C 10,6 C 49 % 68 % 1023,4 hPa 0,0 l/m 1,6 km/h (1 Bft) W 270 0,000 mm 4,9 C 10,6 C 1,6 km/h (1 Bft) 100,00 %
18.09.2019 07:03 21,9 C 10,6 C 49 % 68 % 1023,4 hPa 0,0 l/m 0,0 km/h (0 Bft) W-SW 247 0,000 mm 4,9 C 10,6 C 1,6 km/h (1 Bft) 100,00 %
18.09.2019 07:02 21,9 C 10,6 C 49 % 68 % 1023,3 hPa 0,0 l/m 0,0 km/h (0 Bft) W-SW 247 0,000 mm 4,9 C 10,6 C 1,6 km/h (1 Bft) 100,00 %
18.09.2019 07:01 21,9 C 10,6 C 49 % 68 % 1023,4 hPa 0,0 l/m 3,2 km/h (1 Bft) W-SW 247 0,000 mm 4,9 C 10,6 C 4,8 km/h (1 Bft) 95,65 %
18.09.2019 07:00 21,9 C 10,6 C 49 % 68 % 1023,4 hPa 0,0 l/m 3,2 km/h (1 Bft) W-NW 292 0,000 mm 4,9 C 10,6 C 4,8 km/h (1 Bft) 100,00 %
18.09.2019 06:59 21,9 C 10,7 C 49 % 68 % 1023,3 hPa 0,0 l/m 3,2 km/h (1 Bft) W 270 0,000 mm 5,0 C 10,7 C 3,2 km/h (1 Bft) 100,00 %
18.09.2019 06:58 21,9 C 10,6 C 49 % 68 % 1023,3 hPa 0,0 l/m 3,2 km/h (1 Bft) W 270 0,000 mm 4,9 C 10,6 C 6,4 km/h (2 Bft) 95,65 %
18.09.2019 06:57 22,0 C 10,7 C 49 % 68 % 1023,3 hPa 0,0 l/m 3,2 km/h (1 Bft) W-SW 247 0,000 mm 5,0 C 10,7 C 4,8 km/h (1 Bft) 100,00 %
18.09.2019 06:56 21,9 C 10,7 C 49 % 68 % 1023,2 hPa 0,0 l/m 1,6 km/h (1 Bft) W-SW 247 0,000 mm 5,0 C 10,7 C 3,2 km/h (1 Bft) 100,00 %
18.09.2019 06:55 21,9 C 10,7 C 49 % 68 % 1023,2 hPa 0,0 l/m 1,6 km/h (1 Bft) SW 225 0,000 mm 5,0 C 10,7 C 4,8 km/h (1 Bft) 100,00 %
18.09.2019 06:54 21,9 C 10,7 C 49 % 68 % 1023,3 hPa 0,0 l/m 1,6 km/h (1 Bft) W 270 0,000 mm 5,0 C 10,7 C 3,2 km/h (1 Bft) 100,00 %
18.09.2019 06:53 22,0 C 10,7 C 48 % 67 % 1023,3 hPa 0,0 l/m 3,2 km/h (1 Bft) W-SW 247 0,000 mm 4,8 C 10,7 C 4,8 km/h (1 Bft) 100,00 %
18.09.2019 06:52 22,0 C 10,7 C 48 % 68 % 1023,3 hPa 0,0 l/m 1,6 km/h (1 Bft) W-SW 247 0,000 mm 5,0 C 10,7 C 3,2 km/h (1 Bft) 100,00 %
18.09.2019 06:51 22,0 C 10,7 C 48 % 68 % 1023,2 hPa 0,0 l/m 3,2 km/h (1 Bft) SW 225 0,000 mm 5,0 C 10,7 C 6,4 km/h (2 Bft) 100,00 %
18.09.2019 06:50 22,1 C 10,7 C 48 % 68 % 1023,3 hPa 0,0 l/m 3,2 km/h (1 Bft) W-SW 247 0,000 mm 5,0 C 10,7 C 4,8 km/h (1 Bft) 100,00 %
18.09.2019 06:49 22,0 C 10,7 C 48 % 68 % 1023,2 hPa 0,0 l/m 1,6 km/h (1 Bft) W-SW 247 0,000 mm 5,0 C 10,7 C 3,2 km/h (1 Bft) 100,00 %
18.09.2019 06:48 22,1 C 10,7 C 48 % 68 % 1023,2 hPa 0,0 l/m 1,6 km/h (1 Bft) W-SW 247 0,000 mm 5,0 C 10,7 C 3,2 km/h (1 Bft) 100,00 %
18.09.2019 06:47 22,1 C 10,7 C 49 % 68 % 1023,2 hPa 0,0 l/m 1,6 km/h (1 Bft) W-SW 247 0,000 mm 5,0 C 10,7 C 3,2 km/h (1 Bft) 100,00 %
18.09.2019 06:46 22,1 C 10,7 C 50 % 68 % 1023,2 hPa 0,0 l/m 1,6 km/h (1 Bft) W-SW 247 0,000 mm 5,0 C 10,7 C 3,2 km/h (1 Bft) 100,00 %
18.09.2019 06:45 22,0 C 10,8 C 49 % 68 % 1023,2 hPa 0,0 l/m 1,6 km/h (1 Bft) W-SW 247 0,000 mm 5,1 C 10,8 C 4,8 km/h (1 Bft) 100,00 %
18.09.2019 06:44 22,0 C 10,7 C 49 % 68 % 1023,2 hPa 0,0 l/m 1,6 km/h (1 Bft) W-SW 247 0,000 mm 5,0 C 10,7 C 1,6 km/h (1 Bft) 100,00 %
18.09.2019 06:43 22,0 C 10,7 C 49 % 68 % 1023,2 hPa 0,0 l/m 3,2 km/h (1 Bft) W 270 0,000 mm 5,0 C 10,7 C 4,8 km/h (1 Bft) 95,65 %
18.09.2019 06:42 21,9 C 10,8 C 49 % 68 % 1023,2 hPa 0,0 l/m 3,2 km/h (1 Bft) W 270 0,000 mm 5,1 C 10,8 C 3,2 km/h (1 Bft) 100,00 %
18.09.2019 06:41 22,0 C 10,7 C 49 % 68 % 1023,2 hPa 0,0 l/m 4,8 km/h (1 Bft) S-SW 202 0,000 mm 5,0 C 10,7 C 6,4 km/h (2 Bft) 95,65 %
18.09.2019 06:40 21,9 C 10,8 C 49 % 68 % 1023,2 hPa 0,0 l/m 1,6 km/h (1 Bft) W 270 0,000 mm 5,1 C 10,8 C 4,8 km/h (1 Bft) 100,00 %
18.09.2019 06:39 21,9 C 10,7 C 49 % 68 % 1023,2 hPa 0,0 l/m 1,6 km/h (1 Bft) W-SW 247 0,000 mm 5,0 C 10,7 C 4,8 km/h (1 Bft) 95,65 %
18.09.2019 06:38 21,9 C 10,8 C 49 % 68 % 1023,1 hPa 0,0 l/m 1,6 km/h (1 Bft) W-SW 247 0,000 mm 5,1 C 10,8 C 3,2 km/h (1 Bft) 100,00 %
18.09.2019 06:37 21,9 C 10,8 C 49 % 68 % 1023,1 hPa 0,0 l/m 3,2 km/h (1 Bft) W 270 0,000 mm 5,1 C 10,8 C 8,0 km/h (2 Bft) 100,00 %
18.09.2019 06:36 21,8 C 10,8 C 49 % 68 % 1023,1 hPa 0,0 l/m 4,8 km/h (1 Bft) W-SW 247 0,000 mm 5,1 C 10,8 C 6,4 km/h (2 Bft) 100,00 %
18.09.2019 06:35 21,9 C 10,7 C 49 % 68 % 1023,1 hPa 0,0 l/m 3,2 km/h (1 Bft) W-SW 247 0,000 mm 5,0 C 10,7 C 4,8 km/h (1 Bft) 100,00 %
18.09.2019 06:34 21,8 C 10,8 C 49 % 68 % 1023,1 hPa 0,0 l/m 3,2 km/h (1 Bft) SW 225 0,000 mm 5,1 C 10,8 C 4,8 km/h (1 Bft) 95,65 %
18.09.2019 06:33 21,8 C 10,8 C 49 % 68 % 1023,1 hPa 0,0 l/m 3,2 km/h (1 Bft) W-SW 247 0,000 mm 5,1 C 10,8 C 4,8 km/h (1 Bft) 100,00 %
18.09.2019 06:32 21,8 C 10,8 C 49 % 68 % 1023,1 hPa 0,0 l/m 3,2 km/h (1 Bft) W-SW 247 0,000 mm 5,1 C 10,8 C 4,8 km/h (1 Bft) 100,00 %
18.09.2019 06:31 21,8 C 10,8 C 49 % 68 % 1023,0 hPa 0,0 l/m 1,6 km/h (1 Bft) W-SW 247 0,000 mm 5,1 C 10,8 C 3,2 km/h (1 Bft) 100,00 %
18.09.2019 06:30 21,8 C 10,8 C 49 % 68 % 1023,0 hPa 0,0 l/m 1,6 km/h (1 Bft) W-SW 247 0,000 mm 5,1 C 10,8 C 3,2 km/h (1 Bft) 100,00 %
18.09.2019 06:29 21,8 C 10,8 C 49 % 68 % 1023,0 hPa 0,0 l/m 1,6 km/h (1 Bft) W-SW 247 0,000 mm 5,1 C 10,8 C 3,2 km/h (1 Bft) 100,00 %
18.09.2019 06:28 21,8 C 10,8 C 49 % 68 % 1023,0 hPa 0,0 l/m 3,2 km/h (1 Bft) W-SW 247 0,000 mm 5,1 C 10,8 C 4,8 km/h (1 Bft) 95,65 %
18.09.2019 06:27 21,8 C 10,8 C 49 % 68 % 1023,1 hPa 0,0 l/m 3,2 km/h (1 Bft) W-SW 247 0,000 mm 5,1 C 10,8 C 6,4 km/h (2 Bft) 100,00 %
18.09.2019 06:26 21,7 C 10,8 C 49 % 69 % 1023,0 hPa 0,0 l/m 3,2 km/h (1 Bft) W-SW 247 0,000 mm 5,3 C 10,8 C 6,4 km/h (2 Bft) 100,00 %
18.09.2019 06:25 21,8 C 10,8 C 49 % 68 % 1023,0 hPa 0,0 l/m 3,2 km/h (1 Bft) W 270 0,000 mm 5,1 C 10,8 C 4,8 km/h (1 Bft) 100,00 %
18.09.2019 06:24 21,7 C 10,8 C 49 % 68 % 1023,0 hPa 0,0 l/m 3,2 km/h (1 Bft) S-SW 202 0,000 mm 5,1 C 10,8 C 4,8 km/h (1 Bft) 95,65 %
18.09.2019 06:23 21,7 C 10,8 C 49 % 68 % 1023,0 hPa 0,0 l/m 3,2 km/h (1 Bft) W-SW 247 0,000 mm 5,1 C 10,8 C 6,4 km/h (2 Bft) 95,65 %
18.09.2019 06:22 21,7 C 10,8 C 49 % 69 % 1022,9 hPa 0,0 l/m 3,2 km/h (1 Bft) W 270 0,000 mm 5,3 C 10,8 C 6,4 km/h (2 Bft) 100,00 %
18.09.2019 06:21 21,7 C 10,8 C 49 % 68 % 1022,9 hPa 0,0 l/m 1,6 km/h (1 Bft) W-SW 247 0,000 mm 5,1 C 10,8 C 4,8 km/h (1 Bft) 95,65 %
18.09.2019 06:20 21,7 C 10,8 C 49 % 68 % 1022,9 hPa 0,0 l/m 3,2 km/h (1 Bft) W-SW 247 0,000 mm 5,1 C 10,8 C 4,8 km/h (1 Bft) 100,00 %
18.09.2019 06:19 21,7 C 10,8 C 49 % 68 % 1022,9 hPa 0,0 l/m 1,6 km/h (1 Bft) W-SW 247 0,000 mm 5,1 C 10,8 C 3,2 km/h (1 Bft) 100,00 %
18.09.2019 06:18 21,7 C 10,8 C 49 % 68 % 1022,9 hPa 0,0 l/m 0,0 km/h (0 Bft) W-SW 247 0,000 mm 5,1 C 10,8 C 3,2 km/h (1 Bft) 100,00 %
18.09.2019 06:17 21,6 C 10,8 C 49 % 68 % 1022,9 hPa 0,0 l/m 1,6 km/h (1 Bft) W-SW 247 0,000 mm 5,1 C 10,8 C 3,2 km/h (1 Bft) 95,65 %
18.09.2019 06:16 21,7 C 10,8 C 49 % 68 % 1022,9 hPa 0,0 l/m 3,2 km/h (1 Bft) W-SW 247 0,000 mm 5,1 C 10,8 C 8,0 km/h (2 Bft) 100,00 %
18.09.2019 06:15 21,6 C 10,8 C 49 % 68 % 1022,8 hPa 0,0 l/m 1,6 km/h (1 Bft) W-SW 247 0,000 mm 5,1 C 10,8 C 6,4 km/h (2 Bft) 100,00 %
18.09.2019 06:14 21,6 C 10,8 C 50 % 68 % 1022,9 hPa 0,0 l/m 3,2 km/h (1 Bft) W-SW 247 0,000 mm 5,1 C 10,8 C 4,8 km/h (1 Bft) 100,00 %
18.09.2019 06:13 21,6 C 10,8 C 49 % 69 % 1022,9 hPa 0,0 l/m 3,2 km/h (1 Bft) SW 225 0,000 mm 5,3 C 10,8 C 4,8 km/h (1 Bft) 100,00 %
18.09.2019 06:12 21,6 C 10,8 C 49 % 69 % 1022,9 hPa 0,0 l/m 3,2 km/h (1 Bft) SW 225 0,000 mm 5,3 C 10,8 C 4,8 km/h (1 Bft) 95,65 %
18.09.2019 06:11 21,6 C 10,8 C 49 % 69 % 1022,8 hPa 0,0 l/m 3,2 km/h (1 Bft) W 270 0,000 mm 5,3 C 10,8 C 4,8 km/h (1 Bft) 100,00 %
18.09.2019 06:10 21,7 C 10,8 C 49 % 69 % 1022,9 hPa 0,0 l/m 1,6 km/h (1 Bft) W 270 0,000 mm 5,3 C 10,8 C 4,8 km/h (1 Bft) 100,00 %
18.09.2019 06:09 21,6 C 10,7 C 49 % 69 % 1022,9 hPa 0,0 l/m 4,8 km/h (1 Bft) W 270 0,000 mm 5,2 C 10,7 C 6,4 km/h (2 Bft) 95,65 %
18.09.2019 06:08 21,6 C 10,7 C 49 % 70 % 1022,8 hPa 0,0 l/m 3,2 km/h (1 Bft) W-NW 292 0,000 mm 5,5 C 10,7 C 6,4 km/h (2 Bft) 100,00 %
18.09.2019 06:07 21,6 C 10,7 C 49 % 70 % 1022,8 hPa 0,0 l/m 3,2 km/h (1 Bft) W-SW 247 0,000 mm 5,5 C 10,7 C 3,2 km/h (1 Bft) 95,65 %
18.09.2019 06:06 21,6 C 10,7 C 49 % 70 % 1022,8 hPa 0,0 l/m 1,6 km/h (1 Bft) W-SW 247 0,000 mm 5,5 C 10,7 C 3,2 km/h (1 Bft) 100,00 %
18.09.2019 06:05 21,6 C 10,7 C 49 % 70 % 1022,8 hPa 0,0 l/m 1,6 km/h (1 Bft) W-SW 247 0,000 mm 5,5 C 10,7 C 3,2 km/h (1 Bft) 91,30 %
18.09.2019 06:04 21,6 C 10,7 C 49 % 70 % 1022,8 hPa 0,0 l/m 1,6 km/h (1 Bft) W 270 0,000 mm 5,5 C 10,7 C 3,2 km/h (1 Bft) 95,65 %
18.09.2019 06:03 21,6 C 10,7 C 49 % 70 % 1022,8 hPa 0,0 l/m 3,2 km/h (1 Bft) W 270 0,000 mm 5,5 C 10,7 C 4,8 km/h (1 Bft) 100,00 %
18.09.2019 06:02 21,6 C 10,7 C 49 % 70 % 1022,8 hPa 0,0 l/m 1,6 km/h (1 Bft) W 270 0,000 mm 5,5 C 10,7 C 4,8 km/h (1 Bft) 100,00 %
18.09.2019 06:01 21,6 C 10,8 C 49 % 71 % 1022,8 hPa 0,0 l/m 0,0 km/h (0 Bft) W 270 0,000 mm 5,8 C 10,8 C 4,8 km/h (1 Bft) 100,00 %
18.09.2019 06:00 21,6 C 10,8 C 49 % 70 % 1022,7 hPa 0,0 l/m 0,0 km/h (0 Bft) N 0 0,000 mm 5,6 C 10,8 C 0,0 km/h (0 Bft) 100,00 %
18.09.2019 05:59 21,6 C 10,8 C 49 % 70 % 1022,8 hPa 0,0 l/m 0,0 km/h (0 Bft) N 0 0,000 mm 5,6 C 10,8 C 0,0 km/h (0 Bft) 100,00 %
18.09.2019 05:58 21,6 C 10,8 C 49 % 69 % 1022,8 hPa 0,0 l/m 0,0 km/h (0 Bft) N 0 0,000 mm 5,3 C 10,8 C 0,0 km/h (0 Bft) 100,00 %
18.09.2019 05:57 21,6 C 10,8 C 49 % 69 % 1022,8 hPa 0,0 l/m 1,6 km/h (1 Bft) W 270 0,000 mm 5,3 C 10,8 C 3,2 km/h (1 Bft) 100,00 %
18.09.2019 05:56 21,6 C 10,8 C 49 % 69 % 1022,8 hPa 0,0 l/m 4,8 km/h (1 Bft) W 270 0,000 mm 5,3 C 10,8 C 6,4 km/h (2 Bft) 100,00 %
18.09.2019 05:55 21,6 C 10,8 C 49 % 69 % 1022,7 hPa 0,0 l/m 4,8 km/h (1 Bft) SW 225 0,000 mm 5,3 C 10,8 C 6,4 km/h (2 Bft) 100,00 %
18.09.2019 05:54 21,6 C 10,8 C 49 % 69 % 1022,7 hPa 0,0 l/m 3,2 km/h (1 Bft) W 270 0,000 mm 5,3 C 10,8 C 8,0 km/h (2 Bft) 100,00 %
18.09.2019 05:53 21,6 C 10,8 C 49 % 70 % 1022,7 hPa 0,0 l/m 3,2 km/h (1 Bft) SW 225 0,000 mm 5,6 C 10,8 C 6,4 km/h (2 Bft) 95,65 %
18.09.2019 05:52 21,6 C 10,8 C 49 % 70 % 1022,7 hPa 0,0 l/m 4,8 km/h (1 Bft) W 270 0,000 mm 5,6 C 10,8 C 6,4 km/h (2 Bft) 100,00 %
18.09.2019 05:51 21,6 C 10,8 C 49 % 70 % 1022,7 hPa 0,0 l/m 3,2 km/h (1 Bft) W-NW 292 0,000 mm 5,6 C 10,8 C 6,4 km/h (2 Bft) 100,00 %
18.09.2019 05:50 21,6 C 10,8 C 49 % 70 % 1022,7 hPa 0,0 l/m 3,2 km/h (1 Bft) SW 225 0,000 mm 5,6 C 10,8 C 3,2 km/h (1 Bft) 100,00 %
18.09.2019 05:49 21,6 C 10,8 C 49 % 70 % 1022,7 hPa 0,0 l/m 1,6 km/h (1 Bft) W-SW 247 0,000 mm 5,6 C 10,8 C 3,2 km/h (1 Bft) 100,00 %
18.09.2019 05:48 21,6 C 10,7 C 49 % 70 % 1022,7 hPa 0,0 l/m 3,2 km/h (1 Bft) W 270 0,000 mm 5,5 C 10,7 C 3,2 km/h (1 Bft) 100,00 %
18.09.2019 05:47 21,6 C 10,7 C 49 % 70 % 1022,7 hPa 0,0 l/m 1,6 km/h (1 Bft) W 270 0,000 mm 5,5 C 10,7 C 6,4 km/h (2 Bft) 100,00 %
18.09.2019 05:46 21,6 C 10,7 C 49 % 70 % 1022,7 hPa 0,0 l/m 3,2 km/h (1 Bft) W 270 0,000 mm 5,5 C 10,7 C 4,8 km/h (1 Bft) 100,00 %
18.09.2019 05:45 21,6 C 10,7 C 49 % 70 % 1022,7 hPa 0,0 l/m 3,2 km/h (1 Bft) W-SW 247 0,000 mm 5,5 C 10,7 C 4,8 km/h (1 Bft) 95,65 %
18.09.2019 05:44 21,6 C 10,7 C 49 % 70 % 1022,6 hPa 0,0 l/m 1,6 km/h (1 Bft) W 270 0,000 mm 5,5 C 10,7 C 4,8 km/h (1 Bft) 100,00 %
18.09.2019 05:43 21,6 C 10,7 C 49 % 71 % 1022,7 hPa 0,0 l/m 1,6 km/h (1 Bft) W-SW 247 0,000 mm 5,7 C 10,7 C 3,2 km/h (1 Bft) 100,00 %
18.09.2019 05:42 21,6 C 10,7 C 49 % 71 % 1022,6 hPa 0,0 l/m 1,6 km/h (1 Bft) W 270 0,000 mm 5,7 C 10,7 C 1,6 km/h (1 Bft) 100,00 %
18.09.2019 05:41 21,6 C 10,7 C 49 % 71 % 1022,6 hPa 0,0 l/m 1,6 km/h (1 Bft) W-SW 247 0,000 mm 5,7 C 10,7 C 1,6 km/h (1 Bft) 95,65 %
18.09.2019 05:40 21,6 C 10,7 C 49 % 70 % 1022,5 hPa 0,0 l/m 1,6 km/h (1 Bft) W-SW 247 0,000 mm 5,5 C 10,7 C 3,2 km/h (1 Bft) 100,00 %
18.09.2019 05:39 21,6 C 10,7 C 49 % 71 % 1022,5 hPa 0,0 l/m 1,6 km/h (1 Bft) W 270 0,000 mm 5,7 C 10,7 C 4,8 km/h (1 Bft) 100,00 %
18.09.2019 05:38 21,6 C 10,7 C 49 % 71 % 1022,5 hPa 0,0 l/m 1,6 km/h (1 Bft) W-SW 247 0,000 mm 5,7 C 10,7 C 3,2 km/h (1 Bft) 100,00 %
18.09.2019 05:37 21,6 C 10,8 C 49 % 70 % 1022,5 hPa 0,0 l/m 1,6 km/h (1 Bft) W-SW 247 0,000 mm 5,6 C 10,8 C 3,2 km/h (1 Bft) 100,00 %
18.09.2019 05:36 21,6 C 10,8 C 49 % 70 % 1022,5 hPa 0,0 l/m 1,6 km/h (1 Bft) W 270 0,000 mm 5,6 C 10,8 C 3,2 km/h (1 Bft) 100,00 %
18.09.2019 05:35 21,6 C 10,7 C 49 % 70 % 1022,5 hPa 0,0 l/m 1,6 km/h (1 Bft) W 270 0,000 mm 5,5 C 10,7 C 4,8 km/h (1 Bft) 100,00 %
18.09.2019 05:34 21,6 C 10,8 C 49 % 70 % 1022,5 hPa 0,0 l/m 1,6 km/h (1 Bft) W-SW 247 0,000 mm 5,6 C 10,8 C 4,8 km/h (1 Bft) 100,00 %
18.09.2019 05:33 21,6 C 10,7 C 49 % 70 % 1022,5 hPa 0,0 l/m 3,2 km/h (1 Bft) W-SW 247 0,000 mm 5,5 C 10,7 C 3,2 km/h (1 Bft) 100,00 %
18.09.2019 05:32 21,6 C 10,8 C 49 % 70 % 1022,4 hPa 0,0 l/m 3,2 km/h (1 Bft) W 270 0,000 mm 5,6 C 10,8 C 4,8 km/h (1 Bft) 100,00 %
18.09.2019 05:31 21,6 C 10,7 C 49 % 70 % 1022,5 hPa 0,0 l/m 3,2 km/h (1 Bft) W-SW 247 0,000 mm 5,5 C 10,7 C 4,8 km/h (1 Bft) 100,00 %
18.09.2019 05:30 21,6 C 10,8 C 49 % 70 % 1022,5 hPa 0,0 l/m 3,2 km/h (1 Bft) W-SW 247 0,000 mm 5,6 C 10,8 C 4,8 km/h (1 Bft) 100,00 %
18.09.2019 05:29 21,6 C 10,7 C 49 % 70 % 1022,5 hPa 0,0 l/m 1,6 km/h (1 Bft) W 270 0,000 mm 5,5 C 10,7 C 3,2 km/h (1 Bft) 100,00 %
18.09.2019 05:28 21,6 C 10,7 C 49 % 70 % 1022,5 hPa 0,0 l/m 1,6 km/h (1 Bft) W 270 0,000 mm 5,5 C 10,7 C 4,8 km/h (1 Bft) 100,00 %
18.09.2019 05:27 21,6 C 10,7 C 49 % 70 % 1022,5 hPa 0,0 l/m 1,6 km/h (1 Bft) W-SW 247 0,000 mm 5,5 C 10,7 C 3,2 km/h (1 Bft) 95,65 %
18.09.2019 05:26 21,6 C 10,7 C 49 % 70 % 1022,5 hPa 0,0 l/m 1,6 km/h (1 Bft) W-SW 247 0,000 mm 5,5 C 10,7 C 3,2 km/h (1 Bft) 100,00 %
18.09.2019 05:25 21,6 C 10,6 C 49 % 70 % 1022,5 hPa 0,0 l/m 1,6 km/h (1 Bft) W 270 0,000 mm 5,4 C 10,6 C 4,8 km/h (1 Bft) 100,00 %
18.09.2019 05:24 21,6 C 10,6 C 49 % 70 % 1022,5 hPa 0,0 l/m 3,2 km/h (1 Bft) W-SW 247 0,000 mm 5,4 C 10,6 C 4,8 km/h (1 Bft) 100,00 %
18.09.2019 05:23 21,6 C 10,5 C 49 % 71 % 1022,4 hPa 0,0 l/m 1,6 km/h (1 Bft) W-SW 247 0,000 mm 5,5 C 10,5 C 3,2 km/h (1 Bft) 100,00 %
18.09.2019 05:22 21,6 C 10,5 C 49 % 70 % 1022,4 hPa 0,0 l/m 0,0 km/h (0 Bft) W-SW 247 0,000 mm 5,3 C 10,5 C 1,6 km/h (1 Bft) 100,00 %
18.09.2019 05:21 21,6 C 10,6 C 49 % 70 % 1022,4 hPa 0,0 l/m 0,0 km/h (0 Bft) W-SW 247 0,000 mm 5,4 C 10,6 C 1,6 km/h (1 Bft) 100,00 %
18.09.2019 05:20 21,6 C 10,6 C 49 % 70 % 1022,3 hPa 0,0 l/m 0,0 km/h (0 Bft) W-SW 247 0,000 mm 5,4 C 10,6 C 1,6 km/h (1 Bft) 100,00 %
18.09.2019 05:19 21,6 C 10,6 C 49 % 70 % 1022,3 hPa 0,0 l/m 0,0 km/h (0 Bft) W-SW 247 0,000 mm 5,4 C 10,6 C 1,6 km/h (1 Bft) 95,65 %
18.09.2019 05:18 21,6 C 10,6 C 49 % 70 % 1022,3 hPa 0,0 l/m 3,2 km/h (1 Bft) W-SW 247 0,000 mm 5,4 C 10,6 C 3,2 km/h (1 Bft) 100,00 %
18.09.2019 05:17 21,6 C 10,6 C 49 % 70 % 1022,2 hPa 0,0 l/m 0,0 km/h (0 Bft) W-SW 247 0,000 mm 5,4 C 10,6 C 3,2 km/h (1 Bft) 100,00 %
18.09.2019 05:16 21,6 C 10,6 C 49 % 70 % 1022,1 hPa 0,0 l/m 0,0 km/h (0 Bft) W-SW 247 0,000 mm 5,4 C 10,6 C 1,6 km/h (1 Bft) 100,00 %
18.09.2019 05:15 21,6 C 10,6 C 49 % 70 % 1022,2 hPa 0,0 l/m 0,0 km/h (0 Bft) W-SW 247 0,000 mm 5,4 C 10,6 C 1,6 km/h (1 Bft) 100,00 %
18.09.2019 05:14 21,6 C 10,6 C 49 % 70 % 1022,1 hPa 0,0 l/m 0,0 km/h (0 Bft) W-SW 247 0,000 mm 5,4 C 10,6 C 1,6 km/h (1 Bft) 100,00 %
18.09.2019 05:13 21,6 C 10,6 C 49 % 69 % 1022,2 hPa 0,0 l/m 1,6 km/h (1 Bft) W-SW 247 0,000 mm 5,2 C 10,6 C 3,2 km/h (1 Bft) 100,00 %
18.09.2019 05:12 21,6 C 10,6 C 49 % 69 % 1022,1 hPa 0,0 l/m 1,6 km/h (1 Bft) SW 225 0,000 mm 5,2 C 10,6 C 3,2 km/h (1 Bft) 100,00 %
18.09.2019 05:11 21,6 C 10,6 C 49 % 69 % 1022,1 hPa 0,0 l/m 1,6 km/h (1 Bft) SW 225 0,000 mm 5,2 C 10,6 C 3,2 km/h (1 Bft) 95,65 %
18.09.2019 05:10 21,6 C 10,7 C 49 % 69 % 1022,1 hPa 0,0 l/m 1,6 km/h (1 Bft) W-SW 247 0,000 mm 5,2 C 10,7 C 3,2 km/h (1 Bft) 100,00 %
18.09.2019 05:09 21,6 C 10,7 C 49 % 69 % 1022,1 hPa 0,0 l/m 1,6 km/h (1 Bft) W 270 0,000 mm 5,2 C 10,7 C 3,2 km/h (1 Bft) 100,00 %
18.09.2019 05:08 21,6 C 10,7 C 49 % 69 % 1022,1 hPa 0,0 l/m 1,6 km/h (1 Bft) SW 225 0,000 mm 5,2 C 10,7 C 3,2 km/h (1 Bft) 100,00 %
18.09.2019 05:07 21,6 C 10,8 C 49 % 69 % 1022,1 hPa 0,0 l/m 1,6 km/h (1 Bft) SW 225 0,000 mm 5,3 C 10,8 C 3,2 km/h (1 Bft) 95,65 %
18.09.2019 05:06 21,6 C 10,8 C 49 % 68 % 1022,1 hPa 0,0 l/m 1,6 km/h (1 Bft) W-SW 247 0,000 mm 5,1 C 10,8 C 3,2 km/h (1 Bft) 100,00 %
18.09.2019 05:05 21,6 C 10,8 C 49 % 68 % 1022,0 hPa 0,0 l/m 3,2 km/h (1 Bft) W-SW 247 0,000 mm 5,1 C 10,8 C 6,4 km/h (2 Bft) 100,00 %
18.09.2019 05:04 21,6 C 10,8 C 49 % 68 % 1022,0 hPa 0,0 l/m 6,4 km/h (2 Bft) SW 225 0,000 mm 5,1 C 10,8 C 11,3 km/h (2 Bft) 100,00 %
18.09.2019 05:03 21,6 C 10,8 C 49 % 68 % 1022,0 hPa 0,0 l/m 3,2 km/h (1 Bft) W 270 0,000 mm 5,1 C 10,8 C 6,4 km/h (2 Bft) 100,00 %
18.09.2019 05:02 21,6 C 10,8 C 49 % 68 % 1022,0 hPa 0,0 l/m 3,2 km/h (1 Bft) W-SW 247 0,000 mm 5,1 C 10,8 C 4,8 km/h (1 Bft) 100,00 %
18.09.2019 05:01 21,6 C 10,9 C 49 % 68 % 1022,0 hPa 0,0 l/m 1,6 km/h (1 Bft) W-SW 247 0,000 mm 5,2 C 10,9 C 3,2 km/h (1 Bft) 100,00 %
18.09.2019 05:00 21,6 C 10,9 C 49 % 68 % 1022,0 hPa 0,0 l/m 1,6 km/h (1 Bft) W 270 0,000 mm 5,2 C 10,9 C 1,6 km/h (1 Bft) 100,00 %
18.09.2019 04:59 21,6 C 10,9 C 49 % 68 % 1022,0 hPa 0,0 l/m 1,6 km/h (1 Bft) W 270 0,000 mm 5,2 C 10,9 C 3,2 km/h (1 Bft) 100,00 %
18.09.2019 04:58 21,6 C 10,9 C 49 % 68 % 1022,0 hPa 0,0 l/m 3,2 km/h (1 Bft) W 270 0,000 mm 5,2 C 10,9 C 4,8 km/h (1 Bft) 100,00 %
18.09.2019 04:57 21,6 C 11,0 C 49 % 68 % 1022,0 hPa 0,0 l/m 3,2 km/h (1 Bft) W-SW 247 0,000 mm 5,3 C 11,0 C 4,8 km/h (1 Bft) 100,00 %
18.09.2019 04:56 21,6 C 11,0 C 49 % 68 % 1022,0 hPa 0,0 l/m 3,2 km/h (1 Bft) W-SW 247 0,000 mm 5,3 C 11,0 C 8,0 km/h (2 Bft) 100,00 %
18.09.2019 04:55 21,6 C 11,0 C 49 % 68 % 1021,9 hPa 0,0 l/m 3,2 km/h (1 Bft) W-SW 247 0,000 mm 5,3 C 11,0 C 6,4 km/h (2 Bft) 100,00 %
18.09.2019 04:54 21,6 C 10,9 C 49 % 68 % 1021,9 hPa 0,0 l/m 4,8 km/h (1 Bft) W-SW 247 0,000 mm 5,2 C 10,9 C 6,4 km/h (2 Bft) 95,65 %
18.09.2019 04:53 21,6 C 11,0 C 49 % 68 % 1021,9 hPa 0,0 l/m 4,8 km/h (1 Bft) W-SW 247 0,000 mm 5,3 C 11,0 C 9,7 km/h (2 Bft) 100,00 %
18.09.2019 04:52 21,6 C 11,0 C 49 % 68 % 1021,9 hPa 0,0 l/m 3,2 km/h (1 Bft) W-SW 247 0,000 mm 5,3 C 11,0 C 4,8 km/h (1 Bft) 100,00 %
18.09.2019 04:51 21,6 C 11,1 C 49 % 68 % 1021,9 hPa 0,0 l/m 3,2 km/h (1 Bft) W 270 0,000 mm 5,4 C 11,1 C 9,7 km/h (2 Bft) 100,00 %
18.09.2019 04:50 21,6 C 11,1 C 49 % 68 % 1021,9 hPa 0,0 l/m 3,2 km/h (1 Bft) W 270 0,000 mm 5,4 C 11,1 C 6,4 km/h (2 Bft) 100,00 %
18.09.2019 04:49 21,6 C 11,1 C 49 % 68 % 1021,9 hPa 0,0 l/m 1,6 km/h (1 Bft) W-SW 247 0,000 mm 5,4 C 11,1 C 3,2 km/h (1 Bft) 100,00 %
18.09.2019 04:48 21,6 C 11,1 C 49 % 68 % 1021,8 hPa 0,0 l/m 3,2 km/h (1 Bft) W-SW 247 0,000 mm 5,4 C 11,1 C 4,8 km/h (1 Bft) 95,65 %
18.09.2019 04:47 21,6 C 11,2 C 49 % 68 % 1021,8 hPa 0,0 l/m 4,8 km/h (1 Bft) W 270 0,000 mm 5,5 C 11,2 C 8,0 km/h (2 Bft) 100,00 %
18.09.2019 04:46 21,6 C 11,2 C 49 % 67 % 1021,8 hPa 0,0 l/m 3,2 km/h (1 Bft) W 270 0,000 mm 5,3 C 11,2 C 8,0 km/h (2 Bft) 100,00 %
18.09.2019 04:45 21,6 C 11,2 C 49 % 67 % 1021,8 hPa 0,0 l/m 3,2 km/h (1 Bft) W-SW 247 0,000 mm 5,3 C 11,2 C 4,8 km/h (1 Bft) 95,65 %
18.09.2019 04:44 21,6 C 11,3 C 49 % 67 % 1021,9 hPa 0,0 l/m 3,2 km/h (1 Bft) W-SW 247 0,000 mm 5,4 C 11,3 C 4,8 km/h (1 Bft) 100,00 %
18.09.2019 04:43 21,6 C 11,3 C 49 % 67 % 1021,9 hPa 0,0 l/m 3,2 km/h (1 Bft) SW 225 0,000 mm 5,4 C 11,3 C 4,8 km/h (1 Bft) 100,00 %
18.09.2019 04:42 21,6 C 11,3 C 49 % 67 % 1021,8 hPa 0,0 l/m 4,8 km/h (1 Bft) W 270 0,000 mm 5,4 C 11,3 C 6,4 km/h (2 Bft) 100,00 %
18.09.2019 04:41 21,6 C 11,4 C 49 % 67 % 1021,9 hPa 0,0 l/m 4,8 km/h (1 Bft) W 270 0,000 mm 5,5 C 11,4 C 11,3 km/h (2 Bft) 100,00 %
18.09.2019 04:40 21,6 C 11,4 C 49 % 67 % 1021,8 hPa 0,0 l/m 4,8 km/h (1 Bft) W 270 0,000 mm 5,5 C 11,4 C 8,0 km/h (2 Bft) 100,00 %
18.09.2019 04:39 21,6 C 11,4 C 49 % 67 % 1021,8 hPa 0,0 l/m 3,2 km/h (1 Bft) W-SW 247 0,000 mm 5,5 C 11,4 C 6,4 km/h (2 Bft) 100,00 %
18.09.2019 04:38 21,6 C 11,4 C 49 % 67 % 1021,9 hPa 0,0 l/m 3,2 km/h (1 Bft) W-SW 247 0,000 mm 5,5 C 11,4 C 6,4 km/h (2 Bft) 100,00 %
18.09.2019 04:37 21,7 C 11,4 C 49 % 67 % 1021,8 hPa 0,0 l/m 4,8 km/h (1 Bft) W-SW 247 0,000 mm 5,5 C 11,4 C 9,7 km/h (2 Bft) 100,00 %
18.09.2019 04:36 21,7 C 11,4 C 49 % 67 % 1021,9 hPa 0,0 l/m 3,2 km/h (1 Bft) W 270 0,000 mm 5,5 C 11,4 C 8,0 km/h (2 Bft) 100,00 %
18.09.2019 04:35 21,7 C 11,5 C 49 % 67 % 1021,8 hPa 0,0 l/m 6,4 km/h (2 Bft) W-SW 247 0,000 mm 5,6 C 11,5 C 11,3 km/h (2 Bft) 100,00 %
18.09.2019 04:34 21,6 C 11,5 C 49 % 67 % 1021,8 hPa 0,0 l/m 4,8 km/h (1 Bft) SW 225 0,000 mm 5,6 C 11,5 C 8,0 km/h (2 Bft) 100,00 %
18.09.2019 04:33 21,7 C 11,5 C 49 % 67 % 1021,7 hPa 0,0 l/m 6,4 km/h (2 Bft) W-SW 247 0,000 mm 5,6 C 11,5 C 8,0 km/h (2 Bft) 95,65 %
18.09.2019 04:32 21,7 C 11,5 C 49 % 67 % 1021,8 hPa 0,0 l/m 4,8 km/h (1 Bft) SW 225 0,000 mm 5,6 C 11,5 C 11,3 km/h (2 Bft) 100,00 %
18.09.2019 04:31 21,7 C 11,5 C 49 % 67 % 1021,7 hPa 0,0 l/m 6,4 km/h (2 Bft) W 270 0,000 mm 5,6 C 11,5 C 9,7 km/h (2 Bft) 100,00 %
18.09.2019 04:30 21,7 C 11,5 C 49 % 67 % 1021,8 hPa 0,0 l/m 8,0 km/h (2 Bft) W-SW 247 0,000 mm 5,6 C 10,4 C 14,5 km/h (3 Bft) 100,00 %
18.09.2019 04:29 21,6 C 11,5 C 49 % 67 % 1021,8 hPa 0,0 l/m 4,8 km/h (1 Bft) W 270 0,000 mm 5,6 C 11,5 C 9,7 km/h (2 Bft) 100,00 %
18.09.2019 04:28 21,6 C 11,6 C 49 % 67 % 1021,7 hPa 0,0 l/m 4,8 km/h (1 Bft) W-SW 247 0,000 mm 5,7 C 11,6 C 8,0 km/h (2 Bft) 100,00 %
18.09.2019 04:27 21,6 C 11,6 C 49 % 67 % 1021,7 hPa 0,0 l/m 3,2 km/h (1 Bft) W 270 0,000 mm 5,7 C 11,6 C 4,8 km/h (1 Bft) 100,00 %
18.09.2019 04:26 21,6 C 11,7 C 49 % 67 % 1021,7 hPa 0,0 l/m 6,4 km/h (2 Bft) W-NW 292 0,000 mm 5,8 C 11,7 C 11,3 km/h (2 Bft) 100,00 %
18.09.2019 04:25 21,7 C 11,7 C 49 % 67 % 1021,7 hPa 0,0 l/m 4,8 km/h (1 Bft) W-SW 247 0,000 mm 5,8 C 11,7 C 9,7 km/h (2 Bft) 100,00 %
18.09.2019 04:24 21,7 C 11,7 C 49 % 66 % 1021,7 hPa 0,0 l/m 4,8 km/h (1 Bft) W 270 0,000 mm 5,6 C 11,7 C 9,7 km/h (2 Bft) 95,65 %
18.09.2019 04:23 21,7 C 11,8 C 49 % 66 % 1021,7 hPa 0,0 l/m 4,8 km/h (1 Bft) W-SW 247 0,000 mm 5,7 C 11,8 C 9,7 km/h (2 Bft) 100,00 %
18.09.2019 04:22 21,7 C 11,8 C 49 % 66 % 1021,7 hPa 0,0 l/m 6,4 km/h (2 Bft) W 270 0,000 mm 5,7 C 11,8 C 11,3 km/h (2 Bft) 100,00 %
18.09.2019 04:21 21,7 C 11,8 C 49 % 66 % 1021,6 hPa 0,0 l/m 4,8 km/h (1 Bft) W-SW 247 0,000 mm 5,7 C 11,8 C 8,0 km/h (2 Bft) 100,00 %
18.09.2019 04:20 21,7 C 11,8 C 49 % 66 % 1021,6 hPa 0,0 l/m 6,4 km/h (2 Bft) W 270 0,000 mm 5,7 C 11,8 C 9,7 km/h (2 Bft) 100,00 %
18.09.2019 04:19 21,7 C 11,9 C 49 % 66 % 1021,7 hPa 0,0 l/m 6,4 km/h (2 Bft) W 270 0,000 mm 5,8 C 11,9 C 11,3 km/h (2 Bft) 100,00 %
18.09.2019 04:18 21,7 C 11,9 C 49 % 66 % 1021,6 hPa 0,0 l/m 6,4 km/h (2 Bft) W 270 0,000 mm 5,8 C 11,9 C 9,7 km/h (2 Bft) 100,00 %
18.09.2019 04:17 21,7 C 11,9 C 49 % 66 % 1021,6 hPa 0,0 l/m 6,4 km/h (2 Bft) W-SW 247 0,000 mm 5,8 C 11,9 C 11,3 km/h (2 Bft) 100,00 %
18.09.2019 04:16 21,7 C 12,0 C 49 % 66 % 1021,6 hPa 0,0 l/m 6,4 km/h (2 Bft) W-SW 247 0,000 mm 5,8 C 12,0 C 11,3 km/h (2 Bft) 100,00 %
18.09.2019 04:15 21,7 C 12,0 C 49 % 66 % 1021,7 hPa 0,0 l/m 6,4 km/h (2 Bft) W-SW 247 0,000 mm 5,8 C 12,0 C 11,3 km/h (2 Bft) 100,00 %
18.09.2019 04:14 21,7 C 12,0 C 49 % 66 % 1021,7 hPa 0,0 l/m 6,4 km/h (2 Bft) W 270 0,000 mm 5,8 C 12,0 C 12,9 km/h (3 Bft) 100,00 %
18.09.2019 04:13 21,7 C 12,0 C 49 % 66 % 1021,7 hPa 0,0 l/m 4,8 km/h (1 Bft) W 270 0,000 mm 5,8 C 12,0 C 9,7 km/h (2 Bft) 100,00 %
18.09.2019 04:12 21,7 C 12,0 C 49 % 66 % 1021,6 hPa 0,0 l/m 8,0 km/h (2 Bft) W 270 0,000 mm 5,8 C 11,0 C 12,9 km/h (3 Bft) 100,00 %
18.09.2019 04:11 21,7 C 12,0 C 49 % 66 % 1021,7 hPa 0,0 l/m 8,0 km/h (2 Bft) W 270 0,000 mm 5,8 C 11,0 C 11,3 km/h (2 Bft) 95,65 %
18.09.2019 04:10 21,7 C 12,0 C 49 % 66 % 1021,6 hPa 0,0 l/m 6,4 km/h (2 Bft) W-SW 247 0,000 mm 5,8 C 12,0 C 12,9 km/h (3 Bft) 100,00 %
18.09.2019 04:09 21,7 C 12,1 C 50 % 66 % 1021,6 hPa 0,0 l/m 6,4 km/h (2 Bft) W-SW 247 0,000 mm 5,9 C 12,1 C 11,3 km/h (2 Bft) 100,00 %
18.09.2019 04:08 21,7 C 12,1 C 50 % 66 % 1021,6 hPa 0,0 l/m 6,4 km/h (2 Bft) W 270 0,000 mm 5,9 C 12,1 C 9,7 km/h (2 Bft) 100,00 %
18.09.2019 04:07 21,7 C 12,1 C 50 % 66 % 1021,6 hPa 0,0 l/m 6,4 km/h (2 Bft) W 270 0,000 mm 5,9 C 12,1 C 12,9 km/h (3 Bft) 95,65 %
18.09.2019 04:06 21,7 C 12,1 C 50 % 66 % 1021,6 hPa 0,0 l/m 8,0 km/h (2 Bft) W-SW 247 0,000 mm 5,9 C 11,1 C 12,9 km/h (3 Bft) 95,65 %
18.09.2019 04:05 21,7 C 12,1 C 50 % 66 % 1021,6 hPa 0,0 l/m 6,4 km/h (2 Bft) W-SW 247 0,000 mm 5,9 C 12,1 C 11,3 km/h (2 Bft) 100,00 %
18.09.2019 04:04 21,7 C 12,1 C 50 % 66 % 1021,6 hPa 0,0 l/m 4,8 km/h (1 Bft) W 270 0,000 mm 5,9 C 12,1 C 8,0 km/h (2 Bft) 100,00 %
18.09.2019 04:03 21,7 C 12,1 C 50 % 66 % 1021,5 hPa 0,0 l/m 8,0 km/h (2 Bft) W 270 0,000 mm 5,9 C 11,1 C 11,3 km/h (2 Bft) 100,00 %
18.09.2019 04:02 21,7 C 12,1 C 50 % 66 % 1021,6 hPa 0,0 l/m 3,2 km/h (1 Bft) W 270 0,000 mm 5,9 C 12,1 C 6,4 km/h (2 Bft) 95,65 %
18.09.2019 04:01 21,7 C 12,1 C 50 % 66 % 1021,6 hPa 0,0 l/m 4,8 km/h (1 Bft) W-NW 292 0,000 mm 5,9 C 12,1 C 9,7 km/h (2 Bft) 95,65 %
18.09.2019 04:00 21,7 C 12,1 C 50 % 66 % 1021,5 hPa 0,0 l/m 6,4 km/h (2 Bft) SW 225 0,000 mm 5,9 C 12,1 C 12,9 km/h (3 Bft) 100,00 %
18.09.2019 03:59 21,7 C 12,1 C 50 % 67 % 1021,6 hPa 0,0 l/m 4,8 km/h (1 Bft) W-SW 247 0,000 mm 6,2 C 12,1 C 8,0 km/h (2 Bft) 100,00 %
18.09.2019 03:58 21,7 C 12,1 C 50 % 66 % 1021,6 hPa 0,0 l/m 4,8 km/h (1 Bft) W 270 0,000 mm 5,9 C 12,1 C 9,7 km/h (2 Bft) 100,00 %
18.09.2019 03:57 21,7 C 12,1 C 50 % 66 % 1021,6 hPa 0,0 l/m 6,4 km/h (2 Bft) W-SW 247 0,000 mm 5,9 C 12,1 C 11,3 km/h (2 Bft) 100,00 %
18.09.2019 03:56 21,7 C 12,1 C 50 % 67 % 1021,5 hPa 0,0 l/m 4,8 km/h (1 Bft) SW 225 0,000 mm 6,2 C 12,1 C 9,7 km/h (2 Bft) 100,00 %
18.09.2019 03:55 21,7 C 12,1 C 50 % 67 % 1021,5 hPa 0,0 l/m 4,8 km/h (1 Bft) W-SW 247 0,000 mm 6,2 C 12,1 C 8,0 km/h (2 Bft) 95,65 %
18.09.2019 03:54 21,7 C 12,2 C 50 % 67 % 1021,5 hPa 0,0 l/m 3,2 km/h (1 Bft) SW 225 0,000 mm 6,3 C 12,2 C 4,8 km/h (1 Bft) 100,00 %
18.09.2019 03:53 21,7 C 12,2 C 50 % 67 % 1021,5 hPa 0,0 l/m 6,4 km/h (2 Bft) W 270 0,000 mm 6,3 C 12,2 C 12,9 km/h (3 Bft) 100,00 %
18.09.2019 03:52 21,7 C 12,3 C 50 % 66 % 1021,4 hPa 0,0 l/m 6,4 km/h (2 Bft) W-SW 247 0,000 mm 6,1 C 12,3 C 9,7 km/h (2 Bft) 100,00 %
18.09.2019 03:51 21,7 C 12,3 C 50 % 66 % 1021,4 hPa 0,0 l/m 6,4 km/h (2 Bft) W 270 0,000 mm 6,1 C 12,3 C 11,3 km/h (2 Bft) 100,00 %
18.09.2019 03:50 21,7 C 12,3 C 50 % 66 % 1021,4 hPa 0,0 l/m 4,8 km/h (1 Bft) W-SW 247 0,000 mm 6,1 C 12,3 C 9,7 km/h (2 Bft) 100,00 %
18.09.2019 03:49 21,7 C 12,3 C 50 % 66 % 1021,4 hPa 0,0 l/m 6,4 km/h (2 Bft) W-SW 247 0,000 mm 6,1 C 12,3 C 12,9 km/h (3 Bft) 100,00 %
18.09.2019 03:48 21,7 C 12,3 C 50 % 66 % 1021,4 hPa 0,0 l/m 4,8 km/h (1 Bft) SW 225 0,000 mm 6,1 C 12,3 C 8,0 km/h (2 Bft) 100,00 %
18.09.2019 03:47 21,7 C 12,3 C 50 % 66 % 1021,4 hPa 0,0 l/m 3,2 km/h (1 Bft) W 270 0,000 mm 6,1 C 12,3 C 6,4 km/h (2 Bft) 100,00 %
18.09.2019 03:46 21,7 C 12,3 C 50 % 66 % 1021,3 hPa 0,0 l/m 4,8 km/h (1 Bft) SW 225 0,000 mm 6,1 C 12,3 C 11,3 km/h (2 Bft) 100,00 %
18.09.2019 03:45 21,7 C 12,3 C 50 % 66 % 1021,4 hPa 0,0 l/m 3,2 km/h (1 Bft) NW 315 0,000 mm 6,1 C 12,3 C 4,8 km/h (1 Bft) 100,00 %
18.09.2019 03:44 21,7 C 12,3 C 50 % 66 % 1021,3 hPa 0,0 l/m 6,4 km/h (2 Bft) SW 225 0,000 mm 6,1 C 12,3 C 11,3 km/h (2 Bft) 100,00 %
18.09.2019 03:43 21,7 C 12,3 C 50 % 67 % 1021,3 hPa 0,0 l/m 6,4 km/h (2 Bft) W-NW 292 0,000 mm 6,4 C 12,3 C 12,9 km/h (3 Bft) 100,00 %
18.09.2019 03:42 21,7 C 12,3 C 50 % 67 % 1021,3 hPa 0,0 l/m 4,8 km/h (1 Bft) SW 225 0,000 mm 6,4 C 12,3 C 6,4 km/h (2 Bft) 100,00 %
18.09.2019 03:41 21,7 C 12,3 C 50 % 66 % 1021,3 hPa 0,0 l/m 6,4 km/h (2 Bft) W 270 0,000 mm 6,1 C 12,3 C 9,7 km/h (2 Bft) 100,00 %
18.09.2019 03:40 21,7 C 12,4 C 50 % 66 % 1021,2 hPa 0,0 l/m 6,4 km/h (2 Bft) SW 225 0,000 mm 6,2 C 12,4 C 11,3 km/h (2 Bft) 100,00 %
18.09.2019 03:39 21,8 C 12,3 C 50 % 66 % 1021,2 hPa 0,0 l/m 8,0 km/h (2 Bft) W 270 0,000 mm 6,1 C 11,3 C 12,9 km/h (3 Bft) 100,00 %
18.09.2019 03:38 21,8 C 12,3 C 50 % 66 % 1021,2 hPa 0,0 l/m 6,4 km/h (2 Bft) W-SW 247 0,000 mm 6,1 C 12,3 C 9,7 km/h (2 Bft) 95,65 %
18.09.2019 03:37 21,8 C 12,4 C 50 % 66 % 1021,2 hPa 0,0 l/m 6,4 km/h (2 Bft) W-SW 247 0,000 mm 6,2 C 12,4 C 12,9 km/h (3 Bft) 95,65 %
18.09.2019 03:36 21,7 C 12,4 C 50 % 66 % 1021,2 hPa 0,0 l/m 6,4 km/h (2 Bft) W-SW 247 0,000 mm 6,2 C 12,4 C 12,9 km/h (3 Bft) 100,00 %
18.09.2019 03:35 21,8 C 12,4 C 50 % 66 % 1021,2 hPa 0,0 l/m 9,7 km/h (2 Bft) W-SW 247 0,000 mm 6,2 C 10,4 C 14,5 km/h (3 Bft) 91,30 %
18.09.2019 03:34 21,8 C 12,3 C 50 % 66 % 1021,2 hPa 0,0 l/m 6,4 km/h (2 Bft) W 270 0,000 mm 6,1 C 12,3 C 11,3 km/h (2 Bft) 100,00 %
18.09.2019 03:33 21,8 C 12,3 C 51 % 67 % 1021,1 hPa 0,0 l/m 6,4 km/h (2 Bft) W 270 0,000 mm 6,4 C 12,3 C 11,3 km/h (2 Bft) 100,00 %
18.09.2019 03:32 21,8 C 12,3 C 51 % 67 % 1021,2 hPa 0,0 l/m 6,4 km/h (2 Bft) W-SW 247 0,000 mm 6,4 C 12,3 C 11,3 km/h (2 Bft) 100,00 %
18.09.2019 03:31 21,8 C 12,3 C 51 % 67 % 1021,1 hPa 0,0 l/m 6,4 km/h (2 Bft) W-SW 247 0,000 mm 6,4 C 12,3 C 12,9 km/h (3 Bft) 100,00 %
18.09.2019 03:30 21,8 C 12,3 C 51 % 67 % 1021,1 hPa 0,0 l/m 6,4 km/h (2 Bft) W-SW 247 0,000 mm 6,4 C 12,3 C 11,3 km/h (2 Bft) 95,65 %
18.09.2019 03:29 21,8 C 12,3 C 51 % 67 % 1021,1 hPa 0,0 l/m 3,2 km/h (1 Bft) W-SW 247 0,000 mm 6,4 C 12,3 C 4,8 km/h (1 Bft) 100,00 %
18.09.2019 03:28 21,8 C 12,3 C 51 % 67 % 1021,1 hPa 0,0 l/m 6,4 km/h (2 Bft) SW 225 0,000 mm 6,4 C 12,3 C 11,3 km/h (2 Bft) 100,00 %
18.09.2019 03:27 21,8 C 12,2 C 51 % 67 % 1021,1 hPa 0,0 l/m 6,4 km/h (2 Bft) SW 225 0,000 mm 6,3 C 12,2 C 12,9 km/h (3 Bft) 100,00 %
18.09.2019 03:26 21,8 C 12,2 C 51 % 68 % 1021,0 hPa 0,0 l/m 4,8 km/h (1 Bft) W-SW 247 0,000 mm 6,5 C 12,2 C 8,0 km/h (2 Bft) 100,00 %
18.09.2019 03:25 21,8 C 12,2 C 51 % 68 % 1021,0 hPa 0,0 l/m 4,8 km/h (1 Bft) W 270 0,000 mm 6,5 C 12,2 C 9,7 km/h (2 Bft) 100,00 %
18.09.2019 03:24 21,8 C 12,2 C 51 % 68 % 1021,0 hPa 0,0 l/m 4,8 km/h (1 Bft) W 270 0,000 mm 6,5 C 12,2 C 9,7 km/h (2 Bft) 100,00 %
18.09.2019 03:23 21,8 C 12,2 C 51 % 68 % 1020,9 hPa 0,0 l/m 6,4 km/h (2 Bft) W-SW 247 0,000 mm 6,5 C 12,2 C 11,3 km/h (2 Bft) 100,00 %
18.09.2019 03:22 21,8 C 12,2 C 51 % 69 % 1021,0 hPa 0,0 l/m 4,8 km/h (1 Bft) W 270 0,000 mm 6,7 C 12,2 C 11,3 km/h (2 Bft) 100,00 %
18.09.2019 03:21 21,8 C 12,2 C 51 % 69 % 1020,9 hPa 0,0 l/m 4,8 km/h (1 Bft) W 270 0,000 mm 6,7 C 12,2 C 9,7 km/h (2 Bft) 100,00 %
18.09.2019 03:20 21,8 C 12,2 C 51 % 69 % 1021,0 hPa 0,0 l/m 4,8 km/h (1 Bft) S-SW 202 0,000 mm 6,7 C 12,2 C 9,7 km/h (2 Bft) 100,00 %
18.09.2019 03:19 21,8 C 12,3 C 51 % 69 % 1020,9 hPa 0,0 l/m 4,8 km/h (1 Bft) S-SW 202 0,000 mm 6,8 C 12,3 C 9,7 km/h (2 Bft) 100,00 %
18.09.2019 03:18 21,8 C 12,3 C 51 % 68 % 1020,9 hPa 0,0 l/m 4,8 km/h (1 Bft) W-SW 247 0,000 mm 6,6 C 12,3 C 8,0 km/h (2 Bft) 100,00 %
18.09.2019 03:17 21,8 C 12,3 C 51 % 68 % 1020,9 hPa 0,0 l/m 4,8 km/h (1 Bft) SW 225 0,000 mm 6,6 C 12,3 C 8,0 km/h (2 Bft) 100,00 %
18.09.2019 03:16 21,8 C 12,3 C 51 % 68 % 1020,9 hPa 0,0 l/m 3,2 km/h (1 Bft) W 270 0,000 mm 6,6 C 12,3 C 4,8 km/h (1 Bft) 100,00 %
18.09.2019 03:15 21,8 C 12,4 C 51 % 68 % 1020,9 hPa 0,0 l/m 4,8 km/h (1 Bft) W 270 0,000 mm 6,7 C 12,4 C 6,4 km/h (2 Bft) 100,00 %
18.09.2019 03:14 21,8 C 12,4 C 51 % 68 % 1020,8 hPa 0,0 l/m 3,2 km/h (1 Bft) W 270 0,000 mm 6,7 C 12,4 C 6,4 km/h (2 Bft) 100,00 %
18.09.2019 03:13 21,8 C 12,4 C 51 % 68 % 1020,9 hPa 0,0 l/m 4,8 km/h (1 Bft) W-SW 247 0,000 mm 6,7 C 12,4 C 8,0 km/h (2 Bft) 100,00 %
18.09.2019 03:12 21,8 C 12,4 C 51 % 68 % 1020,8 hPa 0,0 l/m 4,8 km/h (1 Bft) W 270 0,000 mm 6,7 C 12,4 C 6,4 km/h (2 Bft) 100,00 %
18.09.2019 03:11 21,8 C 12,4 C 51 % 68 % 1020,8 hPa 0,0 l/m 8,0 km/h (2 Bft) W-SW 247 0,000 mm 6,7 C 11,4 C 11,3 km/h (2 Bft) 100,00 %
18.09.2019 03:10 21,8 C 12,4 C 51 % 68 % 1020,8 hPa 0,0 l/m 6,4 km/h (2 Bft) W-SW 247 0,000 mm 6,7 C 12,4 C 11,3 km/h (2 Bft) 100,00 %
18.09.2019 03:09 21,8 C 12,4 C 51 % 68 % 1020,8 hPa 0,0 l/m 3,2 km/h (1 Bft) SW 225 0,000 mm 6,7 C 12,4 C 11,3 km/h (2 Bft) 100,00 %
18.09.2019 03:08 21,8 C 12,4 C 51 % 68 % 1020,8 hPa 0,0 l/m 4,8 km/h (1 Bft) SW 225 0,000 mm 6,7 C 12,4 C 9,7 km/h (2 Bft) 100,00 %
18.09.2019 03:07 21,8 C 12,4 C 51 % 68 % 1020,8 hPa 0,0 l/m 3,2 km/h (1 Bft) W 270 0,000 mm 6,7 C 12,4 C 6,4 km/h (2 Bft) 100,00 %
18.09.2019 03:06 21,8 C 12,4 C 51 % 68 % 1020,8 hPa 0,0 l/m 4,8 km/h (1 Bft) W 270 0,000 mm 6,7 C 12,4 C 6,4 km/h (2 Bft) 100,00 %
18.09.2019 03:05 21,8 C 12,4 C 51 % 68 % 1020,8 hPa 0,0 l/m 4,8 km/h (1 Bft) S 180 0,000 mm 6,7 C 12,4 C 9,7 km/h (2 Bft) 100,00 %
18.09.2019 03:04 21,8 C 12,4 C 51 % 68 % 1020,8 hPa 0,0 l/m 6,4 km/h (2 Bft) W 270 0,000 mm 6,7 C 12,4 C 11,3 km/h (2 Bft) 100,00 %
18.09.2019 03:03 21,8 C 12,4 C 51 % 68 % 1020,9 hPa 0,0 l/m 3,2 km/h (1 Bft) W-SW 247 0,000 mm 6,7 C 12,4 C 6,4 km/h (2 Bft) 100,00 %
18.09.2019 03:02 21,8 C 12,4 C 51 % 68 % 1020,8 hPa 0,0 l/m 4,8 km/h (1 Bft) W 270 0,000 mm 6,7 C 12,4 C 6,4 km/h (2 Bft) 95,65 %
18.09.2019 03:01 21,8 C 12,4 C 51 % 68 % 1020,8 hPa 0,0 l/m 3,2 km/h (1 Bft) W-SW 247 0,000 mm 6,7 C 12,4 C 6,4 km/h (2 Bft) 100,00 %
18.09.2019 03:00 21,8 C 12,4 C 51 % 68 % 1020,8 hPa 0,0 l/m 3,2 km/h (1 Bft) SW 225 0,000 mm 6,7 C 12,4 C 4,8 km/h (1 Bft) 100,00 %
18.09.2019 02:59 21,8 C 12,5 C 51 % 68 % 1020,8 hPa 0,0 l/m 3,2 km/h (1 Bft) W 270 0,000 mm 6,8 C 12,5 C 6,4 km/h (2 Bft) 95,65 %
18.09.2019 02:58 21,8 C 12,6 C 51 % 68 % 1020,8 hPa 0,0 l/m 4,8 km/h (1 Bft) W-SW 247 0,000 mm 6,9 C 12,6 C 6,4 km/h (2 Bft) 100,00 %
18.09.2019 02:57 21,8 C 12,6 C 51 % 67 % 1020,8 hPa 0,0 l/m 3,2 km/h (1 Bft) W 270 0,000 mm 6,6 C 12,6 C 4,8 km/h (1 Bft) 100,00 %
18.09.2019 02:56 21,8 C 12,6 C 51 % 67 % 1020,7 hPa 0,0 l/m 4,8 km/h (1 Bft) W 270 0,000 mm 6,6 C 12,6 C 6,4 km/h (2 Bft) 100,00 %
18.09.2019 02:55 21,8 C 12,7 C 51 % 67 % 1020,7 hPa 0,0 l/m 4,8 km/h (1 Bft) W 270 0,000 mm 6,7 C 12,7 C 9,7 km/h (2 Bft) 100,00 %
18.09.2019 02:54 21,8 C 12,7 C 51 % 67 % 1020,7 hPa 0,0 l/m 6,4 km/h (2 Bft) W-SW 247 0,000 mm 6,7 C 12,7 C 12,9 km/h (3 Bft) 100,00 %
18.09.2019 02:53 21,8 C 12,7 C 51 % 67 % 1020,7 hPa 0,0 l/m 6,4 km/h (2 Bft) W 270 0,000 mm 6,7 C 12,7 C 9,7 km/h (2 Bft) 100,00 %
18.09.2019 02:52 21,8 C 12,7 C 51 % 67 % 1020,8 hPa 0,0 l/m 4,8 km/h (1 Bft) W 270 0,000 mm 6,7 C 12,7 C 9,7 km/h (2 Bft) 95,65 %
18.09.2019 02:51 21,8 C 12,8 C 51 % 67 % 1020,8 hPa 0,0 l/m 3,2 km/h (1 Bft) W-SW 247 0,000 mm 6,8 C 12,8 C 9,7 km/h (2 Bft) 100,00 %
18.09.2019 02:50 21,8 C 12,8 C 51 % 67 % 1020,8 hPa 0,0 l/m 6,4 km/h (2 Bft) W 270 0,000 mm 6,8 C 12,8 C 11,3 km/h (2 Bft) 100,00 %
18.09.2019 02:49 21,8 C 12,8 C 51 % 67 % 1020,7 hPa 0,0 l/m 6,4 km/h (2 Bft) W 270 0,000 mm 6,8 C 12,8 C 12,9 km/h (3 Bft) 95,65 %
18.09.2019 02:48 21,8 C 12,8 C 52 % 67 % 1020,8 hPa 0,0 l/m 4,8 km/h (1 Bft) W 270 0,000 mm 6,8 C 12,8 C 11,3 km/h (2 Bft) 100,00 %
18.09.2019 02:47 21,8 C 12,8 C 52 % 66 % 1020,7 hPa 0,0 l/m 8,0 km/h (2 Bft) W 270 0,000 mm 6,6 C 11,8 C 12,9 km/h (3 Bft) 100,00 %
18.09.2019 02:46 21,9 C 12,8 C 52 % 66 % 1020,8 hPa 0,0 l/m 6,4 km/h (2 Bft) W 270 0,000 mm 6,6 C 12,8 C 11,3 km/h (2 Bft) 100,00 %
18.09.2019 02:45 21,8 C 12,8 C 52 % 67 % 1020,6 hPa 0,0 l/m 6,4 km/h (2 Bft) W-NW 292 0,000 mm 6,8 C 12,8 C 11,3 km/h (2 Bft) 95,65 %
18.09.2019 02:44 21,8 C 12,9 C 52 % 66 % 1020,6 hPa 0,0 l/m 4,8 km/h (1 Bft) W-SW 247 0,000 mm 6,7 C 12,9 C 9,7 km/h (2 Bft) 100,00 %
18.09.2019 02:43 21,8 C 12,8 C 52 % 67 % 1020,7 hPa 0,0 l/m 4,8 km/h (1 Bft) W 270 0,000 mm 6,8 C 12,8 C 8,0 km/h (2 Bft) 100,00 %
18.09.2019 02:42 21,9 C 12,9 C 52 % 66 % 1020,7 hPa 0,0 l/m 6,4 km/h (2 Bft) W-SW 247 0,000 mm 6,7 C 12,9 C 11,3 km/h (2 Bft) 100,00 %
18.09.2019 02:41 21,9 C 12,9 C 52 % 67 % 1020,7 hPa 0,0 l/m 8,0 km/h (2 Bft) W-SW 247 0,000 mm 6,9 C 11,9 C 14,5 km/h (3 Bft) 100,00 %
18.09.2019 02:40 21,9 C 12,9 C 52 % 67 % 1020,6 hPa 0,0 l/m 4,8 km/h (1 Bft) W 270 0,000 mm 6,9 C 12,9 C 6,4 km/h (2 Bft) 95,65 %
18.09.2019 02:39 21,9 C 12,9 C 52 % 68 % 1020,6 hPa 0,0 l/m 6,4 km/h (2 Bft) W 270 0,000 mm 7,1 C 12,9 C 11,3 km/h (2 Bft) 95,65 %
18.09.2019 02:38 21,9 C 12,9 C 52 % 67 % 1020,6 hPa 0,0 l/m 4,8 km/h (1 Bft) SW 225 0,000 mm 6,9 C 12,9 C 11,3 km/h (2 Bft) 100,00 %
18.09.2019 02:37 21,9 C 13,0 C 52 % 67 % 1020,6 hPa 0,0 l/m 4,8 km/h (1 Bft) W 270 0,000 mm 7,0 C 13,0 C 9,7 km/h (2 Bft) 100,00 %
18.09.2019 02:36 21,9 C 13,0 C 52 % 67 % 1020,6 hPa 0,0 l/m 4,8 km/h (1 Bft) W 270 0,000 mm 7,0 C 13,0 C 9,7 km/h (2 Bft) 100,00 %
18.09.2019 02:35 21,9 C 13,0 C 52 % 68 % 1020,6 hPa 0,0 l/m 6,4 km/h (2 Bft) W 270 0,000 mm 7,2 C 13,0 C 11,3 km/h (2 Bft) 95,65 %
18.09.2019 02:34 21,9 C 13,0 C 52 % 68 % 1020,6 hPa 0,0 l/m 6,4 km/h (2 Bft) W-SW 247 0,000 mm 7,2 C 13,0 C 12,9 km/h (3 Bft) 100,00 %
18.09.2019 02:33 21,9 C 13,1 C 52 % 68 % 1020,5 hPa 0,0 l/m 4,8 km/h (1 Bft) W 270 0,000 mm 7,3 C 13,1 C 6,4 km/h (2 Bft) 100,00 %
18.09.2019 02:32 21,9 C 13,1 C 52 % 68 % 1020,6 hPa 0,0 l/m 6,4 km/h (2 Bft) SW 225 0,000 mm 7,3 C 13,1 C 12,9 km/h (3 Bft) 100,00 %
18.09.2019 02:31 21,9 C 13,1 C 52 % 68 % 1020,6 hPa 0,0 l/m 6,4 km/h (2 Bft) W 270 0,000 mm 7,3 C 13,1 C 11,3 km/h (2 Bft) 100,00 %
18.09.2019 02:30 21,9 C 13,1 C 52 % 68 % 1020,5 hPa 0,0 l/m 6,4 km/h (2 Bft) S-SW 202 0,000 mm 7,3 C 13,1 C 14,5 km/h (3 Bft) 100,00 %
18.09.2019 02:29 21,9 C 13,1 C 52 % 68 % 1020,6 hPa 0,0 l/m 8,0 km/h (2 Bft) W 270 0,000 mm 7,3 C 12,1 C 12,9 km/h (3 Bft) 100,00 %
18.09.2019 02:28 21,9 C 13,1 C 52 % 68 % 1020,5 hPa 0,0 l/m 4,8 km/h (1 Bft) SW 225 0,000 mm 7,3 C 13,1 C 6,4 km/h (2 Bft) 95,65 %
18.09.2019 02:27 21,9 C 13,2 C 52 % 68 % 1020,6 hPa 0,0 l/m 6,4 km/h (2 Bft) W-SW 247 0,000 mm 7,4 C 13,2 C 11,3 km/h (2 Bft) 100,00 %
18.09.2019 02:26 21,9 C 13,2 C 52 % 68 % 1020,5 hPa 0,0 l/m 6,4 km/h (2 Bft) SW 225 0,000 mm 7,4 C 13,2 C 11,3 km/h (2 Bft) 100,00 %
18.09.2019 02:25 21,9 C 13,2 C 52 % 68 % 1020,5 hPa 0,0 l/m 9,7 km/h (2 Bft) W 270 0,000 mm 7,4 C 11,3 C 17,7 km/h (3 Bft) 100,00 %
18.09.2019 02:24 21,9 C 13,2 C 52 % 68 % 1020,5 hPa 0,0 l/m 6,4 km/h (2 Bft) W-SW 247 0,000 mm 7,4 C 13,2 C 11,3 km/h (2 Bft) 100,00 %
18.09.2019 02:23 21,9 C 13,2 C 52 % 68 % 1020,6 hPa 0,0 l/m 4,8 km/h (1 Bft) W-SW 247 0,000 mm 7,4 C 13,2 C 6,4 km/h (2 Bft) 100,00 %
18.09.2019 02:22 21,9 C 13,2 C 52 % 68 % 1020,5 hPa 0,0 l/m 6,4 km/h (2 Bft) W 270 0,000 mm 7,4 C 13,2 C 11,3 km/h (2 Bft) 100,00 %
18.09.2019 02:21 21,9 C 13,1 C 52 % 69 % 1020,5 hPa 0,0 l/m 6,4 km/h (2 Bft) W-SW 247 0,000 mm 7,5 C 13,1 C 17,7 km/h (3 Bft) 95,65 %
18.09.2019 02:20 21,9 C 13,2 C 52 % 69 % 1020,5 hPa 0,0 l/m 9,7 km/h (2 Bft) W-SW 247 0,000 mm 7,6 C 11,3 C 17,7 km/h (3 Bft) 100,00 %
18.09.2019 02:19 21,9 C 13,2 C 52 % 69 % 1020,5 hPa 0,0 l/m 4,8 km/h (1 Bft) W-NW 292 0,000 mm 7,6 C 13,2 C 11,3 km/h (2 Bft) 100,00 %
18.09.2019 02:18 21,9 C 13,2 C 52 % 69 % 1020,5 hPa 0,0 l/m 6,4 km/h (2 Bft) W-SW 247 0,000 mm 7,6 C 13,2 C 9,7 km/h (2 Bft) 100,00 %
18.09.2019 02:17 21,9 C 13,2 C 53 % 69 % 1020,5 hPa 0,0 l/m 6,4 km/h (2 Bft) S-SW 202 0,000 mm 7,6 C 13,2 C 11,3 km/h (2 Bft) 100,00 %
18.09.2019 02:16 21,9 C 13,2 C 53 % 69 % 1020,5 hPa 0,0 l/m 4,8 km/h (1 Bft) W 270 0,000 mm 7,6 C 13,2 C 9,7 km/h (2 Bft) 100,00 %
18.09.2019 02:15 21,9 C 13,2 C 53 % 69 % 1020,5 hPa 0,0 l/m 4,8 km/h (1 Bft) W 270 0,000 mm 7,6 C 13,2 C 9,7 km/h (2 Bft) 100,00 %
18.09.2019 02:14 21,9 C 13,2 C 53 % 69 % 1020,5 hPa 0,0 l/m 6,4 km/h (2 Bft) W-SW 247 0,000 mm 7,6 C 13,2 C 11,3 km/h (2 Bft) 100,00 %
18.09.2019 02:13 21,9 C 13,2 C 53 % 69 % 1020,5 hPa 0,0 l/m 6,4 km/h (2 Bft) W 270 0,000 mm 7,6 C 13,2 C 9,7 km/h (2 Bft) 100,00 %
18.09.2019 02:12 21,9 C 13,2 C 53 % 69 % 1020,5 hPa 0,0 l/m 6,4 km/h (2 Bft) W-SW 247 0,000 mm 7,6 C 13,2 C 11,3 km/h (2 Bft) 100,00 %
18.09.2019 02:11 21,9 C 13,3 C 53 % 69 % 1020,5 hPa 0,0 l/m 6,4 km/h (2 Bft) W 270 0,000 mm 7,7 C 13,3 C 12,9 km/h (3 Bft) 95,65 %
18.09.2019 02:10 21,9 C 13,3 C 53 % 69 % 1020,6 hPa 0,0 l/m 4,8 km/h (1 Bft) W-SW 247 0,000 mm 7,7 C 13,3 C 11,3 km/h (2 Bft) 100,00 %
18.09.2019 02:09 21,9 C 13,3 C 53 % 69 % 1020,5 hPa 0,0 l/m 4,8 km/h (1 Bft) W 270 0,000 mm 7,7 C 13,3 C 9,7 km/h (2 Bft) 95,65 %
18.09.2019 02:08 21,9 C 13,3 C 53 % 69 % 1020,5 hPa 0,0 l/m 4,8 km/h (1 Bft) W-SW 247 0,000 mm 7,7 C 13,3 C 6,4 km/h (2 Bft) 100,00 %
18.09.2019 02:07 21,9 C 13,4 C 53 % 69 % 1020,5 hPa 0,0 l/m 4,8 km/h (1 Bft) W-NW 292 0,000 mm 7,8 C 13,4 C 11,3 km/h (2 Bft) 100,00 %
18.09.2019 02:06 21,9 C 13,4 C 53 % 69 % 1020,5 hPa 0,0 l/m 4,8 km/h (1 Bft) W-SW 247 0,000 mm 7,8 C 13,4 C 11,3 km/h (2 Bft) 100,00 %
18.09.2019 02:05 21,9 C 13,4 C 53 % 69 % 1020,5 hPa 0,0 l/m 4,8 km/h (1 Bft) W-SW 247 0,000 mm 7,8 C 13,4 C 8,0 km/h (2 Bft) 100,00 %
18.09.2019 02:04 21,9 C 13,4 C 53 % 68 % 1020,5 hPa 0,0 l/m 8,0 km/h (2 Bft) W 270 0,000 mm 7,6 C 12,4 C 11,3 km/h (2 Bft) 100,00 %
18.09.2019 02:03 21,9 C 13,3 C 53 % 68 % 1020,6 hPa 0,0 l/m 3,2 km/h (1 Bft) W 270 0,000 mm 7,5 C 13,3 C 6,4 km/h (2 Bft) 95,65 %
18.09.2019 02:02 21,9 C 13,4 C 53 % 69 % 1020,6 hPa 0,0 l/m 3,2 km/h (1 Bft) W 270 0,000 mm 7,8 C 13,4 C 4,8 km/h (1 Bft) 100,00 %
18.09.2019 02:01 21,9 C 13,3 C 53 % 69 % 1020,5 hPa 0,0 l/m 4,8 km/h (1 Bft) W 270 0,000 mm 7,7 C 13,3 C 9,7 km/h (2 Bft) 100,00 %
18.09.2019 02:00 22,0 C 13,3 C 53 % 69 % 1020,5 hPa 0,0 l/m 6,4 km/h (2 Bft) W 270 0,000 mm 7,7 C 13,3 C 12,9 km/h (3 Bft) 100,00 %
18.09.2019 01:59 22,0 C 13,4 C 53 % 69 % 1020,6 hPa 0,0 l/m 3,2 km/h (1 Bft) W 270 0,000 mm 7,8 C 13,4 C 9,7 km/h (2 Bft) 100,00 %
18.09.2019 01:58 21,9 C 13,4 C 53 % 69 % 1020,6 hPa 0,0 l/m 4,8 km/h (1 Bft) W 270 0,000 mm 7,8 C 13,4 C 9,7 km/h (2 Bft) 100,00 %
18.09.2019 01:57 21,9 C 13,3 C 53 % 70 % 1020,6 hPa 0,0 l/m 4,8 km/h (1 Bft) W-SW 247 0,000 mm 7,9 C 13,3 C 9,7 km/h (2 Bft) 100,00 %
18.09.2019 01:56 22,0 C 13,3 C 53 % 70 % 1020,6 hPa 0,0 l/m 6,4 km/h (2 Bft) W 270 0,000 mm 7,9 C 13,3 C 12,9 km/h (3 Bft) 100,00 %
18.09.2019 01:55 22,0 C 13,4 C 53 % 70 % 1020,6 hPa 0,0 l/m 6,4 km/h (2 Bft) W 270 0,000 mm 8,0 C 13,4 C 11,3 km/h (2 Bft) 100,00 %
18.09.2019 01:54 21,9 C 13,4 C 53 % 70 % 1020,6 hPa 0,0 l/m 6,4 km/h (2 Bft) W-SW 247 0,000 mm 8,0 C 13,4 C 9,7 km/h (2 Bft) 100,00 %
18.09.2019 01:53 22,0 C 13,4 C 53 % 70 % 1020,6 hPa 0,0 l/m 4,8 km/h (1 Bft) W-SW 247 0,000 mm 8,0 C 13,4 C 8,0 km/h (2 Bft) 95,65 %
18.09.2019 01:52 21,9 C 13,4 C 53 % 70 % 1020,6 hPa 0,0 l/m 4,8 km/h (1 Bft) W-SW 247 0,000 mm 8,0 C 13,4 C 9,7 km/h (2 Bft) 100,00 %
18.09.2019 01:51 22,0 C 13,4 C 53 % 70 % 1020,6 hPa 0,0 l/m 3,2 km/h (1 Bft) W-SW 247 0,000 mm 8,0 C 13,4 C 8,0 km/h (2 Bft) 100,00 %
18.09.2019 01:50 21,9 C 13,4 C 53 % 70 % 1020,7 hPa 0,0 l/m 4,8 km/h (1 Bft) W-SW 247 0,000 mm 8,0 C 13,4 C 6,4 km/h (2 Bft) 100,00 %
18.09.2019 01:49 21,9 C 13,5 C 53 % 69 % 1020,6 hPa 0,0 l/m 4,8 km/h (1 Bft) W-SW 247 0,000 mm 7,9 C 13,5 C 6,4 km/h (2 Bft) 100,00 %
18.09.2019 01:48 22,0 C 13,4 C 53 % 69 % 1020,6 hPa 0,0 l/m 3,2 km/h (1 Bft) W-SW 247 0,000 mm 7,8 C 13,4 C 9,7 km/h (2 Bft) 100,00 %
18.09.2019 01:47 21,9 C 13,4 C 53 % 69 % 1020,6 hPa 0,0 l/m 3,2 km/h (1 Bft) SW 225 0,000 mm 7,8 C 13,4 C 4,8 km/h (1 Bft) 95,65 %
18.09.2019 01:46 22,0 C 13,5 C 53 % 69 % 1020,6 hPa 0,0 l/m 4,8 km/h (1 Bft) W-SW 247 0,000 mm 7,9 C 13,5 C 8,0 km/h (2 Bft) 100,00 %
18.09.2019 01:45 22,0 C 13,5 C 53 % 69 % 1020,6 hPa 0,0 l/m 1,6 km/h (1 Bft) W 270 0,000 mm 7,9 C 13,5 C 4,8 km/h (1 Bft) 100,00 %
18.09.2019 01:44 22,0 C 13,5 C 53 % 69 % 1020,5 hPa 0,0 l/m 4,8 km/h (1 Bft) W 270 0,000 mm 7,9 C 13,5 C 11,3 km/h (2 Bft) 100,00 %
18.09.2019 01:43 22,0 C 13,5 C 53 % 69 % 1020,5 hPa 0,0 l/m 3,2 km/h (1 Bft) W-SW 247 0,000 mm 7,9 C 13,5 C 6,4 km/h (2 Bft) 100,00 %
18.09.2019 01:42 22,0 C 13,6 C 53 % 69 % 1020,5 hPa 0,0 l/m 6,4 km/h (2 Bft) W-SW 247 0,000 mm 8,0 C 13,6 C 11,3 km/h (2 Bft) 95,65 %
18.09.2019 01:41 21,9 C 13,6 C 53 % 69 % 1020,5 hPa 0,0 l/m 3,2 km/h (1 Bft) W-SW 247 0,000 mm 8,0 C 13,6 C 6,4 km/h (2 Bft) 95,65 %
18.09.2019 01:40 21,9 C 13,6 C 53 % 69 % 1020,4 hPa 0,0 l/m 4,8 km/h (1 Bft) W-SW 247 0,000 mm 8,0 C 13,6 C 9,7 km/h (2 Bft) 100,00 %
18.09.2019 01:39 21,9 C 13,6 C 53 % 69 % 1020,5 hPa 0,0 l/m 3,2 km/h (1 Bft) W-SW 247 0,000 mm 8,0 C 13,6 C 6,4 km/h (2 Bft) 100,00 %
18.09.2019 01:38 21,9 C 13,6 C 53 % 69 % 1020,4 hPa 0,0 l/m 4,8 km/h (1 Bft) W-SW 247 0,000 mm 8,0 C 13,6 C 11,3 km/h (2 Bft) 100,00 %
18.09.2019 01:37 22,0 C 13,6 C 53 % 69 % 1020,4 hPa 0,0 l/m 4,8 km/h (1 Bft) W 270 0,000 mm 8,0 C 13,6 C 9,7 km/h (2 Bft) 100,00 %
18.09.2019 01:36 22,0 C 13,6 C 53 % 69 % 1020,5 hPa 0,0 l/m 4,8 km/h (1 Bft) W 270 0,000 mm 8,0 C 13,6 C 8,0 km/h (2 Bft) 100,00 %
18.09.2019 01:35 22,0 C 13,6 C 53 % 69 % 1020,4 hPa 0,0 l/m 4,8 km/h (1 Bft) W 270 0,000 mm 8,0 C 13,6 C 9,7 km/h (2 Bft) 100,00 %
18.09.2019 01:34 22,0 C 13,6 C 53 % 69 % 1020,3 hPa 0,0 l/m 6,4 km/h (2 Bft) W 270 0,000 mm 8,0 C 13,6 C 9,7 km/h (2 Bft) 100,00 %
18.09.2019 01:33 22,0 C 13,6 C 53 % 69 % 1020,3 hPa 0,0 l/m 4,8 km/h (1 Bft) W-SW 247 0,000 mm 8,0 C 13,6 C 6,4 km/h (2 Bft) 100,00 %
18.09.2019 01:32 22,0 C 13,6 C 53 % 70 % 1020,3 hPa 0,0 l/m 4,8 km/h (1 Bft) W-SW 247 0,000 mm 8,2 C 13,6 C 6,4 km/h (2 Bft) 100,00 %
18.09.2019 01:31 22,0 C 13,6 C 53 % 70 % 1020,3 hPa 0,0 l/m 8,0 km/h (2 Bft) SW 225 0,000 mm 8,2 C 12,6 C 11,3 km/h (2 Bft) 100,00 %
18.09.2019 01:30 22,0 C 13,6 C 53 % 70 % 1020,3 hPa 0,0 l/m 4,8 km/h (1 Bft) W-SW 247 0,000 mm 8,2 C 13,6 C 8,0 km/h (2 Bft) 100,00 %
18.09.2019 01:29 22,0 C 13,6 C 53 % 69 % 1020,4 hPa 0,0 l/m 4,8 km/h (1 Bft) W-SW 247 0,000 mm 8,0 C 13,6 C 6,4 km/h (2 Bft) 100,00 %
18.09.2019 01:28 22,0 C 13,6 C 53 % 69 % 1020,3 hPa 0,0 l/m 4,8 km/h (1 Bft) W-SW 247 0,000 mm 8,0 C 13,6 C 11,3 km/h (2 Bft) 100,00 %
18.09.2019 01:27 22,0 C 13,6 C 53 % 69 % 1020,3 hPa 0,0 l/m 6,4 km/h (2 Bft) W-SW 247 0,000 mm 8,0 C 13,6 C 9,7 km/h (2 Bft) 100,00 %
18.09.2019 01:26 22,0 C 13,6 C 53 % 70 % 1020,3 hPa 0,0 l/m 4,8 km/h (1 Bft) SW 225 0,000 mm 8,2 C 13,6 C 11,3 km/h (2 Bft) 100,00 %
18.09.2019 01:25 22,0 C 13,6 C 53 % 70 % 1020,3 hPa 0,0 l/m 6,4 km/h (2 Bft) W-SW 247 0,000 mm 8,2 C 13,6 C 9,7 km/h (2 Bft) 100,00 %
18.09.2019 01:24 22,0 C 13,6 C 53 % 69 % 1020,3 hPa 0,0 l/m 8,0 km/h (2 Bft) W-SW 247 0,000 mm 8,0 C 12,6 C 11,3 km/h (2 Bft) 100,00 %
18.09.2019 01:23 22,0 C 13,6 C 53 % 70 % 1020,3 hPa 0,0 l/m 6,4 km/h (2 Bft) W 270 0,000 mm 8,2 C 13,6 C 11,3 km/h (2 Bft) 100,00 %
18.09.2019 01:22 22,0 C 13,6 C 53 % 70 % 1020,3 hPa 0,0 l/m 6,4 km/h (2 Bft) W 270 0,000 mm 8,2 C 13,6 C 11,3 km/h (2 Bft) 100,00 %
18.09.2019 01:21 22,0 C 13,6 C 53 % 70 % 1020,3 hPa 0,0 l/m 6,4 km/h (2 Bft) W-SW 247 0,000 mm 8,2 C 13,6 C 12,9 km/h (3 Bft) 100,00 %
18.09.2019 01:20 22,0 C 13,6 C 53 % 70 % 1020,2 hPa 0,0 l/m 4,8 km/h (1 Bft) W-SW 247 0,000 mm 8,2 C 13,6 C 6,4 km/h (2 Bft) 91,30 %
18.09.2019 01:19 22,0 C 13,6 C 53 % 70 % 1020,3 hPa 0,0 l/m 4,8 km/h (1 Bft) W-SW 247 0,000 mm 8,2 C 13,6 C 6,4 km/h (2 Bft) 100,00 %
18.09.2019 01:18 22,0 C 13,6 C 53 % 70 % 1020,3 hPa 0,0 l/m 6,4 km/h (2 Bft) W 270 0,000 mm 8,2 C 13,6 C 12,9 km/h (3 Bft) 91,30 %
18.09.2019 01:17 22,0 C 13,6 C 54 % 70 % 1020,3 hPa 0,0 l/m 4,8 km/h (1 Bft) SW 225 0,000 mm 8,2 C 13,6 C 11,3 km/h (2 Bft) 100,00 %
18.09.2019 01:16 22,0 C 13,6 C 54 % 70 % 1020,3 hPa 0,0 l/m 6,4 km/h (2 Bft) W 270 0,000 mm 8,2 C 13,6 C 9,7 km/h (2 Bft) 100,00 %
18.09.2019 01:15 22,0 C 13,6 C 54 % 70 % 1020,3 hPa 0,0 l/m 4,8 km/h (1 Bft) W-SW 247 0,000 mm 8,2 C 13,6 C 11,3 km/h (2 Bft) 100,00 %
18.09.2019 01:14 22,0 C 13,6 C 54 % 70 % 1020,2 hPa 0,0 l/m 4,8 km/h (1 Bft) W 270 0,000 mm 8,2 C 13,6 C 9,7 km/h (2 Bft) 100,00 %
18.09.2019 01:13 22,0 C 13,7 C 54 % 70 % 1020,2 hPa 0,0 l/m 3,2 km/h (1 Bft) W-SW 247 0,000 mm 8,3 C 13,7 C 6,4 km/h (2 Bft) 100,00 %
18.09.2019 01:12 22,0 C 13,7 C 54 % 69 % 1020,3 hPa 0,0 l/m 6,4 km/h (2 Bft) W 270 0,000 mm 8,1 C 13,7 C 9,7 km/h (2 Bft) 100,00 %
18.09.2019 01:11 22,0 C 13,7 C 54 % 69 % 1020,3 hPa 0,0 l/m 8,0 km/h (2 Bft) W-SW 247 0,000 mm 8,1 C 12,7 C 14,5 km/h (3 Bft) 100,00 %
18.09.2019 01:10 22,0 C 13,7 C 54 % 69 % 1020,2 hPa 0,0 l/m 6,4 km/h (2 Bft) S-SW 202 0,000 mm 8,1 C 13,7 C 11,3 km/h (2 Bft) 100,00 %
18.09.2019 01:09 22,0 C 13,8 C 54 % 69 % 1020,3 hPa 0,0 l/m 6,4 km/h (2 Bft) W-SW 247 0,000 mm 8,2 C 13,8 C 12,9 km/h (3 Bft) 100,00 %
18.09.2019 01:08 22,0 C 13,7 C 54 % 69 % 1020,3 hPa 0,0 l/m 6,4 km/h (2 Bft) W-SW 247 0,000 mm 8,1 C 13,7 C 12,9 km/h (3 Bft) 100,00 %
18.09.2019 01:07 22,0 C 13,7 C 54 % 69 % 1020,2 hPa 0,0 l/m 6,4 km/h (2 Bft) W-SW 247 0,000 mm 8,1 C 13,7 C 12,9 km/h (3 Bft) 100,00 %
18.09.2019 01:06 22,0 C 13,7 C 54 % 69 % 1020,3 hPa 0,0 l/m 6,4 km/h (2 Bft) W 270 0,000 mm 8,1 C 13,7 C 11,3 km/h (2 Bft) 95,65 %
18.09.2019 01:05 22,0 C 13,7 C 54 % 69 % 1020,2 hPa 0,0 l/m 6,4 km/h (2 Bft) W-SW 247 0,000 mm 8,1 C 13,7 C 12,9 km/h (3 Bft) 100,00 %
18.09.2019 01:04 22,0 C 13,7 C 54 % 69 % 1020,2 hPa 0,0 l/m 6,4 km/h (2 Bft) W 270 0,000 mm 8,1 C 13,7 C 11,3 km/h (2 Bft) 100,00 %
18.09.2019 01:03 22,0 C 13,7 C 54 % 69 % 1020,2 hPa 0,0 l/m 3,2 km/h (1 Bft) W 270 0,000 mm 8,1 C 13,7 C 9,7 km/h (2 Bft) 91,30 %
18.09.2019 01:02 22,0 C 13,7 C 54 % 69 % 1020,2 hPa 0,0 l/m 4,8 km/h (1 Bft) W 270 0,000 mm 8,1 C 13,7 C 9,7 km/h (2 Bft) 100,00 %
18.09.2019 01:01 22,0 C 13,7 C 54 % 69 % 1020,1 hPa 0,0 l/m 4,8 km/h (1 Bft) W-SW 247 0,000 mm 8,1 C 13,7 C 8,0 km/h (2 Bft) 100,00 %
18.09.2019 01:00 22,0 C 13,7 C 54 % 69 % 1020,1 hPa 0,0 l/m 3,2 km/h (1 Bft) W 270 0,000 mm 8,1 C 13,7 C 6,4 km/h (2 Bft) 100,00 %
18.09.2019 00:59 22,0 C 13,7 C 54 % 70 % 1020,2 hPa 0,0 l/m 6,4 km/h (2 Bft) W 270 0,000 mm 8,3 C 13,7 C 11,3 km/h (2 Bft) 100,00 %
18.09.2019 00:58 22,0 C 13,7 C 54 % 70 % 1020,1 hPa 0,0 l/m 3,2 km/h (1 Bft) W-SW 247 0,000 mm 8,3 C 13,7 C 6,4 km/h (2 Bft) 100,00 %
18.09.2019 00:57 22,0 C 13,7 C 54 % 70 % 1020,1 hPa 0,0 l/m 4,8 km/h (1 Bft) SW 225 0,000 mm 8,3 C 13,7 C 6,4 km/h (2 Bft) 100,00 %
18.09.2019 00:56 22,0 C 13,7 C 54 % 70 % 1020,0 hPa 0,0 l/m 6,4 km/h (2 Bft) W 270 0,000 mm 8,3 C 13,7 C 9,7 km/h (2 Bft) 100,00 %
18.09.2019 00:55 22,0 C 13,6 C 54 % 70 % 1020,0 hPa 0,0 l/m 4,8 km/h (1 Bft) W 270 0,000 mm 8,2 C 13,6 C 11,3 km/h (2 Bft) 100,00 %
18.09.2019 00:54 22,0 C 13,6 C 54 % 71 % 1020,1 hPa 0,0 l/m 4,8 km/h (1 Bft) W-SW 247 0,000 mm 8,4 C 13,6 C 9,7 km/h (2 Bft) 100,00 %
18.09.2019 00:53 22,0 C 13,7 C 54 % 71 % 1020,1 hPa 0,0 l/m 4,8 km/h (1 Bft) W 270 0,000 mm 8,5 C 13,7 C 11,3 km/h (2 Bft) 100,00 %
18.09.2019 00:52 22,0 C 13,6 C 54 % 71 % 1020,1 hPa 0,0 l/m 3,2 km/h (1 Bft) W 270 0,000 mm 8,4 C 13,6 C 6,4 km/h (2 Bft) 100,00 %
18.09.2019 00:51 22,0 C 13,7 C 54 % 71 % 1020,1 hPa 0,0 l/m 3,2 km/h (1 Bft) SW 225 0,000 mm 8,5 C 13,7 C 9,7 km/h (2 Bft) 100,00 %
18.09.2019 00:50 22,0 C 13,6 C 54 % 71 % 1020,1 hPa 0,0 l/m 4,8 km/h (1 Bft) SW 225 0,000 mm 8,4 C 13,6 C 11,3 km/h (2 Bft) 100,00 %
18.09.2019 00:49 22,0 C 13,6 C 54 % 71 % 1020,1 hPa 0,0 l/m 3,2 km/h (1 Bft) W-SW 247 0,000 mm 8,4 C 13,6 C 11,3 km/h (2 Bft) 100,00 %
18.09.2019 00:48 22,0 C 13,6 C 54 % 71 % 1020,1 hPa 0,0 l/m 3,2 km/h (1 Bft) W-SW 247 0,000 mm 8,4 C 13,6 C 4,8 km/h (1 Bft) 100,00 %
18.09.2019 00:47 22,0 C 13,6 C 54 % 72 % 1020,1 hPa 0,0 l/m 4,8 km/h (1 Bft) W-NW 292 0,000 mm 8,6 C 13,6 C 9,7 km/h (2 Bft) 100,00 %
18.09.2019 00:46 22,0 C 13,6 C 54 % 71 % 1020,1 hPa 0,0 l/m 3,2 km/h (1 Bft) W-SW 247 0,000 mm 8,4 C 13,6 C 6,4 km/h (2 Bft) 100,00 %
18.09.2019 00:45 22,0 C 13,6 C 54 % 71 % 1020,0 hPa 0,0 l/m 4,8 km/h (1 Bft) W-SW 247 0,000 mm 8,4 C 13,6 C 8,0 km/h (2 Bft) 100,00 %
18.09.2019 00:44 22,0 C 13,6 C 54 % 71 % 1020,0 hPa 0,0 l/m 4,8 km/h (1 Bft) W-SW 247 0,000 mm 8,4 C 13,6 C 9,7 km/h (2 Bft) 100,00 %
18.09.2019 00:43 22,0 C 13,6 C 54 % 72 % 1020,0 hPa 0,0 l/m 4,8 km/h (1 Bft) W-SW 247 0,000 mm 8,6 C 13,6 C 8,0 km/h (2 Bft) 100,00 %
18.09.2019 00:42 22,0 C 13,6 C 54 % 72 % 1020,0 hPa 0,0 l/m 6,4 km/h (2 Bft) W-SW 247 0,000 mm 8,6 C 13,6 C 12,9 km/h (3 Bft) 100,00 %
18.09.2019 00:41 22,0 C 13,6 C 54 % 72 % 1020,0 hPa 0,0 l/m 4,8 km/h (1 Bft) W-SW 247 0,000 mm 8,6 C 13,6 C 9,7 km/h (2 Bft) 100,00 %
18.09.2019 00:40 22,0 C 13,6 C 54 % 72 % 1019,9 hPa 0,0 l/m 3,2 km/h (1 Bft) NW 315 0,000 mm 8,6 C 13,6 C 6,4 km/h (2 Bft) 100,00 %
18.09.2019 00:39 22,0 C 13,6 C 54 % 72 % 1020,0 hPa 0,0 l/m 6,4 km/h (2 Bft) W-SW 247 0,000 mm 8,6 C 13,6 C 11,3 km/h (2 Bft) 100,00 %
18.09.2019 00:38 22,0 C 13,6 C 54 % 72 % 1019,9 hPa 0,0 l/m 4,8 km/h (1 Bft) W 270 0,000 mm 8,6 C 13,6 C 9,7 km/h (2 Bft) 100,00 %
18.09.2019 00:37 22,0 C 13,6 C 54 % 72 % 1019,9 hPa 0,0 l/m 8,0 km/h (2 Bft) W 270 0,000 mm 8,6 C 12,6 C 11,3 km/h (2 Bft) 100,00 %
18.09.2019 00:36 22,0 C 13,6 C 54 % 72 % 1019,9 hPa 0,0 l/m 4,8 km/h (1 Bft) W 270 0,000 mm 8,6 C 13,6 C 9,7 km/h (2 Bft) 100,00 %
18.09.2019 00:35 22,0 C 13,6 C 54 % 72 % 1019,9 hPa 0,0 l/m 4,8 km/h (1 Bft) W-SW 247 0,000 mm 8,6 C 13,6 C 11,3 km/h (2 Bft) 100,00 %
18.09.2019 00:34 22,0 C 13,6 C 54 % 72 % 1019,9 hPa 0,0 l/m 3,2 km/h (1 Bft) W 270 0,000 mm 8,6 C 13,6 C 6,4 km/h (2 Bft) 100,00 %
18.09.2019 00:33 22,0 C 13,7 C 54 % 72 % 1019,8 hPa 0,0 l/m 3,2 km/h (1 Bft) W-SW 247 0,000 mm 8,7 C 13,7 C 8,0 km/h (2 Bft) 100,00 %
18.09.2019 00:32 22,0 C 13,7 C 54 % 72 % 1019,9 hPa 0,0 l/m 4,8 km/h (1 Bft) W-SW 247 0,000 mm 8,7 C 13,7 C 8,0 km/h (2 Bft) 100,00 %
18.09.2019 00:31 22,0 C 13,7 C 54 % 72 % 1019,9 hPa 0,0 l/m 6,4 km/h (2 Bft) W 270 0,000 mm 8,7 C 13,7 C 11,3 km/h (2 Bft) 100,00 %
18.09.2019 00:30 22,0 C 13,7 C 54 % 72 % 1019,9 hPa 0,0 l/m 8,0 km/h (2 Bft) W-SW 247 0,000 mm 8,7 C 12,7 C 14,5 km/h (3 Bft) 95,65 %
18.09.2019 00:29 22,0 C 13,6 C 54 % 72 % 1019,9 hPa 0,0 l/m 4,8 km/h (1 Bft) W 270 0,000 mm 8,6 C 13,6 C 11,3 km/h (2 Bft) 100,00 %
18.09.2019 00:28 22,0 C 13,6 C 54 % 72 % 1019,8 hPa 0,0 l/m 8,0 km/h (2 Bft) W 270 0,000 mm 8,6 C 12,6 C 12,9 km/h (3 Bft) 100,00 %
18.09.2019 00:27 22,0 C 13,6 C 54 % 72 % 1019,9 hPa 0,0 l/m 9,7 km/h (2 Bft) W 270 0,000 mm 8,6 C 11,7 C 14,5 km/h (3 Bft) 100,00 %
18.09.2019 00:26 22,0 C 13,6 C 54 % 72 % 1019,9 hPa 0,0 l/m 8,0 km/h (2 Bft) W-SW 247 0,000 mm 8,6 C 12,6 C 12,9 km/h (3 Bft) 100,00 %
18.09.2019 00:25 22,0 C 13,6 C 54 % 72 % 1019,9 hPa 0,0 l/m 8,0 km/h (2 Bft) W-SW 247 0,000 mm 8,6 C 12,6 C 16,1 km/h (3 Bft) 100,00 %
18.09.2019 00:24 22,0 C 13,6 C 54 % 72 % 1019,8 hPa 0,0 l/m 8,0 km/h (2 Bft) W-SW 247 0,000 mm 8,6 C 12,6 C 11,3 km/h (2 Bft) 100,00 %
18.09.2019 00:23 22,0 C 13,6 C 54 % 72 % 1019,9 hPa 0,0 l/m 4,8 km/h (1 Bft) W-SW 247 0,000 mm 8,6 C 13,6 C 12,9 km/h (3 Bft) 100,00 %
18.09.2019 00:22 22,0 C 13,6 C 54 % 72 % 1019,9 hPa 0,0 l/m 6,4 km/h (2 Bft) W-SW 247 0,000 mm 8,6 C 13,6 C 14,5 km/h (3 Bft) 95,65 %
18.09.2019 00:21 22,0 C 13,5 C 54 % 72 % 1019,8 hPa 0,0 l/m 8,0 km/h (2 Bft) W-SW 247 0,000 mm 8,6 C 12,5 C 12,9 km/h (3 Bft) 100,00 %
18.09.2019 00:20 22,0 C 13,5 C 54 % 72 % 1019,8 hPa 0,0 l/m 4,8 km/h (1 Bft) W 270 0,000 mm 8,6 C 13,5 C 9,7 km/h (2 Bft) 100,00 %
18.09.2019 00:19 22,0 C 13,6 C 54 % 72 % 1019,8 hPa 0,0 l/m 9,7 km/h (2 Bft) W 270 0,000 mm 8,6 C 11,7 C 12,9 km/h (3 Bft) 100,00 %
18.09.2019 00:18 22,0 C 13,5 C 54 % 72 % 1019,8 hPa 0,0 l/m 8,0 km/h (2 Bft) W-SW 247 0,000 mm 8,6 C 12,5 C 14,5 km/h (3 Bft) 95,65 %
18.09.2019 00:17 22,0 C 13,5 C 54 % 72 % 1019,7 hPa 0,0 l/m 8,0 km/h (2 Bft) W-SW 247 0,000 mm 8,6 C 12,5 C 16,1 km/h (3 Bft) 100,00 %
18.09.2019 00:16 22,0 C 13,4 C 54 % 73 % 1019,8 hPa 0,0 l/m 8,0 km/h (2 Bft) SW 225 0,000 mm 8,7 C 12,4 C 12,9 km/h (3 Bft) 100,00 %
18.09.2019 00:15 22,0 C 13,4 C 54 % 73 % 1019,7 hPa 0,0 l/m 6,4 km/h (2 Bft) W-SW 247 0,000 mm 8,7 C 13,4 C 11,3 km/h (2 Bft) 95,65 %
18.09.2019 00:14 22,0 C 13,4 C 55 % 73 % 1019,8 hPa 0,0 l/m 8,0 km/h (2 Bft) SW 225 0,000 mm 8,7 C 12,4 C 16,1 km/h (3 Bft) 100,00 %
18.09.2019 00:13 22,0 C 13,4 C 55 % 73 % 1019,7 hPa 0,0 l/m 8,0 km/h (2 Bft) W-NW 292 0,000 mm 8,7 C 12,4 C 12,9 km/h (3 Bft) 100,00 %
18.09.2019 00:12 22,0 C 13,4 C 55 % 73 % 1019,8 hPa 0,0 l/m 6,4 km/h (2 Bft) W-SW 247 0,000 mm 8,7 C 13,4 C 12,9 km/h (3 Bft) 100,00 %
18.09.2019 00:11 22,0 C 13,4 C 55 % 73 % 1019,7 hPa 0,0 l/m 6,4 km/h (2 Bft) W-SW 247 0,000 mm 8,7 C 13,4 C 12,9 km/h (3 Bft) 91,30 %
18.09.2019 00:10 22,0 C 13,4 C 55 % 73 % 1019,7 hPa 0,0 l/m 9,7 km/h (2 Bft) W-SW 247 0,000 mm 8,7 C 11,5 C 14,5 km/h (3 Bft) 95,65 %
18.09.2019 00:09 22,0 C 13,3 C 55 % 73 % 1019,7 hPa 0,0 l/m 6,4 km/h (2 Bft) W-SW 247 0,000 mm 8,6 C 13,3 C 9,7 km/h (2 Bft) 100,00 %
18.09.2019 00:08 22,0 C 13,3 C 55 % 73 % 1019,7 hPa 0,0 l/m 8,0 km/h (2 Bft) W-SW 247 0,000 mm 8,6 C 12,3 C 12,9 km/h (3 Bft) 86,96 %
18.09.2019 00:07 22,0 C 13,3 C 55 % 73 % 1019,7 hPa 0,0 l/m 8,0 km/h (2 Bft) W 270 0,000 mm 8,6 C 12,3 C 14,5 km/h (3 Bft) 100,00 %
18.09.2019 00:06 22,0 C 13,3 C 55 % 73 % 1019,7 hPa 0,0 l/m 8,0 km/h (2 Bft) W 270 0,000 mm 8,6 C 12,3 C 11,3 km/h (2 Bft) 100,00 %
18.09.2019 00:05 22,0 C 13,3 C 55 % 73 % 1019,6 hPa 0,0 l/m 4,8 km/h (1 Bft) SW 225 0,000 mm 8,6 C 13,3 C 9,7 km/h (2 Bft) 100,00 %
18.09.2019 00:04 22,0 C 13,3 C 55 % 73 % 1019,6 hPa 0,0 l/m 8,0 km/h (2 Bft) W 270 0,000 mm 8,6 C 12,3 C 14,5 km/h (3 Bft) 100,00 %
18.09.2019 00:03 22,0 C 13,3 C 55 % 73 % 1019,7 hPa 0,0 l/m 6,4 km/h (2 Bft) W-SW 247 0,000 mm 8,6 C 13,3 C 11,3 km/h (2 Bft) 100,00 %
18.09.2019 00:02 22,1 C 13,3 C 55 % 73 % 1019,7 hPa 0,0 l/m 8,0 km/h (2 Bft) W 270 0,000 mm 8,6 C 12,3 C 11,3 km/h (2 Bft) 100,00 %
18.09.2019 00:01 22,1 C 13,3 C 55 % 73 % 1019,6 hPa 0,0 l/m 8,0 km/h (2 Bft) W 270 0,000 mm 8,6 C 12,3 C 11,3 km/h (2 Bft) 95,65 %
18.09.2019 00:00 22,1 C 13,3 C 55 % 73 % 1019,6 hPa 0,0 l/m 8,0 km/h (2 Bft) W-SW 247 0,000 mm 8,6 C 12,3 C 12,9 km/h (3 Bft) 95,65 %
_ Min-Zeit 17:31 07:16 17:29 16:28 00:00 - 05:14 - - - 18:11 07:17 05:58 14:29
Minimum _ 21,3 C 10,4 C 40 % 33 % 1019,6 hPa - 0,0 km/h (0 Bft) - - - -0,0 C 10,4 C 0,0 km/h (0 Bft) 60,87 %
_ Max-Zeit 00:00 14:52 00:00 00:00 10:00 00:00 00:10 - - 00:00 00:30 16:13 02:20 00:02
Maximum _ 22,1 C 17,1 C 55 % 73 % 1024,5 hPa 0,0 l/m 9,7 km/h
W-SW (2 Bft)
- - 0,000 mm 8,7 C 17,0 C 17,7 km/h
W-SW (3 Bft)
100,00 %
Durchschnitt _ 21,6 C 13,4 C 47 % 56 % 1022,7 hPa #0,0 l/m 3,7 km/h (1 Bft) W-SW - #0,000 mm 4,5 C 13,4 C 6,7 km/h (2 Bft) 99,07 %